[[{"header":{"parameterUnit":"m.s-1","parameterCategory":1,"la1":31.0,"la2":29.5877,"lo1":-88.7671,"lo2":-86.6584,"dy":0.0162,"dx":0.0185,"nx":115,"ny":88,"refTime":"2025-12-21T00:00:00:Z","depth":0,"parameterNumber":2,"parameterNumberName":"U-component_of_WINDS"},"data":[0.0,0.0,0.0,0.0,0.0,0.0,0.0,0.0,0.0,0.0,0.0,0.0,0.0,0.0,0.0,0.0,0.0,0.0,0.0,0.0,0.0,0.0,0.0,0.0,0.0,0.0,0.0,0.0,0.0,0.0,0.0,0.0,0.0,0.0,0.0,0.0,0.0,0.0,0.0,0.0,0.0,0.0,0.0,0.0,0.0,0.0,0.0,0.0,0.0,0.0,0.0,0.0,0.0,0.0,0.0,0.0,0.0,0.0,0.0,0.0,0.0,0.0,0.0,0.0,0.0,0.0,0.0,0.0,0.0,0.0,0.0,0.0,0.0,0.0,0.0,0.0,0.0,0.0,0.0,0.0,0.0,0.0,0.0,0.0,0.0,0.0,0.0,0.0,0.0,0.0,0.0,0.0,0.0,0.0,0.0,0.0,0.0,0.0,0.0,0.0,0.0,0.0,0.0,0.0,0.0,0.0,0.0,0.0,0.0,0.0,0.0,0.0,0.0,0.0,0.0,0.0,0.0,0.0,0.0,0.0,0.0,0.0,0.0,0.0,0.0,0.0,0.0,0.0,0.0,0.0,0.0,0.0,0.0,0.0,0.0,0.0,0.0,0.0,0.0,0.0,0.0,0.0,0.0,0.0,0.0,0.0,0.0,0.0,0.0,0.0,0.0,0.0,0.0,0.0,0.0,0.0,0.0,0.0,0.0,0.0,0.0,0.0,0.0,0.0,0.0,0.0,0.0,0.0,0.0,0.0,0.0,0.0,0.0,0.0,0.0,0.0,0.0,0.0,0.0,0.0,0.0,0.0,0.0,0.0,0.0,0.0,0.0,0.0,0.0,0.0,0.0,0.0,0.0,0.0,0.0,0.0,0.0,0.0,0.0,0.0,0.0,0.0,0.0,0.0,0.0,0.0,0.0,0.0,0.0,0.0,0.0,0.0,0.0,0.0,0.0,0.0,0.0,0.0,0.0,0.0,0.0,0.0,0.0,0.0,0.0,0.0,0.0,0.0,0.0,0.0,0.0,0.0,0.0,0.0,0.0,0.0,0.0,0.0,0.0,0.0,0.0,0.0,0.0,0.0,0.0,0.0,0.0,0.0,0.0,0.0,0.0,0.0,0.0,0.0,0.0,0.0,0.0,0.0,0.0,0.0,0.0,0.0,0.0,0.0,0.0,0.0,0.0,0.0,0.0,0.0,0.0,0.0,0.0,0.0,0.0,0.0,0.0,0.0,0.0,0.0,0.0,0.0,0.0,0.0,0.0,0.0,0.0,0.0,0.0,0.0,0.0,0.0,0.0,0.0,0.0,0.0,0.0,0.0,0.0,0.0,0.0,0.0,0.0,0.0,0.0,0.0,0.0,0.0,0.0,0.0,0.0,0.0,0.0,0.0,0.0,0.0,0.0,0.0,0.0,0.0,0.0,0.0,0.0,0.0,0.0,0.0,0.0,0.0,0.0,0.0,0.0,0.0,0.0,0.0,0.0,0.0,0.0,0.0,0.0,0.0,0.0,0.0,0.0,0.0,0.0,0.0,0.0,0.0,0.0,0.0,0.0,0.0,0.0,0.0,0.0,0.0,0.0,0.0,0.0,0.0,0.0,0.0,0.0,0.0,0.0,0.0,0.0,0.0,0.0,0.0,0.0,0.0,0.0,0.0,0.0,0.0,0.0,0.0,0.0,0.0,0.0,0.0,0.0,0.0,0.0,0.0,0.0,0.0,0.0,0.0,0.0,0.0,0.0,0.0,0.0,0.0,0.0,0.0,0.0,0.0,0.0,0.0,0.0,0.0,0.0,0.0,0.0,0.0,0.0,0.0,0.0,0.0,0.0,0.0,0.0,0.0,0.0,0.0,0.0,0.0,0.0,0.0,0.0,0.0,0.0,0.0,0.0,0.0,0.0,0.0,0.0,0.0,0.0,0.0,0.0,0.0,0.0,0.0,0.0,0.0,0.0,0.0,0.0,0.0,0.0,0.0,0.0,0.0,0.0,0.0,0.0,0.0,0.0,0.0,0.0,0.0,0.0,0.0,0.0,0.0,0.0,0.0,0.0,0.0,0.0,0.0,0.0,0.0,0.0,0.0,0.0,0.0,0.0,0.0,0.0,0.0,0.0,0.0,0.0,0.0,0.0,0.0,0.0,0.0,0.0,0.0,0.0,0.0,0.0,0.0,0.0,0.0,0.0,0.0,0.0,0.0,0.0,0.0,0.0,0.0,0.0,0.0,0.0,0.0,0.0,0.0,0.0,0.0,0.0,0.0,0.0,0.0,0.0,0.0,0.0,0.0,0.0,0.0,0.0,0.0,0.0,0.0,0.0,0.0,0.0,0.0,0.0,0.0,0.0,0.0,0.0,0.0,0.0,0.0,0.0,0.0,0.0,0.0,0.0,0.0,0.0,0.0,0.0,0.0,0.0,0.0,0.0,0.0,0.0,0.0,0.0,0.0,0.0,0.0,0.0,0.0,0.0,0.0,0.0,0.0,0.0,0.0,0.0,0.0,0.0,0.0,0.0,0.0,0.0,0.0,0.0,0.0,0.0,0.0,0.0,0.0,0.0,0.0,0.0,0.0,0.0,0.0,0.0,0.0,0.0,0.0,0.0,0.0,0.0,0.0,0.0,0.0,0.0,0.0,0.0,0.0,0.0,0.0,0.0,0.0,0.0,0.0,0.0,0.0,0.0,0.0,0.0,0.0,0.0,0.0,0.0,0.0,0.0,0.0,0.0,0.0,0.0,0.0,0.0,0.0,0.0,0.0,0.0,0.0,0.0,0.0,0.0,0.0,0.0,0.0,0.0,0.0,0.0,0.0,0.0,0.0,0.0,0.0,0.0,0.0,0.0,0.0,0.0,0.0,0.0,0.0,0.0,0.0,0.0,0.0,0.0,0.0,0.0,0.0,0.0,0.0,0.0,0.0,0.0,0.0,0.0,0.0,0.0,0.0,0.0,0.0,0.0,0.0,0.0,0.0,0.0,0.0,0.0,0.0,0.0,0.0,0.0,0.0,0.0,0.0,0.0,0.0,0.0,0.0,0.0,0.0,0.0,0.0,0.0,0.0,0.0,0.0,0.0,0.0,0.0,0.0,0.0,0.0,0.0,0.0,0.0,0.0,0.0,0.0,0.0,0.0,0.0,0.0,0.0,0.0,0.0,0.0,0.0,0.0,0.0,0.0,0.0,0.0,0.0,0.0,0.0,0.0,0.0,0.0,0.0,0.0,0.0,0.0,0.0,0.0,0.0,0.0,0.0,0.0,0.0,0.0,0.0,0.0,0.0,0.0,0.0,0.0,0.0,0.0,0.0,0.0,0.0,0.0,0.0,0.0,0.0,0.0,0.0,0.0,0.0,0.0,0.0,0.0,0.0,0.0,0.0,0.0,0.0,0.0,0.0,0.0,0.0,0.0,0.0,0.0,0.0,0.0,0.0,0.0,0.0,0.0,0.0,0.0,0.0,0.0,0.0,0.0,0.0,0.0,0.0,0.0,0.0,0.0,0.0,0.0,0.0,0.0,0.0,0.0,0.0,0.0,0.0,0.0,0.0,0.0,0.0,0.0,0.0,0.0,0.0,0.0,0.0,0.0,0.0,0.0,0.0,0.0,0.0,0.0,0.0,0.0,0.0,0.0,0.0,0.0,0.0,0.0,0.0,0.0,0.0,0.0,0.0,0.0,0.0,0.0,0.0,0.0,0.0,0.0,0.0,0.0,0.0,0.0,0.0,0.0,0.0,0.0,0.0,0.0,0.0,0.0,0.0,0.0,0.0,0.0,0.0,0.0,0.0,0.0,0.0,0.0,0.0,0.0,0.0,0.0,0.0,0.0,0.0,0.0,0.0,0.0,0.0,0.0,0.0,0.0,0.0,0.0,0.0,0.0,0.0,0.0,0.0,0.0,0.0,0.0,0.0,0.0,0.0,0.0,0.0,0.0,0.0,0.0,0.0,0.0,0.0,0.0,0.0,0.0,0.0,0.0,0.0,0.0,0.0,0.0,0.0,0.0,0.0,0.0,0.0,0.0,0.0,0.0,0.0,0.0,0.0,0.0,0.0,0.0,0.0,0.0,0.0,0.0,0.0,0.0,0.0,0.0,0.0,0.0,0.0,0.0,0.0,0.0,0.0,0.0,0.0,0.0,0.0,0.0,0.0,0.0,0.0,0.0,0.0,0.0,0.0,0.0,0.0,0.0,0.0,0.0,0.0,0.0,0.0,0.0,0.0,0.0,0.0,0.0,0.0,0.0,0.0,0.0,0.0,0.0,0.0,0.0,0.0,0.0,0.0,0.0,-2.5703,0.0,0.0,0.0,0.0,0.0,0.0,0.0,0.0,0.0,0.0,0.0,0.0,0.0,0.0,0.0,0.0,0.0,0.0,0.0,0.0,0.0,0.0,0.0,0.0,0.0,0.0,0.0,0.0,0.0,0.0,0.0,0.0,0.0,0.0,0.0,0.0,0.0,0.0,0.0,0.0,0.0,0.0,0.0,0.0,0.0,0.0,0.0,0.0,0.0,0.0,0.0,0.0,0.0,0.0,0.0,0.0,0.0,0.0,0.0,0.0,0.0,0.0,0.0,0.0,0.0,0.0,0.0,0.0,0.0,0.0,0.0,0.0,0.0,0.0,0.0,0.0,0.0,0.0,0.0,0.0,0.0,0.0,0.0,0.0,0.0,0.0,0.0,0.0,0.0,0.0,0.0,0.0,0.0,0.0,0.0,0.0,0.0,0.0,0.0,0.0,0.0,0.0,0.0,0.0,0.0,0.0,0.0,0.0,0.0,0.0,-2.5683,-2.5638,-2.5683,-2.5683,-2.5638,0.0,0.0,0.0,0.0,0.0,0.0,0.0,0.0,0.0,0.0,0.0,0.0,0.0,0.0,0.0,0.0,0.0,0.0,0.0,0.0,0.0,0.0,0.0,0.0,0.0,0.0,0.0,0.0,0.0,0.0,0.0,0.0,0.0,0.0,0.0,0.0,0.0,0.0,0.0,0.0,0.0,0.0,0.0,0.0,0.0,0.0,0.0,0.0,0.0,0.0,0.0,0.0,0.0,0.0,0.0,0.0,0.0,0.0,0.0,0.0,0.0,0.0,0.0,0.0,0.0,0.0,0.0,0.0,0.0,0.0,0.0,0.0,0.0,0.0,0.0,0.0,0.0,0.0,0.0,0.0,0.0,0.0,0.0,0.0,0.0,0.0,0.0,0.0,0.0,0.0,0.0,0.0,0.0,0.0,0.0,0.0,0.0,0.0,0.0,0.0,0.0,0.0,0.0,0.0,0.0,0.0,0.0,0.0,0.0,0.0,0.0,0.0,-2.5759,-2.5662,-2.5603,0.0,0.0,0.0,0.0,0.0,0.0,0.0,0.0,0.0,0.0,0.0,0.0,0.0,0.0,0.0,0.0,0.0,0.0,0.0,0.0,0.0,0.0,0.0,0.0,0.0,0.0,0.0,0.0,0.0,0.0,0.0,0.0,0.0,0.0,0.0,0.0,0.0,0.0,0.0,0.0,0.0,0.0,0.0,0.0,0.0,0.0,0.0,0.0,0.0,0.0,0.0,0.0,0.0,0.0,0.0,0.0,0.0,0.0,0.0,0.0,0.0,0.0,0.0,0.0,0.0,0.0,0.0,0.0,0.0,0.0,0.0,0.0,0.0,0.0,0.0,0.0,0.0,0.0,0.0,0.0,0.0,0.0,0.0,0.0,0.0,0.0,0.0,0.0,0.0,0.0,0.0,0.0,0.0,0.0,0.0,0.0,0.0,0.0,0.0,0.0,0.0,0.0,0.0,0.0,0.0,0.0,0.0,0.0,0.0,0.0,-2.5994,-2.6737,-2.6071,0.0,-2.5564,0.0,0.0,0.0,0.0,0.0,0.0,0.0,0.0,0.0,0.0,0.0,0.0,0.0,0.0,0.0,0.0,0.0,0.0,0.0,0.0,0.0,0.0,0.0,0.0,0.0,0.0,0.0,0.0,0.0,0.0,0.0,0.0,0.0,0.0,0.0,0.0,0.0,0.0,0.0,0.0,0.0,0.0,0.0,0.0,0.0,0.0,0.0,0.0,0.0,0.0,0.0,0.0,0.0,0.0,0.0,0.0,0.0,0.0,0.0,0.0,0.0,0.0,0.0,0.0,0.0,0.0,0.0,0.0,0.0,0.0,0.0,0.0,0.0,0.0,0.0,0.0,0.0,0.0,0.0,0.0,0.0,0.0,0.0,0.0,0.0,0.0,0.0,0.0,0.0,0.0,0.0,0.0,0.0,0.0,0.0,0.0,0.0,0.0,0.0,0.0,0.0,0.0,0.0,0.0,0.0,0.0,0.0,0.0,0.0,0.0,0.0,-2.6057,-2.574,-2.534,0.0,0.0,0.0,0.0,0.0,0.0,0.0,0.0,0.0,0.0,0.0,0.0,0.0,0.0,0.0,0.0,0.0,0.0,0.0,0.0,0.0,0.0,0.0,0.0,0.0,0.0,0.0,0.0,0.0,0.0,0.0,0.0,0.0,0.0,0.0,0.0,0.0,0.0,0.0,0.0,0.0,0.0,0.0,0.0,0.0,0.0,0.0,0.0,0.0,0.0,0.0,0.0,0.0,0.0,0.0,0.0,0.0,0.0,0.0,0.0,0.0,0.0,0.0,0.0,0.0,0.0,0.0,0.0,0.0,0.0,0.0,0.0,0.0,0.0,0.0,0.0,0.0,0.0,0.0,0.0,0.0,0.0,0.0,0.0,0.0,0.0,0.0,0.0,0.0,0.0,0.0,0.0,0.0,0.0,0.0,0.0,0.0,0.0,0.0,0.0,0.0,0.0,0.0,0.0,0.0,0.0,0.0,0.0,0.0,0.0,-2.5813,0.0,-2.5543,-2.5543,-2.5148,-2.4361,0.0,0.0,0.0,0.0,0.0,0.0,0.0,0.0,0.0,0.0,0.0,0.0,0.0,0.0,0.0,0.0,0.0,0.0,0.0,0.0,0.0,0.0,0.0,0.0,0.0,0.0,0.0,0.0,0.0,0.0,0.0,0.0,0.0,0.0,0.0,0.0,0.0,0.0,0.0,0.0,0.0,0.0,0.0,0.0,0.0,0.0,0.0,0.0,0.0,0.0,0.0,0.0,0.0,0.0,0.0,0.0,0.0,0.0,0.0,0.0,0.0,0.0,0.0,0.0,0.0,0.0,0.0,0.0,0.0,0.0,0.0,0.0,0.0,0.0,0.0,0.0,0.0,0.0,0.0,0.0,0.0,0.0,0.0,0.0,0.0,0.0,0.0,0.0,0.0,0.0,0.0,0.0,0.0,0.0,0.0,0.0,0.0,0.0,0.0,0.0,0.0,0.0,0.0,0.0,0.0,0.0,0.0,0.0,0.0,-2.6321,-2.5566,-2.5683,-2.5633,-2.5222,0.0,0.0,0.0,0.0,0.0,0.0,0.0,0.0,0.0,0.0,0.0,0.0,0.0,0.0,0.0,0.0,0.0,0.0,0.0,0.0,0.0,0.0,0.0,0.0,0.0,0.0,0.0,0.0,0.0,0.0,0.0,0.0,0.0,0.0,0.0,0.0,0.0,0.0,0.0,0.0,0.0,0.0,0.0,0.0,0.0,0.0,0.0,0.0,0.0,0.0,0.0,0.0,0.0,0.0,0.0,0.0,0.0,0.0,0.0,0.0,0.0,0.0,0.0,0.0,0.0,0.0,0.0,0.0,0.0,0.0,0.0,0.0,0.0,0.0,0.0,0.0,0.0,0.0,0.0,0.0,0.0,0.0,0.0,0.0,0.0,0.0,0.0,0.0,0.0,0.0,0.0,0.0,0.0,0.0,0.0,0.0,0.0,0.0,0.0,0.0,0.0,0.0,0.0,0.0,0.0,0.0,0.0,0.0,0.0,-2.6258,-2.5783,-2.5545,-2.5616,-2.5606,-2.4961,0.0,0.0,0.0,0.0,0.0,0.0,0.0,0.0,0.0,0.0,0.0,0.0,0.0,0.0,0.0,0.0,0.0,0.0,0.0,0.0,0.0,0.0,0.0,0.0,0.0,0.0,0.0,0.0,0.0,0.0,0.0,0.0,0.0,0.0,0.0,0.0,0.0,0.0,0.0,0.0,0.0,0.0,0.0,0.0,0.0,0.0,0.0,0.0,0.0,0.0,0.0,0.0,0.0,0.0,0.0,0.0,0.0,0.0,0.0,0.0,0.0,0.0,0.0,0.0,0.0,0.0,0.0,0.0,0.0,0.0,0.0,0.0,0.0,0.0,0.0,0.0,0.0,0.0,0.0,0.0,0.0,0.0,0.0,0.0,0.0,0.0,0.0,0.0,0.0,0.0,0.0,0.0,0.0,0.0,0.0,0.0,0.0,0.0,0.0,0.0,0.0,0.0,0.0,0.0,0.0,0.0,0.0,0.0,0.0,-2.5402,0.0,-2.5792,0.0,-2.5602,-2.4819,0.0,0.0,0.0,0.0,0.0,0.0,0.0,0.0,0.0,0.0,0.0,0.0,0.0,0.0,0.0,0.0,0.0,0.0,0.0,0.0,0.0,0.0,0.0,0.0,0.0,0.0,0.0,0.0,0.0,0.0,0.0,0.0,0.0,0.0,0.0,0.0,0.0,0.0,0.0,0.0,0.0,0.0,0.0,0.0,0.0,0.0,0.0,0.0,0.0,0.0,0.0,0.0,0.0,0.0,0.0,0.0,0.0,0.0,0.0,0.0,0.0,0.0,0.0,0.0,0.0,0.0,0.0,0.0,0.0,0.0,0.0,0.0,0.0,0.0,0.0,0.0,0.0,0.0,0.0,0.0,0.0,0.0,0.0,0.0,0.0,0.0,0.0,0.0,0.0,0.0,0.0,0.0,0.0,0.0,0.0,0.0,0.0,0.0,0.0,0.0,0.0,0.0,0.0,0.0,0.0,0.0,0.0,0.0,0.0,-2.5418,-2.62,-2.627,-2.5637,-2.5603,-2.4852,0.0,0.0,0.0,0.0,0.0,0.0,0.0,0.0,0.0,0.0,0.0,0.0,0.0,0.0,0.0,0.0,0.0,0.0,0.0,0.0,0.0,0.0,0.0,0.0,0.0,0.0,0.0,0.0,0.0,0.0,0.0,0.0,0.0,0.0,0.0,0.0,0.0,0.0,0.0,0.0,0.0,0.0,0.0,0.0,0.0,0.0,0.0,0.0,0.0,0.0,0.0,0.0,0.0,0.0,0.0,0.0,0.0,0.0,0.0,0.0,0.0,0.0,0.0,0.0,0.0,0.0,0.0,0.0,0.0,0.0,0.0,0.0,0.0,0.0,0.0,0.0,0.0,0.0,0.0,0.0,0.0,0.0,0.0,0.0,0.0,0.0,0.0,0.0,0.0,0.0,0.0,0.0,0.0,0.0,0.0,0.0,0.0,0.0,0.0,0.0,0.0,0.0,0.0,0.0,0.0,0.0,0.0,0.0,0.0,-2.5395,-2.5677,-2.5716,-2.5554,-2.5569,-2.5078,0.0,0.0,0.0,0.0,0.0,0.0,0.0,0.0,0.0,0.0,0.0,0.0,0.0,0.0,0.0,0.0,0.0,0.0,0.0,0.0,0.0,0.0,0.0,0.0,0.0,0.0,0.0,0.0,0.0,0.0,0.0,0.0,0.0,0.0,0.0,0.0,0.0,0.0,0.0,0.0,0.0,0.0,0.0,0.0,0.0,0.0,0.0,0.0,0.0,0.0,0.0,0.0,0.0,0.0,0.0,0.0,0.0,0.0,0.0,0.0,0.0,0.0,0.0,0.0,0.0,0.0,0.0,0.0,0.0,0.0,0.0,0.0,0.0,0.0,0.0,0.0,0.0,0.0,0.0,0.0,0.0,0.0,0.0,0.0,0.0,0.0,0.0,0.0,0.0,0.0,0.0,0.0,0.0,0.0,0.0,0.0,0.0,0.0,0.0,0.0,0.0,0.0,0.0,0.0,0.0,0.0,0.0,0.0,0.0,-2.535,-2.5367,-2.5402,-2.5449,-2.551,-2.5139,-2.4349,0.0,0.0,0.0,0.0,0.0,0.0,0.0,0.0,0.0,0.0,0.0,0.0,0.0,0.0,0.0,0.0,0.0,0.0,0.0,0.0,0.0,0.0,0.0,0.0,0.0,0.0,0.0,0.0,0.0,0.0,0.0,0.0,0.0,0.0,0.0,0.0,0.0,0.0,0.0,0.0,0.0,0.0,0.0,0.0,0.0,0.0,0.0,0.0,0.0,0.0,0.0,0.0,0.0,0.0,0.0,0.0,0.0,0.0,0.0,0.0,0.0,0.0,0.0,0.0,0.0,0.0,0.0,0.0,0.0,0.0,0.0,0.0,0.0,0.0,0.0,0.0,0.0,0.0,0.0,0.0,0.0,0.0,0.0,0.0,0.0,0.0,0.0,0.0,0.0,0.0,0.0,0.0,0.0,0.0,0.0,0.0,0.0,0.0,0.0,0.0,0.0,0.0,0.0,0.0,0.0,0.0,0.0,0.0,-2.5274,-2.5284,-2.533,-2.5398,-2.5402,-2.5071,0.0,0.0,0.0,0.0,0.0,0.0,0.0,0.0,0.0,0.0,0.0,0.0,0.0,0.0,0.0,0.0,0.0,0.0,0.0,0.0,0.0,0.0,0.0,0.0,0.0,0.0,0.0,0.0,0.0,0.0,0.0,0.0,0.0,0.0,0.0,0.0,0.0,0.0,0.0,0.0,0.0,0.0,0.0,0.0,0.0,0.0,0.0,0.0,0.0,0.0,0.0,0.0,0.0,0.0,0.0,0.0,0.0,0.0,0.0,0.0,0.0,0.0,0.0,0.0,0.0,0.0,0.0,0.0,0.0,0.0,0.0,0.0,0.0,0.0,0.0,0.0,0.0,0.0,0.0,0.0,0.0,0.0,0.0,0.0,0.0,0.0,0.0,0.0,0.0,0.0,0.0,0.0,0.0,0.0,0.0,0.0,0.0,0.0,0.0,0.0,0.0,0.0,0.0,0.0,0.0,0.0,0.0,0.0,0.0,-2.5082,-2.5219,-2.5303,-2.534,-2.5368,-2.5344,0.0,0.0,0.0,0.0,0.0,0.0,0.0,0.0,0.0,0.0,0.0,0.0,0.0,0.0,0.0,0.0,0.0,0.0,0.0,0.0,0.0,0.0,0.0,0.0,0.0,0.0,0.0,0.0,0.0,0.0,0.0,0.0,0.0,0.0,0.0,0.0,0.0,0.0,0.0,0.0,0.0,0.0,0.0,0.0,0.0,0.0,0.0,0.0,0.0,0.0,0.0,0.0,0.0,0.0,0.0,0.0,0.0,0.0,0.0,0.0,0.0,0.0,0.0,0.0,0.0,0.0,0.0,0.0,0.0,0.0,0.0,0.0,0.0,0.0,0.0,0.0,0.0,0.0,0.0,0.0,0.0,0.0,0.0,0.0,0.0,0.0,0.0,0.0,0.0,0.0,0.0,0.0,0.0,0.0,0.0,0.0,0.0,0.0,0.0,0.0,0.0,0.0,0.0,0.0,0.0,0.0,0.0,0.0,-2.4784,-2.4503,-2.5006,-2.5135,-2.4788,-2.5151,-2.5413,0.0,0.0,0.0,0.0,0.0,0.0,0.0,0.0,0.0,0.0,0.0,0.0,0.0,0.0,0.0,0.0,0.0,0.0,0.0,0.0,0.0,0.0,0.0,0.0,0.0,0.0,0.0,0.0,0.0,0.0,0.0,0.0,0.0,0.0,0.0,0.0,0.0,0.0,0.0,0.0,0.0,0.0,0.0,0.0,0.0,0.0,0.0,0.0,0.0,0.0,0.0,0.0,0.0,0.0,0.0,0.0,0.0,0.0,0.0,0.0,0.0,0.0,0.0,0.0,0.0,0.0,0.0,0.0,0.0,0.0,0.0,0.0,0.0,0.0,0.0,0.0,0.0,0.0,0.0,0.0,0.0,0.0,0.0,0.0,0.0,0.0,0.0,0.0,0.0,0.0,0.0,0.0,0.0,0.0,0.0,0.0,0.0,0.0,0.0,0.0,0.0,0.0,0.0,0.0,0.0,0.0,0.0,0.0,-2.4451,-2.3787,-2.4771,-2.4928,-2.4149,-2.4889,-2.5348,0.0,0.0,0.0,0.0,0.0,0.0,0.0,0.0,0.0,0.0,0.0,0.0,0.0,0.0,0.0,0.0,0.0,0.0,0.0,0.0,0.0,0.0,0.0,0.0,0.0,0.0,0.0,0.0,0.0,0.0,0.0,0.0,0.0,0.0,0.0,0.0,0.0,0.0,0.0,0.0,0.0,0.0,0.0,0.0,0.0,0.0,0.0,0.0,0.0,0.0,0.0,0.0,0.0,0.0,0.0,0.0,0.0,0.0,0.0,0.0,0.0,0.0,0.0,0.0,0.0,0.0,0.0,0.0,0.0,0.0,0.0,0.0,0.0,0.0,0.0,0.0,0.0,0.0,0.0,0.0,0.0,0.0,0.0,0.0,0.0,0.0,0.0,0.0,0.0,0.0,0.0,0.0,0.0,0.0,0.0,0.0,0.0,0.0,0.0,0.0,0.0,0.0,0.0,0.0,0.0,0.0,0.0,0.0,-2.4396,-2.363,-2.4698,-2.4904,-2.4125,-2.487,-2.5345,0.0,0.0,0.0,0.0,0.0,0.0,0.0,0.0,0.0,0.0,0.0,0.0,0.0,0.0,0.0,0.0,0.0,0.0,0.0,0.0,0.0,0.0,0.0,0.0,0.0,0.0,0.0,0.0,0.0,0.0,0.0,0.0,0.0,0.0,0.0,0.0,0.0,0.0,0.0,0.0,0.0,0.0,0.0,0.0,0.0,0.0,0.0,0.0,-2.4843,0.0,0.0,0.0,0.0,0.0,0.0,0.0,0.0,0.0,0.0,0.0,0.0,0.0,0.0,0.0,0.0,0.0,0.0,0.0,0.0,0.0,0.0,0.0,0.0,0.0,0.0,0.0,0.0,0.0,0.0,0.0,0.0,0.0,0.0,0.0,0.0,0.0,0.0,0.0,0.0,0.0,0.0,0.0,0.0,0.0,0.0,0.0,0.0,0.0,0.0,0.0,0.0,0.0,0.0,0.0,0.0,0.0,0.0,0.0,-2.4123,-2.3554,-2.4592,-2.483,-2.4163,-2.487,-2.5352,0.0,0.0,0.0,0.0,0.0,0.0,0.0,0.0,0.0,0.0,0.0,0.0,0.0,0.0,0.0,0.0,0.0,0.0,0.0,0.0,0.0,0.0,0.0,0.0,0.0,0.0,0.0,0.0,0.0,0.0,0.0,0.0,0.0,0.0,0.0,0.0,0.0,0.0,0.0,0.0,0.0,0.0,0.0,0.0,0.0,0.0,0.0,0.0,0.0,0.0,0.0,0.0,0.0,0.0,0.0,0.0,0.0,0.0,0.0,0.0,0.0,0.0,0.0,0.0,0.0,0.0,0.0,0.0,0.0,0.0,0.0,0.0,0.0,0.0,0.0,0.0,0.0,0.0,0.0,0.0,0.0,0.0,0.0,0.0,0.0,0.0,0.0,0.0,0.0,0.0,0.0,0.0,0.0,0.0,0.0,0.0,0.0,0.0,0.0,0.0,0.0,0.0,0.0,0.0,0.0,0.0,0.0,-2.386,-2.3838,-2.354,-2.448,-2.4709,-2.4152,-2.4899,-2.536,0.0,0.0,0.0,0.0,0.0,0.0,0.0,0.0,0.0,0.0,0.0,0.0,0.0,0.0,0.0,0.0,0.0,0.0,0.0,0.0,0.0,0.0,0.0,0.0,0.0,0.0,0.0,0.0,0.0,0.0,0.0,0.0,0.0,0.0,0.0,0.0,0.0,0.0,0.0,-2.1393,-2.2617,0.0,0.0,0.0,0.0,0.0,0.0,0.0,0.0,-2.4877,0.0,0.0,0.0,0.0,0.0,0.0,0.0,0.0,0.0,0.0,0.0,0.0,0.0,0.0,0.0,0.0,0.0,0.0,0.0,0.0,0.0,0.0,0.0,0.0,0.0,0.0,0.0,0.0,0.0,0.0,0.0,0.0,0.0,0.0,0.0,0.0,0.0,0.0,0.0,0.0,0.0,0.0,0.0,0.0,0.0,0.0,0.0,0.0,0.0,0.0,0.0,0.0,0.0,0.0,0.0,0.0,-2.3271,-2.3751,-2.3846,-2.3528,-2.4474,-2.4732,-2.4219,-2.4902,-2.5365,-2.5482,0.0,0.0,0.0,0.0,0.0,0.0,0.0,0.0,0.0,0.0,0.0,0.0,0.0,0.0,0.0,0.0,0.0,0.0,0.0,0.0,0.0,0.0,0.0,0.0,0.0,0.0,0.0,0.0,0.0,0.0,0.0,0.0,0.0,0.0,0.0,0.0,0.0,0.0,0.0,-2.2526,-2.3252,0.0,0.0,0.0,0.0,0.0,0.0,0.0,0.0,-2.4895,0.0,0.0,0.0,0.0,0.0,0.0,0.0,0.0,0.0,0.0,0.0,0.0,0.0,0.0,0.0,0.0,0.0,0.0,0.0,0.0,0.0,0.0,0.0,0.0,0.0,0.0,0.0,0.0,0.0,0.0,0.0,0.0,0.0,0.0,0.0,0.0,0.0,0.0,0.0,0.0,0.0,0.0,0.0,0.0,0.0,0.0,0.0,0.0,0.0,0.0,0.0,0.0,0.0,0.0,0.0,-2.2947,-2.3354,-2.37,-2.3914,-2.4549,-2.4856,-2.4797,-2.5149,-2.5386,0.0,0.0,0.0,0.0,0.0,0.0,0.0,0.0,0.0,0.0,0.0,0.0,0.0,0.0,0.0,0.0,0.0,0.0,0.0,0.0,0.0,0.0,0.0,0.0,0.0,0.0,0.0,0.0,0.0,0.0,0.0,0.0,0.0,0.0,0.0,0.0,0.0,0.0,0.0,0.0,-2.2235,-2.2924,-2.2935,0.0,0.0,0.0,0.0,0.0,0.0,-2.473,-2.4713,0.0,0.0,0.0,0.0,0.0,0.0,0.0,0.0,0.0,0.0,0.0,0.0,0.0,0.0,0.0,0.0,0.0,0.0,0.0,0.0,0.0,0.0,0.0,0.0,0.0,0.0,0.0,0.0,0.0,0.0,0.0,0.0,0.0,0.0,0.0,0.0,0.0,0.0,0.0,0.0,0.0,0.0,0.0,0.0,0.0,0.0,0.0,0.0,0.0,0.0,0.0,0.0,0.0,0.0,0.0,-2.2695,-2.3033,-2.3552,-2.4214,-2.4582,-2.4916,-2.524,-2.5305,-2.5334,0.0,0.0,0.0,0.0,0.0,0.0,0.0,0.0,0.0,0.0,0.0,0.0,0.0,0.0,0.0,0.0,0.0,0.0,0.0,0.0,0.0,0.0,0.0,0.0,0.0,0.0,0.0,0.0,0.0,0.0,0.0,0.0,0.0,0.0,0.0,0.0,0.0,0.0,0.0,0.0,0.0,-2.2961,-2.2709,-2.2739,0.0,0.0,0.0,0.0,-2.4575,-2.4772,0.0,0.0,0.0,0.0,0.0,0.0,0.0,0.0,0.0,0.0,0.0,0.0,0.0,0.0,0.0,0.0,0.0,0.0,0.0,0.0,0.0,0.0,0.0,0.0,0.0,0.0,0.0,0.0,0.0,0.0,0.0,0.0,0.0,0.0,0.0,0.0,0.0,0.0,0.0,0.0,0.0,0.0,0.0,0.0,0.0,0.0,0.0,0.0,0.0,0.0,0.0,0.0,0.0,0.0,0.0,0.0,-2.2695,-2.3033,-2.3454,-2.3998,-2.4352,-2.4728,-2.5111,-2.5081,-2.5159,0.0,0.0,0.0,0.0,0.0,0.0,0.0,0.0,0.0,0.0,0.0,0.0,0.0,0.0,0.0,0.0,0.0,0.0,0.0,0.0,0.0,0.0,0.0,0.0,0.0,0.0,0.0,0.0,0.0,0.0,0.0,0.0,0.0,0.0,0.0,0.0,0.0,0.0,0.0,0.0,0.0,-2.3834,-2.2751,-2.2865,-2.3047,0.0,0.0,0.0,-2.5088,-2.5355,0.0,0.0,0.0,0.0,0.0,0.0,0.0,0.0,0.0,0.0,0.0,0.0,0.0,0.0,0.0,0.0,0.0,0.0,0.0,0.0,0.0,0.0,0.0,0.0,0.0,0.0,0.0,0.0,0.0,0.0,0.0,0.0,0.0,0.0,0.0,0.0,0.0,0.0,0.0,0.0,0.0,0.0,0.0,0.0,0.0,0.0,0.0,0.0,0.0,0.0,0.0,0.0,0.0,0.0,0.0,-2.2101,-2.2463,-2.2538,-2.286,-2.3408,-2.3765,-2.416,-2.4647,-2.4643,-2.4831,0.0,0.0,0.0,0.0,0.0,0.0,0.0,0.0,0.0,0.0,0.0,0.0,0.0,0.0,0.0,0.0,0.0,0.0,0.0,0.0,0.0,0.0,0.0,0.0,0.0,0.0,0.0,0.0,0.0,0.0,0.0,0.0,0.0,0.0,0.0,0.0,0.0,0.0,0.0,0.0,0.0,0.0,-2.2866,-2.3067,0.0,0.0,0.0,-2.3623,-2.4519,0.0,0.0,0.0,0.0,0.0,0.0,0.0,0.0,0.0,0.0,0.0,0.0,0.0,0.0,0.0,0.0,0.0,0.0,0.0,0.0,0.0,0.0,0.0,0.0,0.0,0.0,0.0,0.0,0.0,0.0,0.0,0.0,0.0,0.0,0.0,0.0,0.0,0.0,0.0,0.0,0.0,0.0,0.0,0.0,0.0,0.0,0.0,0.0,0.0,0.0,0.0,0.0,0.0,0.0,0.0,0.0,0.0,-2.1959,-2.196,-2.2208,-2.2758,-2.3111,-2.3531,-2.408,-2.4149,0.0,0.0,0.0,0.0,0.0,0.0,0.0,0.0,0.0,0.0,0.0,0.0,0.0,0.0,0.0,0.0,0.0,0.0,0.0,0.0,0.0,0.0,0.0,0.0,0.0,0.0,0.0,-1.9084,0.0,0.0,0.0,0.0,0.0,0.0,0.0,0.0,0.0,0.0,0.0,0.0,0.0,0.0,-2.2795,-2.3029,-2.3158,-2.3231,0.0,0.0,-2.3581,-2.41,-2.4283,-2.4313,0.0,0.0,0.0,0.0,0.0,0.0,0.0,0.0,0.0,0.0,0.0,0.0,0.0,0.0,0.0,0.0,0.0,0.0,0.0,0.0,0.0,0.0,0.0,0.0,0.0,0.0,0.0,0.0,0.0,0.0,0.0,0.0,0.0,0.0,0.0,0.0,0.0,0.0,0.0,0.0,0.0,0.0,0.0,0.0,0.0,0.0,0.0,0.0,0.0,0.0,0.0,0.0,0.0,0.0,0.0,-2.1102,-2.1395,-2.1718,-2.2163,-2.2488,-2.2947,-2.3529,-2.3552,-2.3802,0.0,0.0,0.0,0.0,0.0,0.0,0.0,0.0,0.0,0.0,0.0,0.0,0.0,0.0,0.0,0.0,0.0,0.0,0.0,0.0,0.0,0.0,0.0,0.0,0.0,0.0,0.0,0.0,0.0,0.0,0.0,0.0,0.0,0.0,0.0,0.0,0.0,0.0,0.0,0.0,0.0,-2.3476,-2.3304,-2.2958,-2.2945,0.0,0.0,-2.3623,-2.4295,-2.4808,-2.4875,-2.4215,0.0,0.0,0.0,0.0,0.0,0.0,0.0,0.0,0.0,0.0,0.0,0.0,0.0,0.0,0.0,0.0,0.0,0.0,0.0,0.0,0.0,0.0,0.0,0.0,0.0,0.0,0.0,0.0,0.0,0.0,0.0,0.0,0.0,0.0,0.0,0.0,0.0,0.0,0.0,0.0,0.0,0.0,0.0,0.0,0.0,0.0,0.0,0.0,0.0,0.0,0.0,0.0,0.0,-2.0669,-2.0504,-2.0389,-2.0523,-2.0942,-2.1375,-2.1945,-2.2637,-2.2633,-2.3,0.0,0.0,0.0,0.0,0.0,0.0,0.0,0.0,0.0,0.0,0.0,0.0,0.0,0.0,0.0,0.0,0.0,0.0,0.0,0.0,0.0,0.0,0.0,0.0,0.0,0.0,0.0,0.0,-2.0306,-2.0393,-2.0619,0.0,0.0,0.0,0.0,0.0,0.0,0.0,0.0,0.0,0.0,-2.3008,-2.2932,-2.3119,0.0,0.0,-2.391,-2.4212,-2.4485,-2.4695,-2.4472,-2.3393,-2.3091,0.0,0.0,0.0,0.0,0.0,0.0,0.0,0.0,0.0,0.0,0.0,0.0,0.0,0.0,0.0,0.0,0.0,0.0,0.0,0.0,0.0,0.0,0.0,0.0,0.0,0.0,0.0,0.0,0.0,0.0,0.0,0.0,0.0,0.0,0.0,0.0,0.0,0.0,0.0,0.0,0.0,0.0,0.0,0.0,0.0,0.0,0.0,0.0,0.0,0.0,0.0,0.0,-2.0135,-1.9569,-1.9446,-1.9501,-1.9715,-2.0287,-2.0975,-2.1722,-2.1768,-2.2139,0.0,0.0,0.0,0.0,0.0,0.0,0.0,0.0,0.0,0.0,0.0,0.0,0.0,0.0,0.0,0.0,0.0,0.0,0.0,0.0,0.0,0.0,0.0,0.0,0.0,0.0,0.0,0.0,-2.0721,-2.057,-2.0335,0.0,0.0,0.0,0.0,0.0,0.0,0.0,0.0,0.0,0.0,-2.2192,-2.2367,-2.2768,-2.3107,-2.3321,-2.3712,-2.406,-2.4227,-2.4354,-2.4134,-2.3075,0.0,0.0,0.0,0.0,0.0,0.0,0.0,0.0,0.0,0.0,0.0,0.0,0.0,0.0,0.0,0.0,0.0,0.0,0.0,0.0,0.0,0.0,0.0,0.0,0.0,0.0,0.0,0.0,0.0,0.0,-2.4508,0.0,0.0,0.0,0.0,0.0,0.0,0.0,0.0,0.0,0.0,0.0,0.0,0.0,0.0,0.0,0.0,0.0,0.0,0.0,0.0,0.0,0.0,0.0,-1.8101,-1.861,-1.8791,-1.8644,-1.9279,-2.0078,-2.0959,-2.1007,-2.118,-2.154,0.0,0.0,0.0,0.0,0.0,0.0,0.0,0.0,0.0,0.0,0.0,0.0,0.0,0.0,0.0,0.0,0.0,0.0,0.0,0.0,0.0,0.0,0.0,0.0,0.0,0.0,-2.1517,-2.1212,-2.0781,0.0,0.0,0.0,0.0,0.0,0.0,0.0,0.0,0.0,0.0,-2.1192,-2.1084,-2.1666,-2.175,-2.2021,-2.2566,-2.2684,-2.2845,-2.3427,-2.3885,-2.4024,0.0,0.0,0.0,0.0,0.0,0.0,0.0,0.0,0.0,0.0,0.0,0.0,0.0,0.0,0.0,0.0,0.0,0.0,0.0,0.0,0.0,0.0,0.0,0.0,0.0,0.0,0.0,-2.5099,-2.5017,0.0,0.0,0.0,0.0,0.0,0.0,0.0,0.0,0.0,0.0,0.0,-2.1038,-2.1706,0.0,0.0,0.0,0.0,0.0,0.0,0.0,0.0,0.0,0.0,0.0,0.0,-1.8727,-1.7553,-1.7609,-1.7514,-1.7173,-1.8101,-1.9078,-2.0028,-2.0078,-2.0435,-2.1133,0.0,0.0,0.0,0.0,0.0,0.0,0.0,0.0,0.0,0.0,0.0,0.0,0.0,0.0,0.0,0.0,0.0,0.0,0.0,0.0,0.0,0.0,0.0,0.0,0.0,-2.1367,0.0,0.0,0.0,0.0,0.0,0.0,0.0,0.0,0.0,0.0,0.0,-2.0606,-2.1047,-2.1264,-2.1448,-2.1628,-2.2021,-2.2499,0.0,0.0,0.0,0.0,0.0,0.0,0.0,0.0,0.0,0.0,0.0,0.0,0.0,0.0,-2.5563,-2.3474,-2.3309,-2.3485,-2.3485,0.0,0.0,0.0,0.0,0.0,0.0,0.0,0.0,0.0,0.0,0.0,0.0,0.0,0.0,0.0,0.0,-2.429,0.0,0.0,0.0,0.0,0.0,0.0,0.0,0.0,-2.049,-2.0188,-1.9565,-2.0493,-2.0938,0.0,-2.1812,-2.2443,0.0,0.0,0.0,0.0,0.0,0.0,0.0,0.0,-1.8251,-1.7234,-1.7129,-1.6872,-1.6459,-1.7334,-1.8216,-1.9059,-1.9259,-1.9728,-2.0501,-2.1288,-2.1826,0.0,0.0,0.0,0.0,0.0,0.0,0.0,0.0,0.0,0.0,0.0,0.0,0.0,0.0,0.0,0.0,0.0,0.0,0.0,0.0,0.0,0.0,0.0,-2.0797,0.0,0.0,0.0,0.0,0.0,0.0,0.0,0.0,0.0,-1.9864,-2.0556,-2.1131,-2.1334,-2.15,-2.161,-2.1589,0.0,0.0,0.0,0.0,0.0,0.0,0.0,-2.4482,-2.4373,-2.4404,-2.4266,-2.3777,-2.4644,-2.5272,-2.4895,0.0,0.0,-2.4844,-2.4932,-2.518,-2.4968,-2.5767,-2.6065,-2.487,-2.5128,-2.5292,0.0,0.0,0.0,0.0,0.0,0.0,0.0,0.0,-2.3767,-2.3709,0.0,-2.3462,0.0,0.0,0.0,0.0,0.0,0.0,0.0,0.0,-1.9333,-1.9098,-1.8639,-1.9851,-2.0499,-2.0599,-2.1305,-2.1592,-2.1477,-2.2704,0.0,0.0,0.0,0.0,0.0,0.0,-1.8548,-1.7207,-1.7075,-1.6834,-1.6407,-1.6967,-1.7537,-1.8052,-1.8612,-1.9107,-1.957,-2.0452,-2.1273,-2.1978,-2.2633,0.0,0.0,0.0,0.0,0.0,0.0,0.0,0.0,0.0,0.0,0.0,0.0,0.0,0.0,0.0,0.0,0.0,0.0,0.0,0.0,-2.055,0.0,0.0,0.0,0.0,0.0,0.0,0.0,0.0,0.0,0.0,-2.1494,-2.1526,-2.1721,-2.2271,0.0,0.0,0.0,0.0,-2.1747,-2.2272,-2.2334,-2.2753,-2.3884,-2.4431,-2.477,-2.4858,0.0,0.0,-2.5046,-2.5783,-2.6135,-2.5096,-2.5812,-2.6688,-2.714,-2.7163,-2.7075,-2.6649,-2.6947,-2.6918,-2.6013,-2.6139,-2.6341,-2.3999,0.0,0.0,0.0,0.0,-2.344,-2.3175,-2.3996,-2.3009,-2.266,-2.2748,-2.2562,0.0,0.0,0.0,0.0,0.0,0.0,-1.8511,-1.8011,-1.7562,-1.7274,-1.713,-1.8028,-1.8749,-1.9297,-2.0495,-2.1032,-2.1009,-2.18,-2.1824,-2.1109,0.0,0.0,0.0,0.0,-1.7557,-1.6531,-1.6375,-1.6157,-1.583,-1.642,-1.6993,-1.7504,-1.8052,-1.8559,-1.9084,-1.9674,-2.0251,-2.0798,-2.1817,0.0,0.0,0.0,0.0,0.0,0.0,0.0,0.0,0.0,0.0,0.0,0.0,0.0,0.0,0.0,0.0,0.0,0.0,0.0,-2.0516,-1.9778,-1.9367,0.0,0.0,0.0,0.0,0.0,0.0,0.0,0.0,0.0,-2.2016,-2.1754,-2.1568,0.0,0.0,-2.1631,-2.2033,-2.2083,-2.2272,-2.2794,0.0,0.0,0.0,-2.4381,-2.4632,-2.5833,-2.6285,-2.6386,-2.6084,-2.6285,-2.6399,-2.6059,-2.66,-2.714,-2.7266,-2.7324,-2.7349,-2.758,-2.7767,-2.7778,-2.7492,-2.7266,-2.704,-2.2425,-2.411,-2.3288,-2.3508,-2.418,-2.2526,-2.2235,-2.2954,-2.2047,-2.178,-2.2004,-2.1751,-2.1412,-2.094,-2.0413,0.0,0.0,0.0,-1.7383,-1.7098,-1.6676,-1.6521,-1.6567,-1.755,-1.8274,-1.8741,-1.985,-2.0396,-2.0396,-2.0756,-2.0516,-1.9767,0.0,0.0,-1.9405,-1.8474,-1.7696,-1.7008,-1.6627,-1.6289,-1.5966,-1.6315,-1.6659,-1.6972,-1.7483,-1.7947,-1.8269,-1.9133,-1.9728,-2.0008,-2.1053,-2.1665,0.0,0.0,0.0,0.0,0.0,0.0,0.0,0.0,0.0,0.0,0.0,-2.1102,0.0,0.0,0.0,0.0,-2.0408,-2.0284,-1.9779,-1.9435,0.0,0.0,0.0,0.0,0.0,0.0,0.0,-2.1436,-2.187,-2.2171,-2.2297,-2.2221,-2.2146,-2.2146,-2.2146,-2.2259,-2.2569,0.0,-2.2732,-2.3058,-2.3095,-2.3421,-2.4343,-2.4406,-2.482,-2.6273,-2.6487,-2.6487,-2.6487,-2.6487,-2.6487,-2.6524,-2.6763,-2.7065,-2.7278,-2.7329,-2.7457,-2.7996,-2.8284,-2.8284,-2.7871,-2.7682,-2.7507,-2.0891,-2.1447,-2.1592,-2.1941,-2.2375,-2.1848,-2.1625,-2.1574,-2.0982,-2.1027,-2.1489,-2.0959,-2.074,-2.0634,-1.9299,0.0,0.0,-1.7213,-1.6585,-1.6567,-1.6595,-1.6595,-1.6652,-1.8031,-1.87,-1.8715,-1.9449,-1.9798,-1.9824,-1.9875,-1.9598,-1.912,-2.0227,-2.0728,-2.0515,-1.9295,-1.851,-1.8085,-1.7424,-1.6893,-1.6516,-1.6513,-1.6513,-1.6522,-1.7013,-1.7312,-1.7353,-1.8688,-1.948,-1.9498,-2.0368,-2.0894,-2.0894,0.0,0.0,0.0,0.0,0.0,0.0,0.0,0.0,0.0,0.0,0.0,0.0,0.0,0.0,0.0,-1.9992,0.0,-1.9031,-1.9426,0.0,0.0,0.0,-1.9829,-1.9925,-2.0903,-2.1556,-2.1556,0.0,0.0,0.0,0.0,-2.3095,-2.3095,-2.3095,-2.3095,-2.3095,-2.3083,-2.3095,-2.3095,-2.3095,-2.3308,-2.3966,-2.4506,-2.5209,-2.6185,-2.6461,-2.6487,-2.6487,-2.6487,-2.6487,-2.6487,-2.6487,-2.6637,-2.713,-2.7216,-2.7381,-2.7908,-2.851,-2.8622,-2.7794,-2.7808,-2.7758,-1.988,-2.0963,-2.1,-2.1318,-2.1753,-2.1251,-2.1004,-2.0942,-2.0329,-2.0116,-2.0244,-2.0091,-2.0039,-1.9989,-1.9086,-1.8704,-1.8626,-1.7759,-1.7341,-1.733,-1.733,-1.733,-1.7385,-1.8274,-1.87,-1.8753,-1.9449,-1.9798,-1.9824,-2.0308,-2.0231,-1.9699,-2.0425,-2.007,-1.8643,-1.8668,-1.824,-1.7376,-1.7181,-1.6929,-1.6529,-1.6513,-1.6513,-1.6522,-1.7013,-1.7312,-1.7312,-1.8019,-1.8468,-1.8487,-1.9375,-1.9924,-1.9939,-2.0265,0.0,0.0,0.0,0.0,0.0,0.0,0.0,0.0,0.0,-2.1011,-2.0497,0.0,-2.0047,0.0,-2.0523,-2.0217,-1.9635,-1.9369,0.0,0.0,-1.9975,-2.0116,-2.1006,-2.1694,-2.2108,-2.2121,-2.2694,-2.3058,-2.292,-2.302,-2.3095,-2.3095,-2.3095,-2.3095,-2.3095,-2.3095,-2.3095,-2.3095,-2.3095,-2.3308,-2.3954,-2.4808,-2.5485,-2.5762,-2.6197,-2.6487,-2.6487,-2.6487,-2.6487,-2.6487,-2.6487,-2.6562,-2.6675,-2.6688,-2.6901,-2.7394,-2.8222,-2.8837,-2.8537,-2.831,-2.7896,-1.9347,-2.0371,-2.0671,-2.113,-2.1619,-2.132,-2.1197,-2.1161,-2.0522,-2.0258,-2.022,-1.9914,-1.9618,-1.9281,-1.8874,-1.8516,-1.8205,-1.7786,-1.7482,-1.7254,-1.7565,-1.7725,-1.7763,-1.8486,-1.9112,-1.9619,-1.9747,-2.0093,-2.0607,-2.0758,-2.0733,-2.0657,-2.1002,-2.0658,-1.962,-1.9342,-1.8774,-1.7946,-1.746,-1.7134,-1.6901,-1.6647,-1.6616,-1.6858,-1.7146,-1.7312,-1.7312,-1.8033,-1.8355,-1.8151,-1.9089,-1.9648,-1.9648,-1.9669,-1.9789,0.0,0.0,0.0,0.0,0.0,0.0,0.0,0.0,0.0,0.0,0.0,-2.0055,0.0,-2.0693,0.0,-2.0226,-2.016,-2.0348,-2.0938,-2.0927,-2.1167,-2.1794,-2.2318,-2.2644,-2.2656,-2.292,-2.3095,-2.3095,-2.3095,-2.3095,-2.3095,-2.3095,-2.3095,-2.3095,-2.3095,-2.3095,-2.3095,-2.3095,-2.3396,-2.423,-2.4858,-2.5423,-2.5933,-2.6273,-2.6487,-2.6487,-2.6487,-2.6487,-2.6487,-2.6487,-2.6487,-2.6487,-2.6487,-2.6663,-2.718,-2.777,-2.8147,-2.8197,-2.7959,-2.7582,-1.9097,-1.9965,-2.056,-2.1199,-2.1828,-2.1828,-2.1815,-2.1767,-2.1088,-2.0746,-2.0608,-2.008,-1.9449,-1.8847,-1.8927,-1.8623,-1.802,-1.8005,-1.7767,-1.7378,-1.7867,-1.8133,-1.8158,-1.8871,-1.9783,-2.0733,-2.0295,-2.0607,-2.1649,-2.1259,-2.1283,-2.1673,-2.1805,-2.1781,-2.1649,-2.0582,-1.9737,-1.9143,-1.805,-1.7511,-1.7511,-1.6986,-1.6901,-1.7285,-1.7451,-1.7412,-1.7229,-1.8293,-1.8609,-1.809,-1.9037,-1.9575,-1.9502,-1.9189,-1.9184,0.0,-1.9231,0.0,0.0,0.0,0.0,0.0,0.0,0.0,0.0,-2.0076,-2.0485,-2.0995,-2.0989,-2.0964,-2.0956,-2.1274,-2.1546,-2.1594,-2.202,-2.2347,-2.2422,-2.2819,-2.3095,-2.3095,-2.3095,-2.3095,-2.3095,-2.3095,-2.3095,-2.3095,-2.3095,-2.3095,-2.3095,-2.3095,-2.3095,-2.3095,-2.3095,-2.3446,-2.4349,-2.4713,-2.5184,-2.6109,-2.6436,-2.6487,-2.6487,-2.6487,-2.6487,-2.6487,-2.6487,-2.6487,-2.6487,-2.6487,-2.665,-2.709,-2.7193,-2.7291,-2.7344,-2.7404,-2.714,-1.8903,-2.0597,-2.0746,-2.1465,-2.2498,-2.2498,-2.2521,-2.2429,-2.1296,-2.0497,-2.0003,-1.985,-1.9721,-1.9631,-2.0156,-2.032,-2.0181,-2.0206,-2.013,-2.0037,-1.9612,-1.9446,-1.9508,-2.0157,-2.058,-2.082,-2.1172,-2.1472,-2.1697,-2.2137,-2.2114,-2.172,-2.223,-2.223,0.0,0.0,0.0,0.0,-1.8652,-1.8053,-1.8053,-1.7917,-1.771,-1.7403,-1.8174,0.0,-1.6782,-1.8103,-1.8478,-1.7621,-1.8552,0.0,0.0,0.0,0.0,0.0,0.0,0.0,0.0,0.0,0.0,0.0,-1.9774,-1.9696,-1.9823,-2.1257,-2.2218,-2.2341,-2.2766,-2.2811,-2.2299,-2.178,-2.1669,-2.2108,-2.2246,-2.2485,-2.2882,-2.3045,-2.3095,-2.3095,-2.3095,-2.3095,-2.3095,-2.3095,-2.3095,-2.3095,-2.3095,-2.3095,-2.3095,-2.3095,-2.3095,-2.3108,-2.3145,-2.3371,-2.4042,-2.4569,-2.5071,-2.5661,-2.621,-2.6461,-2.6487,-2.6487,-2.6487,-2.6487,-2.6487,-2.6487,-2.6487,-2.6487,-2.6537,-2.6637,-2.6663,-2.6788,-2.7216,-2.7329,-2.7118,-1.957,0.0,-2.0991,-2.1452,0.0,-2.2443,-2.2709,-2.2663,-2.2011,-2.1355,-2.0756,-2.0756,-2.0731,-2.0756,-2.1113,-2.1245,-2.1232,-2.0931,-2.0648,-2.0381,-1.9718,-1.9567,-1.9903,-2.0265,-2.0882,-2.1728,-2.171,-2.2025,-2.2628,-2.268,-2.268,-2.2651,-2.2995,-2.2972,-2.2651,-2.2354,-2.1736,-2.086,-1.9967,-1.9526,-1.9512,-1.9271,-1.9124,-1.9136,0.0,0.0,0.0,0.0,0.0,0.0,0.0,0.0,0.0,0.0,0.0,-1.9356,-1.9377,-1.9517,-1.9766,-1.9793,-1.9934,-2.0219,-2.0833,-2.1215,-2.1244,-2.2125,-2.3056,-2.3966,-2.4056,-2.4009,-2.3947,-2.3311,-2.2974,-2.3244,-2.2946,-2.2819,-2.3045,-2.3095,-2.3095,-2.3095,-2.3095,-2.3095,-2.3095,-2.3095,-2.3095,-2.3095,-2.3095,-2.3108,-2.3095,-2.3095,-2.3195,-2.3471,-2.3521,-2.3835,-2.4619,-2.4983,-2.5385,-2.5925,-2.6298,-2.6461,-2.6487,-2.6487,-2.6487,-2.6487,-2.6487,-2.6487,-2.6487,-2.6487,-2.6487,-2.6487,-2.6487,-2.6675,-2.7155,-2.7329,-2.7218,-2.0361,-2.0232,-2.1242,-2.1472,-2.1224,-2.2244,-2.2709,-2.2709,0.0,0.0,0.0,-2.1697,-2.1625,-2.1544,-2.1663,-2.1625,-2.154,-2.1162,-2.0671,-2.0137,-1.9575,-1.9545,-1.9962,-2.0091,-2.0918,-2.2314,-2.2044,-2.2423,-2.3399,-2.3046,-2.3098,-2.3551,-2.3595,-2.3595,-2.3551,-2.3098,-2.2589,-2.2049,-2.1379,-2.1052,-2.1038,-2.0598,-2.0547,-2.0897,-2.0995,-2.0958,-2.076,-2.0846,-2.0642,-2.0111,-2.0014,-1.9944,-1.9835,-1.9386,-1.9298,-1.9614,-1.9318,-1.9434,-2.0079,-2.0027,-2.0329,-2.1107,-2.2123,-2.2842,-2.303,-2.3125,-2.3842,-2.555,-2.5164,-2.5074,-2.5508,-2.4922,-2.4481,-2.4481,-2.3796,-2.3335,-2.3305,-2.3155,-2.3095,-2.3095,-2.3095,-2.3095,-2.3095,-2.3095,-2.3095,-2.3095,-2.3095,-2.3158,-2.3233,-2.3296,-2.3459,-2.3853,-2.4017,-2.4481,-2.5297,-2.5548,-2.5824,-2.6336,-2.6474,-2.6487,-2.6487,-2.6487,-2.6487,-2.6487,-2.6487,-2.6487,-2.6512,-2.66,-2.6637,-2.6637,-2.6738,-2.6914,-2.7293,-2.7555,-2.757,-2.0764,-2.1435,-2.1625,-2.1969,-2.2466,-2.2626,-2.2709,-2.2709,-2.2709,-2.2323,-2.1697,-2.1697,-2.1414,-2.0955,-2.1472,-2.14,-2.0977,-2.1368,-2.126,0.0,-2.0598,-2.029,-1.9869,-2.0428,-2.0815,-2.1126,-2.2081,-2.2634,-2.2852,-2.3253,-2.353,-2.3573,-2.3595,-2.3595,-2.3573,-2.3508,-2.3428,-2.3304,-2.2186,-2.1586,-2.1586,-2.1513,-2.1282,-2.0938,-2.1353,-2.114,-2.0265,-2.109,-2.1309,-2.0798,-2.0711,-2.0454,-2.0013,-1.9818,-1.951,-1.9169,-1.9459,-2.0233,-2.1405,-2.0937,-2.1291,-2.2833,-2.3183,-2.3595,-2.4351,-2.4955,-2.5586,-2.6357,-2.6253,-2.6236,-2.631,-2.5673,-2.5231,-2.5217,-2.4582,-2.4134,-2.4089,-2.3514,-2.3125,-2.3095,-2.3095,-2.3095,-2.3095,-2.3095,-2.3095,-2.3095,-2.3158,-2.3283,-2.3703,-2.3891,-2.3904,-2.4042,-2.4406,-2.4888,-2.5511,-2.5598,-2.5875,-2.6399,-2.6487,-2.6487,-2.6487,-2.6487,-2.6487,-2.6487,-2.6487,-2.6499,-2.6537,-2.6901,-2.7115,-2.719,-2.7457,-2.7808,-2.7971,-2.8323,-2.8511,-2.2395,-2.1724,-2.2702,-2.2765,-2.217,-2.2543,-2.2709,-2.2709,-2.2709,-2.2323,-2.1781,-2.2077,-2.1889,-2.1342,-2.1592,-2.1544,-2.129,-2.1231,-2.1079,-2.0769,-2.0439,-2.03,-2.0364,-2.0652,-2.0979,-2.1331,-2.2244,-2.2709,-2.2754,-2.3312,-2.3595,-2.3595,-2.3595,-2.3595,-2.3595,-2.3595,-2.3595,-2.3595,-2.3024,-2.2756,-2.2719,-2.2719,-2.2611,-2.2381,-2.2615,-2.2505,-2.2004,-2.2148,-2.2128,-2.1889,-2.1505,-2.1172,-2.0938,-2.0879,-2.0711,-2.0486,-2.1038,-2.1628,-2.2237,-2.2602,-2.3285,-2.4483,-2.4911,-2.5422,-2.6217,-2.6188,-2.6414,-2.7051,-2.7117,-2.71,-2.7086,-2.6428,-2.6014,-2.6014,-2.5342,-2.4738,-2.435,-2.4002,-2.3573,-2.3185,-2.3095,-2.3095,-2.3095,-2.3095,-2.3095,-2.3133,-2.3333,-2.3715,-2.4004,-2.4531,-2.4858,-2.4883,-2.5084,-2.5448,-2.5937,-2.6097,-2.6223,-2.6474,-2.6487,-2.6487,-2.6487,-2.6487,-2.6487,-2.6487,-2.6487,-2.6625,-2.6851,-2.7128,-2.7404,-2.7708,-2.7896,-2.8172,-2.8499,-2.9001,-2.9264,-2.4092,-2.2439,-2.3928,-2.3688,-2.2381,-2.2733,-2.283,-2.2731,-2.2867,-2.246,-2.1828,-2.2239,-2.2114,-2.152,-2.1496,-2.1424,-2.1236,-2.0951,-2.0721,-2.0518,-2.0214,-2.0227,-2.0533,-2.0572,-2.0832,-2.1304,-2.195,-2.2337,-2.2521,-2.3098,-2.3486,-2.3573,-2.3595,-2.3595,-2.3595,-2.3595,-2.3595,-2.3595,-2.3595,-2.3595,-2.3595,-2.3595,-2.3595,-2.3595,-2.3595,-2.3595,-2.3573,-2.3143,-2.2912,-2.2875,-2.2285,-2.1922,-2.1913,-2.192,-2.1917,-2.1959,-2.2413,-2.2674,-2.2698,-2.3927,-2.4933,-2.5514,-2.6129,-2.68,-2.7448,-2.71,-2.6956,-2.7484,-2.756,-2.7575,-2.7484,-2.7086,-2.6747,-2.6707,-2.6081,-2.5481,-2.4908,-2.4616,-2.4272,-2.3645,-2.3505,-2.3509,-2.3484,-2.3484,-2.3534,-2.3622,-2.4004,-2.433,-2.4456,-2.5197,-2.5737,-2.5787,-2.5787,-2.5971,-2.6424,-2.6461,-2.6474,-2.6487,-2.6487,-2.6487,-2.6487,-2.6487,-2.6487,-2.6512,-2.6637,-2.6839,-2.7193,-2.7557,-2.7833,-2.8222,-2.8461,-2.8687,-2.9051,-2.9428,-2.9754,-2.5168,-2.4907,-2.5038,-2.4776,-2.4106,-2.3694,-2.3231,-2.2822,-2.3275,-2.2823,-2.1767,-2.1767,-2.1486,-2.093,-2.0894,-2.0584,-2.0118,-2.0569,-2.047,-2.0042,-2.047,-2.0433,-1.9952,-1.9901,-1.9927,-2.008,-2.0708,-2.1331,-2.1828,-2.2498,-2.3054,-2.353,-2.3595,-2.3595,-2.3595,-2.3595,-2.3595,-2.3595,-2.3595,-2.3595,-2.3595,-2.3595,-2.3595,-2.3595,-2.3595,-2.3595,-2.3595,-2.3566,-2.3508,-2.3465,-2.2957,-2.264,-2.2629,-2.26,-2.2616,-2.2643,-2.2648,-2.2534,-2.2524,-2.4197,-2.5397,-2.5453,-2.6146,-2.6841,-2.7539,-2.7539,-2.7524,-2.766,-2.763,-2.7645,-2.76,-2.7558,-2.7582,-2.7561,-2.6957,-2.6377,-2.6237,-2.5525,-2.5011,-2.4951,-2.4663,-2.4625,-2.4512,-2.4499,-2.455,-2.4462,-2.4908,-2.5259,-2.5322,-2.5871,-2.6323,-2.6361,-2.6386,-2.6386,-2.6487,-2.6487,-2.6487,-2.6487,-2.6487,-2.6487,-2.6487,-2.6512,-2.6499,-2.67,-2.6977,-2.7243,-2.7557,-2.8009,-2.8662,-2.8837,-2.9164,-2.9591,-2.9691,-2.9741,-2.9779,-2.5899,-2.5031,-2.5473,-2.5354,-2.4855,-2.4632,-2.4008,-2.3252,-2.3427,-2.2847,-2.1767,-2.1697,-2.1366,-2.0784,-2.0371,-2.0055,-1.9824,-2.0105,-2.0055,-1.9824,-2.008,-2.0055,-1.9824,-1.9798,-1.9798,-1.985,-2.0472,-2.0944,-2.1307,-2.2198,-2.3009,-2.353,-2.3595,-2.3595,-2.3595,-2.3595,-2.3595,-2.3595,-2.3595,-2.3595,-2.3595,-2.3595,-2.3595,-2.3595,-2.3595,-2.3595,-2.3595,-2.3595,-2.3789,-2.4141,-2.3963,-2.4004,-2.4395,-2.4,-2.3777,-2.378,-2.41,-2.4454,-2.4792,-2.5978,-2.6707,-2.6707,-2.6982,-2.7469,-2.8117,-2.8188,-2.8349,-2.8663,-2.8412,-2.8323,-2.8693,-2.8798,-2.8783,-2.873,-2.8503,-2.8125,-2.7632,-2.6857,-2.6226,-2.5725,-2.5153,-2.4845,-2.48,-2.48,-2.48,-2.4883,-2.5272,-2.5611,-2.5649,-2.6122,-2.6436,-2.6487,-2.6487,-2.6487,-2.6487,-2.6487,-2.6487,-2.6487,-2.6487,-2.6487,-2.6537,-2.6813,-2.6977,-2.6977,-2.7419,-2.7883,-2.8273,-2.8487,-2.8963,-2.9264,-2.9503,-2.9779,-2.9779,-2.9779,-2.9779,-2.6532,-2.5477,-2.5818,-2.5797,-2.5411,-2.5259,-2.4725,-2.4019,-2.3962,-2.3374,-2.2457,-2.2275,-2.1875,-2.1272,-2.0446,-2.008,-2.008,-2.008,-2.0067,-2.008,-2.008,-2.0169,-2.0283,-1.9927,-1.9977,-2.0309,-2.063,-2.1038,-2.1596,-2.2634,-2.3439,-2.3821,-2.3894,-2.3879,-2.3857,-2.3857,-2.3969,-2.4133,-2.3984,-2.3879,-2.3894,-2.3879,-2.3789,-2.3625,-2.3595,-2.3595,-2.361,-2.3774,-2.4081,-2.4552,-2.4769,-2.5014,-2.5257,-2.4975,-2.4672,-2.4528,-2.4896,-2.5278,-2.5591,-2.6254,-2.6771,-2.6997,-2.731,-2.7858,-2.845,-2.8771,-2.916,-2.9711,-2.94,-2.9325,-2.9517,-2.9621,-2.9621,-2.9579,-2.9429,-2.8987,-2.8396,-2.7776,-2.708,-2.6357,-2.5974,-2.5476,-2.5338,-2.5322,-2.536,-2.5398,-2.5624,-2.5858,-2.5875,-2.6235,-2.6487,-2.6487,-2.6487,-2.6487,-2.6487,-2.6487,-2.6487,-2.6487,-2.6487,-2.6549,-2.665,-2.7102,-2.7467,-2.7492,-2.7984,-2.8373,-2.8612,-2.8888,-2.9189,-2.9603,-2.9779,-2.9779,-2.9779,-2.9779,-2.9779,-2.7034,-2.6556,-2.6175,-2.6013,-2.5924,-2.5449,-2.5186,-2.507,-2.5089,-2.476,-2.4153,-2.364,-2.3113,-2.2566,-2.1414,-2.0771,-2.0771,-2.0746,-2.0746,-2.0746,-2.0759,-2.1077,-2.1506,-2.0408,-2.0438,-2.1446,-2.108,-2.1681,-2.3242,-2.3992,-2.4471,-2.4522,-2.4477,-2.4537,-2.456,-2.456,-2.4859,-2.5247,-2.4844,-2.456,-2.456,-2.456,-2.4261,-2.3774,-2.364,-2.3699,-2.3729,-2.4246,-2.4605,-2.4619,-2.5232,-2.5301,-2.4765,-2.5121,-2.504,-2.4381,-2.4343,-2.4095,-2.3691,-2.439,-2.5075,-2.5689,-2.6952,-2.7842,-2.8601,-2.9047,-2.9597,-3.0347,-3.0276,-3.0095,-2.9734,-2.9791,-2.9759,-2.9702,-2.8977,-2.8611,-2.8454,-2.8252,-2.7577,-2.7025,-2.7026,-2.6865,-2.6425,-2.6424,-2.6298,-2.6285,-2.6399,-2.6399,-2.6361,-2.6461,-2.6487,-2.6487,-2.6487,-2.6487,-2.6487,-2.6487,-2.6487,-2.6487,-2.6537,-2.6675,-2.7027,-2.7331,-2.762,-2.8009,-2.8536,-2.885,-2.8988,-2.9252,-2.9553,-2.9779,-2.9779,-2.9779,-2.9779,-2.9779,-2.9779,-2.7084,-2.6691,-2.6521,-2.6453,-2.6419,-2.6211,-2.5998,-2.5723,-2.5723,-2.5411,-2.4934,-2.4681,-2.4485,-2.4225,-2.3062,-2.2104,-2.1424,-2.1366,-2.1376,-2.139,-2.1376,-2.1701,-2.2242,-2.1837,-2.2072,-2.2739,-2.2247,-2.222,-2.2738,-2.3068,-2.3654,-2.4414,-2.4553,-2.4743,-2.5148,-2.5232,-2.539,-2.5546,-2.5337,-2.5232,-2.5232,-2.5232,-2.5121,-2.4896,-2.4859,-2.4881,-2.4881,-2.5113,-2.5412,-2.5869,-2.6123,-2.6115,-2.575,-2.5105,-2.4369,-2.3699,-2.4002,-2.4567,-2.5193,-2.5921,-2.661,-2.7202,-2.7697,-2.8266,-2.8826,-2.8814,-2.9056,-3.0046,-3.0368,-3.0236,-3.0236,-3.0494,-3.0808,-3.0765,-3.0536,-3.0219,-3.0119,-2.9359,-2.8514,-2.813,-2.7565,-2.6782,-2.6624,-2.6487,-2.6487,-2.6487,-2.6487,-2.6487,-2.6487,-2.6487,-2.6487,-2.6487,-2.6487,-2.6487,-2.6487,-2.6487,-2.6487,-2.6487,-2.6549,-2.6813,-2.714,-2.7537,-2.7851,-2.8251,-2.8836,-2.8932,-2.8903,-2.9145,-2.9534,-2.9624,-2.9663,-2.9779,-2.9779,-2.9779,-2.9779,-2.6955,-2.6725,-2.6708,-2.6708,-2.6708,-2.6708,-2.6539,-2.6244,-2.6227,-2.5926,-2.5521,-2.5449,-2.5373,-2.5109,-2.4388,-2.3539,-2.2571,-2.2211,-2.2016,-2.2044,-2.2226,-2.2691,-2.3182,-2.3129,-2.3459,-2.4094,-2.3741,-2.3541,-2.373,-2.373,-2.4239,-2.5145,-2.5194,-2.5428,-2.5857,-2.5929,-2.6004,-2.6168,-2.6033,-2.5914,-2.5929,-2.5929,-2.5929,-2.5959,-2.6108,-2.6019,-2.5636,-2.5809,-2.6108,-2.6542,-2.6782,-2.668,-2.6092,-2.5154,-2.4216,-2.3596,-2.4064,-2.4869,-2.5754,-2.6366,-2.6852,-2.7476,-2.7743,-2.814,-2.8743,-2.853,-2.8912,-2.9622,-2.9875,-2.9875,-3.0042,-3.0585,-3.1219,-3.138,-3.1278,-3.1131,-3.1014,-2.9799,-2.8957,-2.8368,-2.7324,-2.6611,-2.6487,-2.6487,-2.6487,-2.6487,-2.6487,-2.6487,-2.6487,-2.6487,-2.6487,-2.6487,-2.6487,-2.6487,-2.6575,-2.6688,-2.6625,-2.66,-2.6864,-2.709,-2.7324,-2.7752,-2.8064,-2.8482,-2.8684,-2.8721,-2.8831,-2.9079,-2.9197,-2.9287,-2.9624,-2.9779,-2.9779,-2.9779,-2.9663,-2.6708,-2.6708,-2.6708,-2.6708,-2.6708,-2.6708,-2.6708,-2.6641,-2.6657,-2.6384,-2.6031,-2.5997,-2.5762,-2.5335,-2.5186,-2.4835,-2.4132,-2.3231,-2.2783,-2.2847,-2.336,-2.3973,-2.457,-2.414,-2.4419,-2.5377,-2.5378,-2.5644,-2.6005,-2.5962,-2.6127,-2.6441,-2.6377,-2.6416,-2.6587,-2.6568,-2.6877,-2.7171,-2.6807,-2.6563,-2.6602,-2.6602,-2.6626,-2.6647,-2.7165,-2.6911,-2.5794,-2.6288,-2.6617,-2.6746,-2.7225,-2.6875,-2.5744,-2.5204,-2.4758,-2.421,-2.45,-2.4789,-2.4956,-2.5148,-2.5673,-2.6294,-2.6701,-2.7431,-2.8054,-2.8441,-2.8743,-2.8957,-2.9002,-2.9002,-2.9129,-2.9822,-3.0642,-3.1278,-3.0911,-3.0614,-3.0329,-2.958,-2.8652,-2.7822,-2.6939,-2.6521,-2.6487,-2.6487,-2.6487,-2.6487,-2.6562,-2.66,-2.665,-2.6713,-2.66,-2.66,-2.6776,-2.6914,-2.6914,-2.6901,-2.6826,-2.6813,-2.7178,-2.7457,-2.7679,-2.8002,-2.7865,-2.8105,-2.7575,-2.7585,-2.7597,-2.7799,-2.8028,-2.8239,-2.891,-2.9248,-2.904,-2.887,-2.9197,-2.6708,-2.6708,-2.6708,-2.6708,-2.6708,-2.6708,-2.6708,-2.6708,-2.6708,-2.6624,-2.6504,-2.647,-2.6384,-2.6192,-2.5908,-2.5465,-2.491,-2.4204,-2.3913,-2.403,-2.4228,-2.4913,-2.575,-2.5766,-2.5854,-2.6136,-2.6169,-2.6,-2.581,-2.5783,-2.5967,-2.6419,-2.6546,-2.6817,-2.722,-2.6817,-2.6872,-2.7424,-2.6909,-2.6766,-2.7235,-2.7285,-2.7285,-2.7315,-2.7495,-2.736,-2.7006,-2.7195,-2.7285,-2.727,-2.748,-2.708,-2.6105,-2.5387,-2.4922,-2.4614,-2.4675,-2.5319,-2.6129,-2.6226,-2.6466,-2.7006,-2.7334,-2.7511,-2.7655,-2.7472,-2.7604,-2.7999,-2.8117,-2.8117,-2.83,-2.9228,-3.0125,-3.0642,-3.0925,-3.0999,-3.0732,-2.9808,-2.8427,-2.7162,-2.6658,-2.6521,-2.6499,-2.6524,-2.6575,-2.6587,-2.6826,-2.7052,-2.709,-2.7329,-2.7582,-2.7595,-2.7595,-2.7444,-2.7469,-2.7544,-2.7582,-2.7507,-2.7708,-2.7678,-2.7928,-2.7765,-2.7659,-2.7088,-2.6599,-2.6348,-2.6389,-2.6637,-2.6871,-2.7035,-2.7412,-2.7585,-2.7637,-2.7879,-2.8291,-2.6708,-2.6708,-2.6708,-2.6708,-2.6708,-2.6708,-2.6708,-2.6708,-2.6708,-2.6708,-2.6708,-2.6691,-2.6708,-2.6641,-2.6401,-2.5979,-2.5484,-2.495,-2.4761,-2.4894,-2.4934,-2.5585,-2.6557,-2.6896,-2.6951,-2.6935,-2.6904,-2.668,-2.6242,-2.6242,-2.6455,-2.6852,-2.6904,-2.7137,-2.7549,-2.7178,-2.7178,-2.7484,-2.7178,-2.7152,-2.7509,-2.7585,-2.7585,-2.756,-2.7331,-2.7357,-2.7549,-2.7565,-2.7569,-2.7654,-2.7824,-2.7508,-2.6658,-2.6329,-2.5862,-2.5312,-2.5605,-2.6199,-2.6759,-2.6948,-2.7131,-2.7285,-2.7263,-2.7263,-2.7162,-2.6714,-2.6867,-2.7412,-2.7566,-2.7631,-2.8014,-2.8898,-2.9695,-2.996,-3.0449,-3.069,-3.0368,-2.9688,-2.8672,-2.756,-2.714,-2.6979,-2.6864,-2.7027,-2.6977,-2.6952,-2.7243,-2.7603,-2.7654,-2.7857,-2.8059,-2.8135,-2.7985,-2.7935,-2.8072,-2.821,-2.8373,-2.836,-2.8373,-2.8064,-2.7959,-2.7317,-2.6938,-2.5614,-2.4882,-2.4723,-2.4723,-2.5431,-2.588,-2.5964,-2.6099,-2.6678,-2.7058,-2.7139,-2.7424,-2.6708,-2.6708,-2.6708,-2.6708,-2.6708,-2.6708,-2.6708,-2.6708,-2.6708,-2.6708,-2.6708,-2.6624,-2.6657,-2.6691,-2.6691,-2.6446,-2.6059,-2.5778,-2.5602,-2.5651,-2.5758,-2.6182,-2.6761,-2.7255,-2.746,-2.7509,-2.7524,-2.7509,-2.7316,-2.7357,-2.7585,-2.7484,-2.7484,-2.7575,-2.7549,-2.7534,-2.7433,-2.7534,-2.7484,-2.7433,-2.756,-2.7585,-2.7585,-2.7575,-2.7044,-2.6969,-2.7436,-2.7455,-2.7528,-2.7694,-2.8196,-2.8013,-2.7414,-2.7635,-2.6969,-2.5802,-2.6886,-2.692,-2.6824,-2.7072,-2.7198,-2.6701,-2.6611,-2.6487,-2.6589,-2.6669,-2.6836,-2.7306,-2.741,-2.7614,-2.8124,-2.8853,-2.9324,-2.9425,-2.9854,-2.9739,-2.8851,-2.909,-2.8842,-2.8236,-2.8059,-2.7908,-2.7394,-2.7708,-2.7682,-2.757,-2.7783,-2.8069,-2.8203,-2.832,-2.8274,-2.8337,-2.8537,-2.8574,-2.8737,-2.8837,-2.8988,-2.89,-2.8724,-2.8126,-2.7583,-2.6864,-2.5843,-2.4511,-2.3671,-2.343,-2.3474,-2.4349,-2.4713,-2.4755,-2.5263,-2.6058,-2.6265,-2.6141,-2.6141,-2.6708,-2.6708,-2.6708,-2.6708,-2.6708,-2.6708,-2.6708,-2.6708,-2.6708,-2.6708,-2.6641,-2.6332,-2.6401,-2.6691,-2.6898,-2.6914,-2.6883,-2.7164,-2.7205,-2.6987,-2.6995,-2.7096,-2.73,-2.748,-2.7585,-2.7585,-2.7585,-2.7585,-2.7585,-2.7585,-2.7585,-2.7585,-2.7585,-2.7585,-2.7534,-2.7126,-2.7126,-2.7433,-2.7049,-2.7141,-2.7579,-2.7645,-2.7585,-2.7579,-2.7263,-2.7171,-2.7337,-2.7202,-2.7484,-2.8075,-2.8245,-2.7895,-2.705,-2.704,-2.6869,-2.6477,-2.6565,-2.6769,-2.6624,-2.6748,-2.6726,-2.6555,-2.6487,-2.6487,-2.6512,-2.6876,-2.7128,-2.7392,-2.762,-2.7959,-2.8196,-2.8695,-2.9007,-2.9166,-2.9786,-2.9964,-2.9345,-2.9241,-2.9054,-2.8266,-2.816,-2.8084,-2.8009,-2.8047,-2.8109,-2.8034,-2.831,-2.8712,-2.8748,-2.8975,-2.905,-2.9276,-2.9428,-2.9402,-2.9428,-2.9503,-2.9515,-2.9387,-2.8872,-2.7965,-2.722,-2.6285,-2.4967,-2.3551,-2.343,-2.3222,-2.3178,-2.3551,-2.3594,-2.38,-2.4016,-2.4563,-2.451,-2.4425,-2.4553,-2.6708,-2.6708,-2.6708,-2.6708,-2.6708,-2.6708,-2.6708,-2.6708,-2.6708,-2.6573,-2.6384,-2.6122,-2.6196,-2.6491,-2.6643,-2.7071,-2.752,-2.7725,-2.7777,-2.778,-2.7543,-2.7524,-2.7585,-2.7585,-2.7585,-2.7585,-2.7585,-2.7585,-2.7585,-2.7585,-2.7585,-2.7585,-2.7585,-2.7585,-2.76,-2.7255,-2.7152,-2.7518,-2.7414,-2.7617,-2.7983,-2.8304,-2.8453,-2.8233,-2.7773,-2.7343,-2.7582,-2.7535,-2.7835,-2.8438,-2.8393,-2.7842,-2.7226,-2.7111,-2.6946,-2.6589,-2.6782,-2.6905,-2.6624,-2.6769,-2.6816,-2.6589,-2.6487,-2.6487,-2.6587,-2.6989,-2.7318,-2.7657,-2.8134,-2.8524,-2.8825,-2.9114,-2.9264,-2.9404,-2.988,-2.9954,-2.929,-2.9411,-2.9319,-2.8949,-2.8812,-2.8687,-2.8536,-2.8637,-2.8637,-2.8637,-2.8938,-2.9189,-2.934,-2.9654,-2.9779,-2.9779,-2.9779,-2.9666,-2.9616,-2.9666,-2.9071,-2.8978,-2.7872,-2.7134,-2.6397,-2.541,-2.4382,-2.3299,-2.3178,-2.3101,-2.3101,-2.3101,-2.3222,-2.3299,-2.3135,-2.3178,-2.3387,-2.3551,-2.3551,-2.6708,-2.6708,-2.6708,-2.6708,-2.6708,-2.6708,-2.6674,-2.6624,-2.6674,-2.6385,-2.5979,-2.5906,-2.6005,-2.621,-2.6519,-2.7049,-2.8175,-2.8241,-2.8164,-2.8167,-2.7936,-2.7677,-2.7575,-2.7585,-2.7585,-2.7585,-2.7585,-2.7585,-2.7585,-2.7585,-2.7585,-2.7585,-2.7585,-2.7585,-2.76,-2.7549,-2.7585,-2.7694,-2.8136,-2.8338,-2.8592,-2.9011,-2.9337,-2.9163,-2.804,-2.764,-2.7844,-2.7878,-2.8109,-2.9049,-2.8371,-2.7836,-2.7591,-2.7524,-2.7217,-2.6735,-2.6973,-2.7074,-2.6726,-2.7027,-2.7183,-2.6624,-2.6562,-2.6524,-2.6663,-2.7178,-2.7758,-2.7984,-2.8649,-2.9164,-2.9528,-2.9741,-2.9716,-2.9705,-2.9819,-2.9554,-2.9264,-2.9478,-2.9779,-2.9779,-2.9767,-2.9515,-2.9352,-2.9377,-2.9578,-2.9114,-2.9377,-2.9478,-2.9591,-2.9691,-2.9779,-2.9779,-2.9779,-2.9779,-2.9767,-2.9767,-2.8885,-2.8187,-2.6521,-2.5493,-2.4946,-2.4168,-2.3594,-2.3101,-2.3101,-2.3101,-2.3101,-2.3101,-2.3101,-2.3101,-2.3101,-2.3101,-2.3135,-2.3266,-2.3309,-2.6708,-2.6708,-2.6708,-2.6708,-2.6708,-2.6708,-2.647,-2.6191,-2.6539,-2.6141,-2.5524,-2.5373,-2.5692,-2.6213,-2.6753,-2.7826,-2.8971,-2.9632,-3.0013,-2.9024,-2.8527,-2.8005,-2.771,-2.761,-2.7585,-2.7585,-2.7585,-2.7585,-2.7585,-2.7585,-2.7585,-2.7585,-2.7585,-2.7585,-2.7585,-2.7585,-2.76,-2.772,-2.8278,-2.8599,-2.8767,-2.9301,-2.9617,-2.9453,-2.842,-2.783,-2.7634,-2.7168,-2.7235,-2.7754,-2.7805,-2.7413,-2.6968,-2.6816,-2.6726,-2.6624,-2.6624,-2.6679,-2.6589,-2.6705,-2.6726,-2.6643,-2.6914,-2.6977,-2.6625,-2.7783,-2.8273,-2.8423,-2.8988,-2.9578,-2.9754,-2.9779,-2.9779,-2.9779,-2.9779,-2.9754,-2.9654,-2.9704,-2.9779,-2.9779,-2.9779,-2.9741,-2.9616,-2.9616,-2.9704,-2.9628,-2.9666,-2.9767,-2.9779,-2.9779,-2.9779,-2.9779,-2.9779,-2.974,-2.9611,-2.9326,-2.8291,-2.7279,-2.5661,-2.4425,-2.3877,-2.3551,-2.3222,-2.3101,-2.3101,-2.3101,-2.3101,-2.3101,-2.3101,-2.3101,-2.3101,-2.3101,-2.3101,-2.3101,-2.3101,-2.6253,-2.635,-2.6367,-2.6367,-2.6332,-2.6122,-2.5998,-2.5979,-2.5962,-2.558,-2.4953,-2.4816,-2.5237,-2.5908,-2.642,-2.7462,-2.9272,-3.058,-3.0683,-2.9816,-2.9187,-2.8614,-2.8042,-2.7735,-2.7585,-2.7585,-2.7585,-2.7585,-2.7585,-2.7585,-2.7585,-2.7585,-2.7585,-2.7585,-2.7585,-2.7615,-2.7794,-2.8055,-2.8284,-2.859,-2.8958,-2.9573,-2.9638,-2.9216,-2.8415,-2.779,-2.765,-2.6939,-2.7027,-2.7384,-2.7351,-2.696,-2.6611,-2.6487,-2.6487,-2.6487,-2.6487,-2.6487,-2.6499,-2.6725,-2.6901,-2.6876,-2.7344,-2.7444,-2.7494,-2.8335,-2.8675,-2.8712,-2.9214,-2.9779,-2.9779,-2.9779,-2.9779,-2.9779,-2.9779,-2.9779,-2.9779,-2.9779,-2.9779,-2.9779,-2.9779,-2.9779,-2.9779,-2.9779,-2.9779,-2.9704,-2.9704,-2.9779,-2.9779,-2.9779,-2.9779,-2.9779,-2.9779,-2.9702,-2.9495,-2.8831,-2.7585,-2.6419,-2.5041,-2.4049,-2.3387,-2.3266,-2.3135,-2.3101,-2.3101,-2.3101,-2.3101,-2.3101,-2.3101,-2.3101,-2.3101,-2.3101,-2.3101,-2.3101,-2.3101,-2.5765,-2.5995,-2.5995,-2.5961,-2.5815,-2.543,-2.5411,-2.5615,-2.5373,-2.4934,-2.4389,-2.4348,-2.4844,-2.5371,-2.5765,-2.7225,-2.9247,-3.0381,-3.058,-3.0166,-2.9563,-2.8973,-2.8415,-2.791,-2.7585,-2.7585,-2.7585,-2.7585,-2.7585,-2.7585,-2.7585,-2.7585,-2.7585,-2.7585,-2.7585,-2.7764,-2.8049,-2.8439,-2.857,-2.8756,-2.9189,-2.9675,-2.952,-2.8724,-2.8177,-2.7591,-2.7351,-2.6884,-2.6803,-2.7417,-2.6884,-2.6555,-2.6487,-2.6487,-2.6487,-2.6487,-2.6487,-2.6487,-2.6587,-2.6939,-2.7278,-2.7306,-2.7896,-2.8109,-2.8222,-2.8624,-2.8913,-2.9114,-2.9402,-2.9779,-2.9779,-2.9779,-2.9779,-2.9779,-2.9779,-2.9779,-2.9779,-2.9779,-2.9779,-2.9779,-2.9779,-2.9779,-2.9779,-2.9779,-2.9779,-2.9779,-2.9779,-2.9702,-2.965,-2.9702,-2.9663,-2.9573,-2.9534,-2.9275,-2.9028,-2.7654,-2.6502,-2.5797,-2.4467,-2.3757,-2.3135,-2.3091,-2.3101,-2.3101,-2.3101,-2.3101,-2.3101,-2.3101,-2.3101,-2.3101,-2.3101,-2.3101,-2.3101,-2.3101,-2.3101,-2.5748,-2.5995,-2.5995,-2.576,-2.5354,-2.5221,-2.4989,-2.4772,-2.5031,-2.4632,-2.39,-2.4194,-2.449,-2.4987,-2.5961,-2.7737,-2.947,-3.0243,-3.0356,-3.0107,-2.9607,-2.9012,-2.8487,-2.7894,-2.761,-2.7585,-2.7585,-2.7585,-2.7585,-2.7585,-2.7585,-2.7585,-2.766,-2.766,-2.7839,-2.8098,-2.8491,-2.8669,-2.8826,-2.9028,-2.9105,-2.9027,-2.8844,-2.8084,-2.7736,-2.7317,-2.6871,-2.6624,-2.6555,-2.6692,-2.6555,-2.6521,-2.6487,-2.6487,-2.6512,-2.6562,-2.6575,-2.6612,-2.6751,-2.7102,-2.7304,-2.7507,-2.8222,-2.8511,-2.8536,-2.8988,-2.9264,-2.9239,-2.944,-2.9779,-2.9779,-2.9779,-2.9779,-2.9779,-2.9779,-2.9779,-2.9779,-2.9779,-2.9779,-2.9779,-2.9779,-2.9779,-2.9779,-2.9779,-2.9779,-2.9779,-2.9779,-2.9275,-2.8806,-2.9067,-2.9365,-2.9275,-2.9236,-2.8858,-2.8466,-2.6655,-2.5252,-2.5094,-2.4221,-2.3551,-2.3091,-2.3091,-2.3101,-2.3101,-2.3101,-2.3101,-2.3101,-2.3101,-2.3101,-2.3101,-2.3101,-2.3101,-2.3101,-2.3101,-2.3101,-2.4776,-2.5021,-2.5118,-2.5012,-2.4772,-2.4491,-2.4389,-2.441,-2.4369,-2.4095,-2.3794,-2.3888,-2.4215,-2.4664,-2.5153,-2.6794,-2.8497,-2.9626,-2.9772,-2.9695,-2.9225,-2.8842,-2.8439,-2.787,-2.766,-2.7585,-2.7585,-2.7585,-2.7585,-2.7585,-2.7585,-2.769,-2.7914,-2.8139,-2.8289,-2.8771,-2.902,-2.9019,-2.8812,-2.8622,-2.8426,-2.8042,-2.7624,-2.767,-2.7284,-2.6871,-2.6611,-2.6487,-2.6487,-2.6521,-2.6487,-2.6487,-2.6499,-2.6549,-2.6663,-2.6876,-2.6914,-2.7065,-2.7331,-2.7808,-2.8147,-2.8235,-2.8913,-2.9227,-2.9164,-2.944,-2.9628,-2.9541,-2.9515,-2.9779,-2.9779,-2.9779,-2.9779,-2.9779,-2.9779,-2.9779,-2.9779,-2.9779,-2.9702,-2.9663,-2.9624,-2.9663,-2.9779,-2.9779,-2.9779,-2.9779,-2.9779,-2.9067,-2.8136,-2.8557,-2.9067,-2.8251,-2.8039,-2.7735,-2.7238,-2.587,-2.4542,-2.4296,-2.4006,-2.3343,-2.3101,-2.3101,-2.3101,-2.3101,-2.3101,-2.3101,-2.3101,-2.3101,-2.3101,-2.3101,-2.3101,-2.3101,-2.3101,-2.3101,-2.3101,-2.3727,-2.4114,-2.419,-2.4225,-2.4163,-2.3794,-2.3837,-2.4095,-2.3815,-2.3638,-2.3595,-2.3625,-2.3916,-2.4321,-2.4755,-2.5644,-2.734,-2.8519,-2.8991,-2.9122,-2.8787,-2.8527,-2.8359,-2.7944,-2.7585,-2.7585,-2.7585,-2.7585,-2.7585,-2.7585,-2.7585,-2.7764,-2.8274,-2.8592,-2.8682,-2.934,-2.9497,-2.932,-2.8668,-2.8058,-2.7386,-2.6905,-2.6782,-2.7364,-2.6837,-2.6533,-2.6487,-2.6487,-2.6487,-2.6537,-2.6612,-2.6688,-2.6688,-2.6776,-2.709,-2.7469,-2.7419,-2.7607,-2.8034,-2.8536,-2.875,-2.8762,-2.9415,-2.9691,-2.9741,-2.9691,-2.9767,-2.9779,-2.9779,-2.9779,-2.9779,-2.9779,-2.9779,-2.9779,-2.9779,-2.9779,-2.9663,-2.9534,-2.9236,-2.9236,-2.9326,-2.9417,-2.9495,-2.9779,-2.9779,-2.9779,-2.9779,-2.8712,-2.7988,-2.8518,-2.8569,-2.7221,-2.6595,-2.6337,-2.588,-2.5168,-2.4253,-2.392,-2.3681,-2.3178,-2.3101,-2.3101,-2.3101,-2.3101,-2.3101,-2.3101,-2.3101,-2.3101,-2.3101,-2.3101,-2.3101,-2.3101,-2.3101,-2.3101,-2.3101,-2.3322,-2.4066,-2.3655,-2.3585,-2.367,-2.3638,-2.3616,-2.3687,-2.3638,-2.3595,-2.3595,-2.3595,-2.3655,-2.3894,-2.4395,-2.5363,-2.6485,-2.7394,-2.8056,-2.8322,-2.8397,-2.8407,-2.8383,-2.7885,-2.7635,-2.7585,-2.7585,-2.7585,-2.7585,-2.7585,-2.7585,-2.7735,-2.8304,-2.8622,-2.8846,-2.9864,-3.0374,-3.0158,-2.9325,-2.8153,-2.6981,-2.6611,-2.6624,-2.6624,-2.6589,-2.6487,-2.6487,-2.6487,-2.6487,-2.6549,-2.6964,-2.7178,-2.7291,-2.7682,-2.8172,-2.8273,-2.7996,-2.7532,-2.8185,-2.8725,-2.9001,-2.9139,-2.949,-2.9729,-2.9779,-2.9779,-2.9779,-2.9779,-2.9779,-2.9779,-2.9779,-2.9779,-2.9779,-2.9779,-2.9779,-2.9779,-2.9702,-2.9015,-2.8767,-2.8347,-2.8279,-2.874,-2.904,-2.9456,-2.9779,-2.9779,-2.9534,-2.8422,-2.7464,-2.7574,-2.7827,-2.6461,-2.5389,-2.5052,-2.4925,-2.4168,-2.393,-2.3594,-2.3387,-2.3101,-2.3101,-2.3101,-2.3101,-2.3101,-2.3101,-2.3101,-2.3101,-2.3101,-2.3101,-2.3101,-2.3101,-2.3101,-2.3101,-2.3101,-2.3047,-2.2198,-2.2917,-2.2991,-2.305,-2.3137,-2.343,-2.3595,-2.3595,-2.3595,-2.3595,-2.3595,-2.3595,-2.3595,-2.3744,-2.4291,-2.4897,-2.5583,-2.6496,-2.7101,-2.7504,-2.7782,-2.7993,-2.7934,-2.7735,-2.7585,-2.7585,-2.7585,-2.7585,-2.7585,-2.7585,-2.7585,-2.775,-2.8603,-2.9217,-2.9205,-3.0432,-3.0641,-3.0116,-2.9039,-2.794,-2.725,-2.6782,-2.6487,-2.6487,-2.6487,-2.6487,-2.6499,-2.6487,-2.6487,-2.66,-2.7027,-2.7316,-2.7442,-2.7795,-2.8335,-2.8762,-2.8536,-2.8536,-2.9013,-2.9264,-2.9352,-2.9428,-2.9641,-2.9767,-2.9779,-2.9779,-2.9779,-2.9779,-2.9779,-2.9779,-2.9779,-2.9779,-2.9779,-2.9779,-2.9779,-2.9779,-2.9573,-2.8676,-2.8136,-2.7683,-2.7238,-2.7533,-2.7907,-2.8319,-2.8569,-2.8779,-2.845,-2.7614,-2.6213,-2.5168,-2.5462,-2.5588,-2.4585,-2.3833,-2.379,-2.3464,-2.3507,-2.3299,-2.3299,-2.3101,-2.3101,-2.3101,-2.3101,-2.3101,-2.3101,-2.3101,-2.3101,-2.3101,-2.3101,-2.3101,-2.3101,-2.3003,-2.2916,-2.2916,-2.2818,-2.1229,-2.1632,-2.22,-2.2538,-2.2748,-2.3347,-2.3595,-2.3595,-2.3595,-2.3595,-2.3595,-2.3595,-2.3595,-2.3684,-2.4103,-2.4455,-2.4732,-2.5824,-2.6363,-2.6737,-2.721,-2.758,-2.766,-2.7585,-2.7585,-2.7585,-2.7585,-2.7585,-2.7585,-2.7585,-2.7585,-2.766,-2.8888,-2.9457,-2.9894,-3.0645,-3.1086,-3.0242,-2.9213,-2.833,-2.7683,-2.7142,-2.6748,-2.6589,-2.6487,-2.6487,-2.6512,-2.67,-2.6725,-2.6839,-2.7457,-2.7846,-2.7908,-2.8398,-2.88,-2.9126,-2.9076,-2.9227,-2.9515,-2.9691,-2.9779,-2.9779,-2.9779,-2.9779,-2.9779,-2.9779,-2.9779,-2.9779,-2.9779,-2.9779,-2.9779,-2.9779,-2.9779,-2.9779,-2.9779,-2.9779,-2.9495,-2.8359,-2.7441,-2.6953,-2.6419,-2.5797,-2.6213,-2.683,-2.7238,-2.7614,-2.7279,-2.6655,-2.541,-2.3877,-2.3877,-2.4467,-2.4092,-2.3333,-2.3256,-2.3178,-2.3091,-2.3101,-2.3101,-2.3101,-2.3101,-2.3101,-2.3101,-2.3101,-2.3101,-2.3101,-2.3101,-2.3101,-2.3101,-2.3101,-2.3047,-2.2818,-2.2687,-2.2589,-2.2129,-2.0763,-2.05,-2.1432,-2.2149,-2.2703,-2.3362,-2.3595,-2.3595,-2.3595,-2.3595,-2.3595,-2.3595,-2.3595,-2.364,-2.3744,-2.4081,-2.4634,-2.5337,-2.6019,-2.6686,-2.724,-2.754,-2.7585,-2.7585,-2.7585,-2.7585,-2.7585,-2.7585,-2.7585,-2.7585,-2.7585,-2.7779,-2.8843,-2.9397,-2.9968,-3.0793,-3.1131,-3.0554,-2.9919,-2.902,-2.8201,-2.7537,-2.7183,-2.6611,-2.6487,-2.6499,-2.6524,-2.6939,-2.7205,-2.7278,-2.8072,-2.8561,-2.8599,-2.9101,-2.9453,-2.9528,-2.9578,-2.9666,-2.9767,-2.9779,-2.9779,-2.9779,-2.9779,-2.9779,-2.9779,-2.9779,-2.9779,-2.9779,-2.9779,-2.9779,-2.9779,-2.9779,-2.9779,-2.9779,-2.974,-2.9573,-2.9,-2.7666,-2.6801,-2.6213,-2.5557,-2.4798,-2.4638,-2.5294,-2.6036,-2.6419,-2.6047,-2.5462,-2.4914,-2.3714,-2.3343,-2.3474,-2.3387,-2.3135,-2.3135,-2.3101,-2.3101,-2.3101,-2.3101,-2.3101,-2.3101,-2.3101,-2.3101,-2.3101,-2.3101,-2.3101,-2.3101,-2.3101,-2.3101,-2.3101,-2.2916,-2.2315,-2.1587,-2.1132,-2.0539,-2.1117,-2.1373,-2.1618,-2.1844,-2.2158,-2.3161,-2.3595,-2.3595,-2.3595,-2.3595,-2.3595,-2.3595,-2.3595,-2.3595,-2.3625,-2.3969,-2.4634,-2.5292,-2.5989,-2.6617,-2.7225,-2.754,-2.7585,-2.7585,-2.7585,-2.7585,-2.7585,-2.7585,-2.7585,-2.7585,-2.7585,-2.7929,-2.8648,-2.9146,-2.9849,-3.0806,-3.1144,-3.0999,-3.0494,-2.9628,-2.8748,-2.7887,-2.7317,-2.6589,-2.6487,-2.67,-2.6964,-2.719,-2.7457,-2.7883,-2.8561,-2.8813,-2.9038,-2.9528,-2.9754,-2.9779,-2.9779,-2.9779,-2.9779,-2.9779,-2.9779,-2.9779,-2.9779,-2.9779,-2.9779,-2.9779,-2.9779,-2.9779,-2.9779,-2.9779,-2.9779,-2.9779,-2.9779,-2.9779,-2.9624,-2.9365,-2.8542,-2.7168,-2.6171,-2.563,-2.4595,-2.3604,-2.3637,-2.38,-2.4553,-2.5179,-2.4723,-2.4307,-2.3887,-2.3637,-2.3299,-2.3101,-2.3101,-2.3101,-2.3101,-2.3101,-2.3101,-2.3101,-2.3101,-2.3101,-2.3101,-2.3101,-2.3101,-2.3101,-2.3101,-2.3101,-2.3101,-2.3101,-2.3101,-2.3101,-2.2403,-2.1436,-2.0621,-1.9807,-1.9077,-2.1423,-2.1787,-2.1865,-2.1919,-2.2149,-2.3167,-2.3595,-2.3595,-2.3595,-2.3595,-2.3595,-2.3595,-2.3595,-2.3625,-2.3857,-2.4313,-2.4993,-2.5636,-2.6288,-2.6856,-2.7375,-2.757,-2.7585,-2.7585,-2.7585,-2.7585,-2.7585,-2.7585,-2.7585,-2.7585,-2.7764,-2.8034,-2.8353,-2.8966,-2.9744,-3.0778,-3.1481,-3.1336,-3.0955,-3.0011,-2.9097,-2.8427,-2.7471,-2.6811,-2.6663,-2.6914,-2.7329,-2.7632,-2.8034,-2.8423,-2.8863,-2.9113,-2.934,-2.9515,-2.9741,-2.9779,-2.9779,-2.9779,-2.9779,-2.9779,-2.9779,-2.9779,-2.9779,-2.9779,-2.9779,-2.9779,-2.9779,-2.9779,-2.9779,-2.9779,-2.9779,-2.9779,-2.9779,-2.9779,-2.9106,-2.8727,-2.7936,-2.6819,-2.587,-2.5041,-2.4016,-2.3144,-2.3222,-2.3387,-2.3681,-2.4221,-2.3973,-2.3724,-2.3517,-2.3299,-2.3222,-2.3101,-2.3101,-2.3101,-2.3101,-2.3101,-2.3101,-2.3101,-2.3101,-2.3101,-2.3101,-2.3101,-2.3101,-2.3101,-2.3101,-2.3101,-2.3101,-2.3101,-2.3101,-2.3101,-2.1996,-2.0666,-1.9753,-1.894,-1.7894,-2.1488,-2.1417,-2.2037,-2.2426,-2.2705,-2.3325,-2.3595,-2.3595,-2.3595,-2.3595,-2.3595,-2.3595,-2.3595,-2.3729,-2.4141,-2.4784,-2.5465,-2.6153,-2.6811,-2.7345,-2.751,-2.7585,-2.7585,-2.7585,-2.7585,-2.7585,-2.7585,-2.7585,-2.7585,-2.7585,-2.7914,-2.8427,-2.8771,-2.9146,-2.9699,-3.0853,-3.1451,-3.1496,-3.1409,-3.048,-2.9473,-2.8925,-2.7986,-2.713,-2.6974,-2.7216,-2.7532,-2.821,-2.8624,-2.8963,-2.9352,-2.9591,-2.9666,-2.9704,-2.9779,-2.9779,-2.9779,-2.9779,-2.9779,-2.9779,-2.9779,-2.9779,-2.9779,-2.9779,-2.9779,-2.9779,-2.9779,-2.9779,-2.9779,-2.9779,-2.9779,-2.9779,-2.9779,-2.9365,-2.8727,-2.7896,-2.7105,-2.6356,-2.5326,-2.4457,-2.3714,-2.3101,-2.3101,-2.3135,-2.3135,-2.3266,-2.3178,-2.3101,-2.3101,-2.3101,-2.3101,-2.3101,-2.3101,-2.3101,-2.3101,-2.3101,-2.3101,-2.3101,-2.3101,-2.3101,-2.3101,-2.3101,-2.3101,-2.3101,-2.3101,-2.3101,-2.3101,-2.3101,-2.3101,-2.2916,-2.1221,-1.9898,-1.8985,-1.8164,-1.735,-2.1822,-2.2163,-2.2264,-2.2605,-2.3097,-2.3453,-2.3595,-2.3595,-2.3595,-2.3595,-2.3595,-2.3595,-2.3595,-2.3819,-2.4321,-2.4993,-2.5644,-2.6303,-2.6971,-2.7525,-2.7585,-2.7585,-2.7585,-2.7585,-2.7585,-2.7585,-2.7585,-2.7585,-2.7585,-2.766,-2.8034,-2.8547,-2.946,-2.9953,-3.0357,-3.1076,-3.1496,-3.1496,-3.1409,-3.0925,-2.9905,-2.9209,-2.8409,-2.7268,-2.7297,-2.7505,-2.7833,-2.8649,-2.9089,-2.9377,-2.9741,-2.9767,-2.9779,-2.9779,-2.9779,-2.9779,-2.9779,-2.9779,-2.9779,-2.9779,-2.9779,-2.9779,-2.9779,-2.9779,-2.9779,-2.9779,-2.9779,-2.9779,-2.9779,-2.9779,-2.9779,-2.9779,-2.9611,-2.8767,-2.7976,-2.7023,-2.6191,-2.5493,-2.467,-2.3877,-2.3135,-2.3091,-2.3101,-2.3101,-2.3101,-2.3101,-2.3101,-2.3101,-2.3101,-2.3101,-2.3101,-2.3101,-2.3101,-2.3101,-2.3101,-2.3101,-2.3101,-2.3101,-2.3101,-2.3101,-2.3101,-2.3101,-2.3101,-2.3101,-2.3101,-2.3101,-2.3101,-2.3101,-2.3101,-2.2545,-2.1355,-1.9861,-1.868,-1.7994,-1.7264,-2.2133,-2.2605,-2.2748,-2.2955,-2.3322,-2.3501,-2.3595,-2.3595,-2.3595,-2.3595,-2.3595,-2.3595,-2.3595,-2.3849,-2.4515,-2.5083,-2.5704,-2.6557,-2.7046,-2.7585,-2.7585,-2.7585,-2.7585,-2.7585,-2.7585,-2.7585,-2.7585,-2.7585,-2.763,-2.7854,-2.8487,-2.943,-3.024,-3.0717,-3.1031,-3.1301,-3.1496,-3.1409,-3.1175,-3.0569,-2.969,-2.8967,-2.8191,-2.7699,-2.7599,-2.7821,-2.8373,-2.89,-2.9377,-2.9679,-2.9779,-2.9779,-2.9779,-2.9779,-2.9779,-2.9779,-2.9779,-2.9779,-2.9779,-2.9779,-2.9779,-2.9779,-2.9779,-2.9779,-2.9779,-2.9779,-2.9779,-2.9779,-2.9779,-2.9779,-2.9779,-2.9779,-2.9275,-2.8478,-2.7441,-2.6491,-2.541,-2.4702,-2.4135,-2.3343,-2.3135,-2.3091,-2.3101,-2.3101,-2.3101,-2.3101,-2.3101,-2.3101,-2.3101,-2.3101,-2.3091,-2.3091,-2.3047,-2.3003,-2.3047,-2.3101,-2.3101,-2.3101,-2.3003,-2.2906,-2.3101,-2.3101,-2.3101,-2.3091,-2.3003,-2.296,-2.3091,-2.3101,-2.3047,-2.2916,-2.2457,-2.0728,-1.8726,-1.7909,-1.7451,-2.2389,-2.2684,-2.3391,-2.3474,-2.3339,-2.3513,-2.3595,-2.3595,-2.3595,-2.3595,-2.3595,-2.3595,-2.3595,-2.3879,-2.4971,-2.554,-2.5854,-2.6916,-2.739,-2.757,-2.7585,-2.7585,-2.7585,-2.7585,-2.7585,-2.7585,-2.7585,-2.76,-2.7675,-2.7917,-2.8869,-2.9894,-3.0319,-3.0645,-3.0808,-3.0925,-3.1087,-3.0999,-3.0524,-2.9919,-2.9223,-2.8344,-2.7834,-2.7606,-2.7784,-2.8158,-2.8687,-2.9264,-2.9603,-2.9779,-2.9779,-2.9779,-2.9779,-2.9779,-2.9779,-2.9779,-2.9779,-2.9779,-2.9779,-2.9779,-2.9573,-2.9495,-2.9702,-2.974,-2.9779,-2.9779,-2.9779,-2.9779,-2.9779,-2.9779,-2.9779,-2.9534,-2.9248,-2.8211,-2.7128,-2.6005,-2.4798,-2.4049,-2.3464,-2.3091,-2.3091,-2.3101,-2.3101,-2.3101,-2.3101,-2.3101,-2.3101,-2.3101,-2.3101,-2.3101,-2.3091,-2.3047,-2.296,-2.2862,-2.2818,-2.2448,-2.2448,-2.2271,-2.2545,-2.2589,-2.2818,-2.2818,-2.2589,-2.2501,-2.2731,-2.2731,-2.2536,-2.2633,-2.2862,-2.2775,-2.2731,-2.1454,-1.9405,-1.8503,-1.7863,-2.2343,-2.2454,-2.298,-2.3159,-2.3142,-2.3451,-2.3595,-2.3595,-2.3595,-2.3595,-2.3595,-2.3595,-2.3595,-2.3729,-2.5001,-2.548,-2.6108,-2.6797,-2.739,-2.7585,-2.7585,-2.7585,-2.7585,-2.7585,-2.7585,-2.756,-2.7534,-2.7473,-2.7531,-2.7841,-2.8154,-2.8826,-2.9433,-2.9581,-2.9775,-2.9766,-3.0117,-3.0238,-2.9704,-2.9286,-2.878,-2.8032,-2.768,-2.7657,-2.7898,-2.827,-2.8586,-2.9365,-2.9704,-2.9779,-2.9779,-2.9779,-2.9779,-2.9779,-2.9779,-2.9779,-2.9779,-2.9779,-2.9779,-2.9779,-2.9482,-2.9067,-2.9275,-2.974,-2.9779,-2.974,-2.974,-2.9779,-2.9779,-2.9779,-2.9702,-2.9443,-2.87,-2.7545,-2.6513,-2.5504,-2.4382,-2.3594,-2.3101,-2.3101,-2.3101,-2.3101,-2.3101,-2.3101,-2.3101,-2.3101,-2.3101,-2.3101,-2.3101,-2.3101,-2.2818,-2.2765,-2.2448,-2.2217,-2.1534,-2.1069,-2.1302,-2.1489,-2.1667,-2.1854,-2.1854,-2.181,-2.1819,-2.1632,-2.1409,-2.1534,-2.1712,-2.1845,-2.1898,-2.2731,-2.2731,-2.1498,-2.0314,-1.936,-1.8041,-2.2135,-2.2348,-2.2704,-2.2991,-2.3199,-2.3466,-2.3595,-2.3595,-2.3595,-2.3595,-2.3595,-2.3595,-2.3595,-2.3819,-2.4941,-2.563,-2.5734,-2.6901,-2.7585,-2.7585,-2.7585,-2.7585,-2.7585,-2.7534,-2.7382,-2.7306,-2.7111,-2.6904,-2.6992,-2.7335,-2.7712,-2.832,-2.836,-2.8637,-2.8906,-2.8844,-2.878,-2.8894,-2.8766,-2.8556,-2.8182,-2.7729,-2.7468,-2.7601,-2.7849,-2.8157,-2.8461,-2.9365,-2.9704,-2.9779,-2.9779,-2.9779,-2.9779,-2.9779,-2.9779,-2.9779,-2.9779,-2.9779,-2.9702,-2.9236,-2.8767,-2.8478,-2.8676,-2.8937,-2.9314,-2.9404,-2.9611,-2.9779,-2.9779,-2.974,-2.9573,-2.9275,-2.7999,-2.673,-2.585,-2.501,-2.4135,-2.3309,-2.3101,-2.3101,-2.3101,-2.3101,-2.3101,-2.3101,-2.3101,-2.3101,-2.3101,-2.3101,-2.3101,-2.3101,-2.2589,-2.2129,-2.1712,-2.1337,-2.0567,-1.9889,-2.0116,-2.035,-2.0486,-2.0666,-2.0764,-2.0719,-2.0539,-2.0178,-1.9815,-2.0079,-2.0486,-2.0576,-2.0755,-2.1587,-2.1863,-2.0539,-1.9906,-2.0087,-1.8534,-2.184,-2.2247,-2.2479,-2.2829,-2.3328,-2.3432,-2.352,-2.3595,-2.3595,-2.3595,-2.3595,-2.3595,-2.3595,-2.3864,-2.4971,-2.557,-2.5989,-2.6931,-2.7585,-2.7585,-2.7585,-2.7585,-2.756,-2.7484,-2.7086,-2.6695,-2.6406,-2.6288,-2.605,-2.6363,-2.7076,-2.8046,-2.8193,-2.8283,-2.8258,-2.7887,-2.7769,-2.7756,-2.7756,-2.7604,-2.7451,-2.705,-2.6738,-2.7248,-2.7769,-2.8285,-2.8775,-2.9327,-2.9779,-2.9779,-2.9779,-2.9779,-2.9779,-2.9779,-2.9779,-2.9779,-2.9779,-2.9573,-2.9314,-2.8767,-2.8056,-2.7804,-2.7924,-2.7763,-2.7936,-2.9157,-2.9663,-2.9314,-2.9197,-2.887,-2.8661,-2.8199,-2.7209,-2.6213,-2.5378,-2.451,-2.3681,-2.3135,-2.3101,-2.3101,-2.3101,-2.3101,-2.3101,-2.3101,-2.3101,-2.3101,-2.3101,-2.3101,-2.296,-2.296,-2.2315,-2.1489,-2.0576,-1.9988,-1.9443,-1.894,-1.9031,-1.9169,-1.9306,-1.936,-1.9451,-1.936,-1.9214,-1.8902,-1.8588,-1.891,-1.9222,-1.9314,-1.9542,-2.0087,-2.0042,-1.9185,-1.9131,-1.9662,-1.871,-2.1384,-2.1739,-2.1661,-2.2105,-2.2823,-2.2915,-2.3191,-2.358,-2.3595,-2.3595,-2.3595,-2.3595,-2.3595,-2.3804,-2.5001,-2.56,-2.5914,-2.6901,-2.748,-2.7585,-2.7585,-2.7585,-2.7484,-2.7214,-2.6747,-2.639,-2.6056,-2.5702,-2.5746,-2.587,-2.6117,-2.6905,-2.7058,-2.6999,-2.7338,-2.6939,-2.6905,-2.6939,-2.6939,-2.6939,-2.6816,-2.6748,-2.6625,-2.7027,-2.7482,-2.8122,-2.8674,-2.9277,-2.9628,-2.9779,-2.9779,-2.9779,-2.9779,-2.9779,-2.9779,-2.9779,-2.974,-2.9404,-2.8715,-2.8124,-2.7337,-2.6479,-2.6243,-2.6077,-2.6748,-2.8661,-2.9365,-2.8819,-2.8359,-2.7999,-2.7585,-2.7087,-2.6543,-2.5744,-2.4914,-2.4049,-2.3178,-2.3135,-2.3101,-2.3101,-2.3101,-2.3101,-2.3101,-2.3101,-2.3101,-2.3101,-2.3101,-2.3003,-2.2633,-2.2403,-2.1721,-2.0809,-1.9139,-1.8457,-1.8041,-1.7801,-1.7801,-1.7948,-1.8087,-1.8133,-1.8141,-1.7855,-1.7615,-1.763,-1.7537,-1.7762,-1.7948,-1.8095,-1.8373,-1.8726,-1.8794,-1.8149,-1.8141,-1.8632,-1.774,-2.0943,-2.1309,-2.1321,-2.1656,-2.2234,-2.2568,-2.3047,-2.352,-2.3595,-2.3595,-2.3595,-2.3595,-2.3595,-2.3804,-2.5001,-2.56,-2.5854,-2.7001,-2.745,-2.7585,-2.7585,-2.7585,-2.7357,-2.7086,-2.6481,-2.6068,-2.5248,-2.4929,-2.5292,-2.5589,-2.582,-2.6199,-2.5954,-2.6135,-2.6487,-2.6487,-2.6487,-2.6521,-2.6487,-2.6487,-2.6487,-2.6487,-2.6675,-2.7027,-2.7544,-2.8122,-2.8712,-2.9315,-2.9628,-2.9779,-2.9779,-2.9779,-2.9779,-2.9779,-2.9779,-2.9779,-2.9663,-2.9287,-2.8347,-2.747,-2.6644,-2.5672,-2.5168,-2.5284,-2.5493,-2.7157,-2.7839,-2.7412,-2.7412,-2.7087,-2.676,-2.6295,-2.5786,-2.5073,-2.4296,-2.3474,-2.3178,-2.3135,-2.3101,-2.3101,-2.3101,-2.3101,-2.3101,-2.3101,-2.3101,-2.3101,-2.3101,-2.3038,-2.2624,-2.1676,-2.0989,-2.007,-1.8449,-1.7311,-1.6842,-1.6608,-1.6473,-1.6662,-1.699,-1.6943,-1.6889,-1.6386,-1.6062,-1.6398,-1.6579,-1.648,-1.6669,-1.6911,-1.6969,-1.7163,-1.7321,-1.7338,-1.7455,-1.7442,-1.6775,-2.0516,-2.0842,-2.1019,-2.1344,-2.1764,-2.2298,-2.2957,-2.3535,-2.3595,-2.3595,-2.3595,-2.3595,-2.3595,-2.4044,-2.4941,-2.536,-2.6019,-2.7061,-2.748,-2.7585,-2.7585,-2.7585,-2.7534,-2.7316,-2.6388,-2.5423,-2.454,-2.4379,-2.4487,-2.5069,-2.5638,-2.5795,-2.6122,-2.6487,-2.6487,-2.6487,-2.6487,-2.6487,-2.6487,-2.6487,-2.6487,-2.6512,-2.6813,-2.7243,-2.7821,-2.8324,-2.8875,-2.939,-2.9729,-2.9779,-2.9779,-2.9779,-2.9779,-2.9779,-2.9779,-2.9779,-2.9779,-2.9028,-2.7976,-2.7035,-2.5922,-2.4967,-2.4745,-2.466,-2.4882,-2.5252,-2.5933,-2.6141,-2.6099,-2.6047,-2.5714,-2.5389,-2.483,-2.45,-2.3714,-2.3178,-2.3135,-2.3101,-2.3101,-2.3101,-2.3101,-2.3101,-2.3101,-2.3101,-2.3101,-2.3101,-2.3038,-2.2974,-2.2517,-2.1114,-2.0025,-1.9107,-1.784,-1.6788,-1.6008,-1.592,-1.592,-1.6015,-1.6339,-1.6015,-1.5825,-1.5825,-1.5792,-1.5759,-1.5812,-1.5826,-1.5765,-1.5903,-1.5905,-1.596,-1.6109,-1.632,-1.6197,-1.6176,-1.5956,-2.0158,-1.9942,-1.999,-2.0651,-2.162,-2.1859,-2.2532,-2.349,-2.3595,-2.3595,-2.3595,-2.3595,-2.3595,-2.3684,-2.5001,-2.5644,-2.5974,-2.7046,-2.748,-2.7585,-2.7585,-2.7585,-2.7291,-2.6718,-2.5796,-2.4922,-2.4322,-2.4343,-2.4582,-2.5247,-2.585,-2.6285,-2.6323,-2.6487,-2.6487,-2.6487,-2.6487,-2.6487,-2.6487,-2.6487,-2.6499,-2.66,-2.6839,-2.7304,-2.7821,-2.836,-2.8925,-2.949,-2.9704,-2.9779,-2.9779,-2.9779,-2.9779,-2.9779,-2.9779,-2.9779,-2.9779,-2.8831,-2.7747,-2.6871,-2.5755,-2.4178,-2.3877,-2.3671,-2.3757,-2.3757,-2.4221,-2.4349,-2.4392,-2.451,-2.4296,-2.4016,-2.3594,-2.3594,-2.3178,-2.3135,-2.3091,-2.3101,-2.3101,-2.3101,-2.3101,-2.3101,-2.3101,-2.3101,-2.3101,-2.3047,-2.2862,-2.2736,-2.1898,-2.0516,-1.9107,-1.8149,-1.7188,-1.6459,-1.5825,-1.5872,-1.5825,-1.5825,-1.5825,-1.5825,-1.5825,-1.5825,-1.5772,-1.5631,-1.5498,-1.5464,-1.5357,-1.5311,-1.529,-1.5394,-1.5241,-1.5258,-1.5162,-1.5197,-1.5297]},{"header":{"parameterUnit":"m.s-1","parameterCategory":1,"la1":31.0,"la2":29.5877,"lo1":-88.7671,"lo2":-86.6584,"dy":0.0162,"dx":0.0185,"nx":115,"ny":88,"refTime":"2025-12-21T00:00:00:Z","depth":0,"parameterNumber":3,"parameterNumberName":"V-component_of_WINDS"},"data":[0.0,0.0,0.0,0.0,0.0,0.0,0.0,0.0,0.0,0.0,0.0,0.0,0.0,0.0,0.0,0.0,0.0,0.0,0.0,0.0,0.0,0.0,0.0,0.0,0.0,0.0,0.0,0.0,0.0,0.0,0.0,0.0,0.0,0.0,0.0,0.0,0.0,0.0,0.0,0.0,0.0,0.0,0.0,0.0,0.0,0.0,0.0,0.0,0.0,0.0,0.0,0.0,0.0,0.0,0.0,0.0,0.0,0.0,0.0,0.0,0.0,0.0,0.0,0.0,0.0,0.0,0.0,0.0,0.0,0.0,0.0,0.0,0.0,0.0,0.0,0.0,0.0,0.0,0.0,0.0,0.0,0.0,0.0,0.0,0.0,0.0,0.0,0.0,0.0,0.0,0.0,0.0,0.0,0.0,0.0,0.0,0.0,0.0,0.0,0.0,0.0,0.0,0.0,0.0,0.0,0.0,0.0,0.0,0.0,0.0,0.0,0.0,0.0,0.0,0.0,0.0,0.0,0.0,0.0,0.0,0.0,0.0,0.0,0.0,0.0,0.0,0.0,0.0,0.0,0.0,0.0,0.0,0.0,0.0,0.0,0.0,0.0,0.0,0.0,0.0,0.0,0.0,0.0,0.0,0.0,0.0,0.0,0.0,0.0,0.0,0.0,0.0,0.0,0.0,0.0,0.0,0.0,0.0,0.0,0.0,0.0,0.0,0.0,0.0,0.0,0.0,0.0,0.0,0.0,0.0,0.0,0.0,0.0,0.0,0.0,0.0,0.0,0.0,0.0,0.0,0.0,0.0,0.0,0.0,0.0,0.0,0.0,0.0,0.0,0.0,0.0,0.0,0.0,0.0,0.0,0.0,0.0,0.0,0.0,0.0,0.0,0.0,0.0,0.0,0.0,0.0,0.0,0.0,0.0,0.0,0.0,0.0,0.0,0.0,0.0,0.0,0.0,0.0,0.0,0.0,0.0,0.0,0.0,0.0,0.0,0.0,0.0,0.0,0.0,0.0,0.0,0.0,0.0,0.0,0.0,0.0,0.0,0.0,0.0,0.0,0.0,0.0,0.0,0.0,0.0,0.0,0.0,0.0,0.0,0.0,0.0,0.0,0.0,0.0,0.0,0.0,0.0,0.0,0.0,0.0,0.0,0.0,0.0,0.0,0.0,0.0,0.0,0.0,0.0,0.0,0.0,0.0,0.0,0.0,0.0,0.0,0.0,0.0,0.0,0.0,0.0,0.0,0.0,0.0,0.0,0.0,0.0,0.0,0.0,0.0,0.0,0.0,0.0,0.0,0.0,0.0,0.0,0.0,0.0,0.0,0.0,0.0,0.0,0.0,0.0,0.0,0.0,0.0,0.0,0.0,0.0,0.0,0.0,0.0,0.0,0.0,0.0,0.0,0.0,0.0,0.0,0.0,0.0,0.0,0.0,0.0,0.0,0.0,0.0,0.0,0.0,0.0,0.0,0.0,0.0,0.0,0.0,0.0,0.0,0.0,0.0,0.0,0.0,0.0,0.0,0.0,0.0,0.0,0.0,0.0,0.0,0.0,0.0,0.0,0.0,0.0,0.0,0.0,0.0,0.0,0.0,0.0,0.0,0.0,0.0,0.0,0.0,0.0,0.0,0.0,0.0,0.0,0.0,0.0,0.0,0.0,0.0,0.0,0.0,0.0,0.0,0.0,0.0,0.0,0.0,0.0,0.0,0.0,0.0,0.0,0.0,0.0,0.0,0.0,0.0,0.0,0.0,0.0,0.0,0.0,0.0,0.0,0.0,0.0,0.0,0.0,0.0,0.0,0.0,0.0,0.0,0.0,0.0,0.0,0.0,0.0,0.0,0.0,0.0,0.0,0.0,0.0,0.0,0.0,0.0,0.0,0.0,0.0,0.0,0.0,0.0,0.0,0.0,0.0,0.0,0.0,0.0,0.0,0.0,0.0,0.0,0.0,0.0,0.0,0.0,0.0,0.0,0.0,0.0,0.0,0.0,0.0,0.0,0.0,0.0,0.0,0.0,0.0,0.0,0.0,0.0,0.0,0.0,0.0,0.0,0.0,0.0,0.0,0.0,0.0,0.0,0.0,0.0,0.0,0.0,0.0,0.0,0.0,0.0,0.0,0.0,0.0,0.0,0.0,0.0,0.0,0.0,0.0,0.0,0.0,0.0,0.0,0.0,0.0,0.0,0.0,0.0,0.0,0.0,0.0,0.0,0.0,0.0,0.0,0.0,0.0,0.0,0.0,0.0,0.0,0.0,0.0,0.0,0.0,0.0,0.0,0.0,0.0,0.0,0.0,0.0,0.0,0.0,0.0,0.0,0.0,0.0,0.0,0.0,0.0,0.0,0.0,0.0,0.0,0.0,0.0,0.0,0.0,0.0,0.0,0.0,0.0,0.0,0.0,0.0,0.0,0.0,0.0,0.0,0.0,0.0,0.0,0.0,0.0,0.0,0.0,0.0,0.0,0.0,0.0,0.0,0.0,0.0,0.0,0.0,0.0,0.0,0.0,0.0,0.0,0.0,0.0,0.0,0.0,0.0,0.0,0.0,0.0,0.0,0.0,0.0,0.0,0.0,0.0,0.0,0.0,0.0,0.0,0.0,0.0,0.0,0.0,0.0,0.0,0.0,0.0,0.0,0.0,0.0,0.0,0.0,0.0,0.0,0.0,0.0,0.0,0.0,0.0,0.0,0.0,0.0,0.0,0.0,0.0,0.0,0.0,0.0,0.0,0.0,0.0,0.0,0.0,0.0,0.0,0.0,0.0,0.0,0.0,0.0,0.0,0.0,0.0,0.0,0.0,0.0,0.0,0.0,0.0,0.0,0.0,0.0,0.0,0.0,0.0,0.0,0.0,0.0,0.0,0.0,0.0,0.0,0.0,0.0,0.0,0.0,0.0,0.0,0.0,0.0,0.0,0.0,0.0,0.0,0.0,0.0,0.0,0.0,0.0,0.0,0.0,0.0,0.0,0.0,0.0,0.0,0.0,0.0,0.0,0.0,0.0,0.0,0.0,0.0,0.0,0.0,0.0,0.0,0.0,0.0,0.0,0.0,0.0,0.0,0.0,0.0,0.0,0.0,0.0,0.0,0.0,0.0,0.0,0.0,0.0,0.0,0.0,0.0,0.0,0.0,0.0,0.0,0.0,0.0,0.0,0.0,0.0,0.0,0.0,0.0,0.0,0.0,0.0,0.0,0.0,0.0,0.0,0.0,0.0,0.0,0.0,0.0,0.0,0.0,0.0,0.0,0.0,0.0,0.0,0.0,0.0,0.0,0.0,0.0,0.0,0.0,0.0,0.0,0.0,0.0,0.0,0.0,0.0,0.0,0.0,0.0,0.0,0.0,0.0,0.0,0.0,0.0,0.0,0.0,0.0,0.0,0.0,0.0,0.0,0.0,0.0,0.0,0.0,0.0,0.0,0.0,0.0,0.0,0.0,0.0,0.0,0.0,0.0,0.0,0.0,0.0,0.0,0.0,0.0,0.0,0.0,0.0,0.0,0.0,0.0,0.0,0.0,0.0,0.0,0.0,0.0,0.0,0.0,0.0,0.0,0.0,0.0,0.0,0.0,0.0,0.0,0.0,0.0,0.0,0.0,0.0,0.0,0.0,0.0,0.0,0.0,0.0,0.0,0.0,0.0,0.0,0.0,0.0,0.0,0.0,0.0,0.0,0.0,0.0,0.0,0.0,0.0,0.0,0.0,0.0,0.0,0.0,0.0,0.0,0.0,0.0,0.0,0.0,0.0,0.0,0.0,0.0,0.0,0.0,0.0,0.0,0.0,0.0,0.0,0.0,0.0,0.0,0.0,0.0,0.0,0.0,0.0,0.0,0.0,0.0,0.0,0.0,0.0,0.0,0.0,0.0,0.0,0.0,0.0,0.0,0.0,0.0,0.0,0.0,0.0,0.0,0.0,0.0,0.0,0.0,0.0,0.0,0.0,0.0,0.0,0.0,0.0,0.0,0.0,0.0,0.0,0.0,0.0,0.0,0.0,0.0,0.0,0.0,0.0,0.0,0.0,0.0,0.0,0.0,0.0,0.0,0.0,0.0,0.0,0.0,0.0,0.0,0.0,0.0,0.0,0.0,0.0,0.0,0.0,0.0,0.0,0.0,0.0,0.0,0.0,0.0,0.0,0.0,0.0,0.0,0.0,0.0,0.0,0.0,0.0,0.0,0.0,0.0,0.0,0.0,0.0,0.0,0.0,0.0,0.0,0.0,0.0,0.0,0.0,0.0,0.0,0.0,0.0,0.0,0.0,0.0,0.0,0.0,0.0,0.0,0.0,0.0,0.0,0.0,0.0,0.0,0.0,0.0,0.0,0.0,0.0,0.0,0.0,0.0,0.0,0.0,0.0,0.0,0.0,0.0,0.0,0.0,0.0,0.0,0.0,0.0,0.0,0.0,0.0,0.0,0.0,0.0,0.0,0.0,0.0,0.0,0.0,0.0,0.0,0.0,0.0,0.0,0.0,0.0,0.0,0.0,0.0,0.0,0.0,0.0,0.0,0.0,0.0,0.0,0.0,0.0,0.0,0.0,0.0,0.0,0.0,0.0,0.0,0.0,0.0,0.0,0.0,0.0,0.0,0.0,0.0,0.0,0.0,0.0,0.0,0.0,0.0,0.0,0.0,0.0,0.0,0.0,0.0,0.0,0.0,0.0,0.0,0.0,0.0,0.0,0.0,0.0,0.0,0.0,0.0,0.0,0.0,0.0,0.0,0.0,0.0,0.0,0.0,0.0,0.0,0.0,0.0,0.0,-0.0196,-0.0587,-0.0196,-0.0196,-0.0587,0.0,0.0,0.0,0.0,0.0,0.0,0.0,0.0,0.0,0.0,0.0,0.0,0.0,0.0,0.0,0.0,0.0,0.0,0.0,0.0,0.0,0.0,0.0,0.0,0.0,0.0,0.0,0.0,0.0,0.0,0.0,0.0,0.0,0.0,0.0,0.0,0.0,0.0,0.0,0.0,0.0,0.0,0.0,0.0,0.0,0.0,0.0,0.0,0.0,0.0,0.0,0.0,0.0,0.0,0.0,0.0,0.0,0.0,0.0,0.0,0.0,0.0,0.0,0.0,0.0,0.0,0.0,0.0,0.0,0.0,0.0,0.0,0.0,0.0,0.0,0.0,0.0,0.0,0.0,0.0,0.0,0.0,0.0,0.0,0.0,0.0,0.0,0.0,0.0,0.0,0.0,0.0,0.0,0.0,0.0,0.0,0.0,0.0,0.0,0.0,0.0,0.0,0.0,0.0,0.0,0.0,0.0,0.0,0.0,0.0,0.0,0.0,-0.0365,-0.0336,-0.1062,0.0,0.0,0.0,0.0,0.0,0.0,0.0,0.0,0.0,0.0,0.0,0.0,0.0,0.0,0.0,0.0,0.0,0.0,0.0,0.0,0.0,0.0,0.0,0.0,0.0,0.0,0.0,0.0,0.0,0.0,0.0,0.0,0.0,0.0,0.0,0.0,0.0,0.0,0.0,0.0,0.0,0.0,0.0,0.0,0.0,0.0,0.0,0.0,0.0,0.0,0.0,0.0,0.0,0.0,0.0,0.0,0.0,0.0,0.0,0.0,0.0,0.0,0.0,0.0,0.0,0.0,0.0,0.0,0.0,0.0,0.0,0.0,0.0,0.0,0.0,0.0,0.0,0.0,0.0,0.0,0.0,0.0,0.0,0.0,0.0,0.0,0.0,0.0,0.0,0.0,0.0,0.0,0.0,0.0,0.0,0.0,0.0,0.0,0.0,0.0,0.0,0.0,0.0,0.0,0.0,0.0,0.0,0.0,0.0,0.0,0.034,-0.1051,-0.0398,0.0,-0.106,0.0,0.0,0.0,0.0,0.0,0.0,0.0,0.0,0.0,0.0,0.0,0.0,0.0,0.0,0.0,0.0,0.0,0.0,0.0,0.0,0.0,0.0,0.0,0.0,0.0,0.0,0.0,0.0,0.0,0.0,0.0,0.0,0.0,0.0,0.0,0.0,0.0,0.0,0.0,0.0,0.0,0.0,0.0,0.0,0.0,0.0,0.0,0.0,0.0,0.0,0.0,0.0,0.0,0.0,0.0,0.0,0.0,0.0,0.0,0.0,0.0,0.0,0.0,0.0,0.0,0.0,0.0,0.0,0.0,0.0,0.0,0.0,0.0,0.0,0.0,0.0,0.0,0.0,0.0,0.0,0.0,0.0,0.0,0.0,0.0,0.0,0.0,0.0,0.0,0.0,0.0,0.0,0.0,0.0,0.0,0.0,0.0,0.0,0.0,0.0,0.0,0.0,0.0,0.0,0.0,0.0,0.0,0.0,0.0,0.0,0.0,-0.1708,-0.1462,-0.1245,0.0,0.0,0.0,0.0,0.0,0.0,0.0,0.0,0.0,0.0,0.0,0.0,0.0,0.0,0.0,0.0,0.0,0.0,0.0,0.0,0.0,0.0,0.0,0.0,0.0,0.0,0.0,0.0,0.0,0.0,0.0,0.0,0.0,0.0,0.0,0.0,0.0,0.0,0.0,0.0,0.0,0.0,0.0,0.0,0.0,0.0,0.0,0.0,0.0,0.0,0.0,0.0,0.0,0.0,0.0,0.0,0.0,0.0,0.0,0.0,0.0,0.0,0.0,0.0,0.0,0.0,0.0,0.0,0.0,0.0,0.0,0.0,0.0,0.0,0.0,0.0,0.0,0.0,0.0,0.0,0.0,0.0,0.0,0.0,0.0,0.0,0.0,0.0,0.0,0.0,0.0,0.0,0.0,0.0,0.0,0.0,0.0,0.0,0.0,0.0,0.0,0.0,0.0,0.0,0.0,0.0,0.0,0.0,0.0,0.0,0.1551,0.0,-0.1478,-0.1786,-0.1538,-0.0824,0.0,0.0,0.0,0.0,0.0,0.0,0.0,0.0,0.0,0.0,0.0,0.0,0.0,0.0,0.0,0.0,0.0,0.0,0.0,0.0,0.0,0.0,0.0,0.0,0.0,0.0,0.0,0.0,0.0,0.0,0.0,0.0,0.0,0.0,0.0,0.0,0.0,0.0,0.0,0.0,0.0,0.0,0.0,0.0,0.0,0.0,0.0,0.0,0.0,0.0,0.0,0.0,0.0,0.0,0.0,0.0,0.0,0.0,0.0,0.0,0.0,0.0,0.0,0.0,0.0,0.0,0.0,0.0,0.0,0.0,0.0,0.0,0.0,0.0,0.0,0.0,0.0,0.0,0.0,0.0,0.0,0.0,0.0,0.0,0.0,0.0,0.0,0.0,0.0,0.0,0.0,0.0,0.0,0.0,0.0,0.0,0.0,0.0,0.0,0.0,0.0,0.0,0.0,0.0,0.0,0.0,0.0,0.0,0.0,0.2563,0.1424,-0.0112,-0.0783,-0.0798,0.0,0.0,0.0,0.0,0.0,0.0,0.0,0.0,0.0,0.0,0.0,0.0,0.0,0.0,0.0,0.0,0.0,0.0,0.0,0.0,0.0,0.0,0.0,0.0,0.0,0.0,0.0,0.0,0.0,0.0,0.0,0.0,0.0,0.0,0.0,0.0,0.0,0.0,0.0,0.0,0.0,0.0,0.0,0.0,0.0,0.0,0.0,0.0,0.0,0.0,0.0,0.0,0.0,0.0,0.0,0.0,0.0,0.0,0.0,0.0,0.0,0.0,0.0,0.0,0.0,0.0,0.0,0.0,0.0,0.0,0.0,0.0,0.0,0.0,0.0,0.0,0.0,0.0,0.0,0.0,0.0,0.0,0.0,0.0,0.0,0.0,0.0,0.0,0.0,0.0,0.0,0.0,0.0,0.0,0.0,0.0,0.0,0.0,0.0,0.0,0.0,0.0,0.0,0.0,0.0,0.0,0.0,0.0,0.0,0.3457,0.1718,0.0307,-0.0671,-0.0978,-0.0981,0.0,0.0,0.0,0.0,0.0,0.0,0.0,0.0,0.0,0.0,0.0,0.0,0.0,0.0,0.0,0.0,0.0,0.0,0.0,0.0,0.0,0.0,0.0,0.0,0.0,0.0,0.0,0.0,0.0,0.0,0.0,0.0,0.0,0.0,0.0,0.0,0.0,0.0,0.0,0.0,0.0,0.0,0.0,0.0,0.0,0.0,0.0,0.0,0.0,0.0,0.0,0.0,0.0,0.0,0.0,0.0,0.0,0.0,0.0,0.0,0.0,0.0,0.0,0.0,0.0,0.0,0.0,0.0,0.0,0.0,0.0,0.0,0.0,0.0,0.0,0.0,0.0,0.0,0.0,0.0,0.0,0.0,0.0,0.0,0.0,0.0,0.0,0.0,0.0,0.0,0.0,0.0,0.0,0.0,0.0,0.0,0.0,0.0,0.0,0.0,0.0,0.0,0.0,0.0,0.0,0.0,0.0,0.0,0.0,0.3372,0.0,0.0675,0.0,-0.0391,-0.0487,0.0,0.0,0.0,0.0,0.0,0.0,0.0,0.0,0.0,0.0,0.0,0.0,0.0,0.0,0.0,0.0,0.0,0.0,0.0,0.0,0.0,0.0,0.0,0.0,0.0,0.0,0.0,0.0,0.0,0.0,0.0,0.0,0.0,0.0,0.0,0.0,0.0,0.0,0.0,0.0,0.0,0.0,0.0,0.0,0.0,0.0,0.0,0.0,0.0,0.0,0.0,0.0,0.0,0.0,0.0,0.0,0.0,0.0,0.0,0.0,0.0,0.0,0.0,0.0,0.0,0.0,0.0,0.0,0.0,0.0,0.0,0.0,0.0,0.0,0.0,0.0,0.0,0.0,0.0,0.0,0.0,0.0,0.0,0.0,0.0,0.0,0.0,0.0,0.0,0.0,0.0,0.0,0.0,0.0,0.0,0.0,0.0,0.0,0.0,0.0,0.0,0.0,0.0,0.0,0.0,0.0,0.0,0.0,0.0,0.3403,0.3449,0.2674,0.1175,0.1062,0.0732,0.0,0.0,0.0,0.0,0.0,0.0,0.0,0.0,0.0,0.0,0.0,0.0,0.0,0.0,0.0,0.0,0.0,0.0,0.0,0.0,0.0,0.0,0.0,0.0,0.0,0.0,0.0,0.0,0.0,0.0,0.0,0.0,0.0,0.0,0.0,0.0,0.0,0.0,0.0,0.0,0.0,0.0,0.0,0.0,0.0,0.0,0.0,0.0,0.0,0.0,0.0,0.0,0.0,0.0,0.0,0.0,0.0,0.0,0.0,0.0,0.0,0.0,0.0,0.0,0.0,0.0,0.0,0.0,0.0,0.0,0.0,0.0,0.0,0.0,0.0,0.0,0.0,0.0,0.0,0.0,0.0,0.0,0.0,0.0,0.0,0.0,0.0,0.0,0.0,0.0,0.0,0.0,0.0,0.0,0.0,0.0,0.0,0.0,0.0,0.0,0.0,0.0,0.0,0.0,0.0,0.0,0.0,0.0,0.0,0.3428,0.338,0.2902,0.1899,0.1368,0.0985,0.0,0.0,0.0,0.0,0.0,0.0,0.0,0.0,0.0,0.0,0.0,0.0,0.0,0.0,0.0,0.0,0.0,0.0,0.0,0.0,0.0,0.0,0.0,0.0,0.0,0.0,0.0,0.0,0.0,0.0,0.0,0.0,0.0,0.0,0.0,0.0,0.0,0.0,0.0,0.0,0.0,0.0,0.0,0.0,0.0,0.0,0.0,0.0,0.0,0.0,0.0,0.0,0.0,0.0,0.0,0.0,0.0,0.0,0.0,0.0,0.0,0.0,0.0,0.0,0.0,0.0,0.0,0.0,0.0,0.0,0.0,0.0,0.0,0.0,0.0,0.0,0.0,0.0,0.0,0.0,0.0,0.0,0.0,0.0,0.0,0.0,0.0,0.0,0.0,0.0,0.0,0.0,0.0,0.0,0.0,0.0,0.0,0.0,0.0,0.0,0.0,0.0,0.0,0.0,0.0,0.0,0.0,0.0,0.0,0.3873,0.3763,0.3372,0.2647,0.2204,0.1675,0.1116,0.0,0.0,0.0,0.0,0.0,0.0,0.0,0.0,0.0,0.0,0.0,0.0,0.0,0.0,0.0,0.0,0.0,0.0,0.0,0.0,0.0,0.0,0.0,0.0,0.0,0.0,0.0,0.0,0.0,0.0,0.0,0.0,0.0,0.0,0.0,0.0,0.0,0.0,0.0,0.0,0.0,0.0,0.0,0.0,0.0,0.0,0.0,0.0,0.0,0.0,0.0,0.0,0.0,0.0,0.0,0.0,0.0,0.0,0.0,0.0,0.0,0.0,0.0,0.0,0.0,0.0,0.0,0.0,0.0,0.0,0.0,0.0,0.0,0.0,0.0,0.0,0.0,0.0,0.0,0.0,0.0,0.0,0.0,0.0,0.0,0.0,0.0,0.0,0.0,0.0,0.0,0.0,0.0,0.0,0.0,0.0,0.0,0.0,0.0,0.0,0.0,0.0,0.0,0.0,0.0,0.0,0.0,0.0,0.457,0.4515,0.4125,0.34,0.3372,0.269,0.0,0.0,0.0,0.0,0.0,0.0,0.0,0.0,0.0,0.0,0.0,0.0,0.0,0.0,0.0,0.0,0.0,0.0,0.0,0.0,0.0,0.0,0.0,0.0,0.0,0.0,0.0,0.0,0.0,0.0,0.0,0.0,0.0,0.0,0.0,0.0,0.0,0.0,0.0,0.0,0.0,0.0,0.0,0.0,0.0,0.0,0.0,0.0,0.0,0.0,0.0,0.0,0.0,0.0,0.0,0.0,0.0,0.0,0.0,0.0,0.0,0.0,0.0,0.0,0.0,0.0,0.0,0.0,0.0,0.0,0.0,0.0,0.0,0.0,0.0,0.0,0.0,0.0,0.0,0.0,0.0,0.0,0.0,0.0,0.0,0.0,0.0,0.0,0.0,0.0,0.0,0.0,0.0,0.0,0.0,0.0,0.0,0.0,0.0,0.0,0.0,0.0,0.0,0.0,0.0,0.0,0.0,0.0,0.0,0.5246,0.4759,0.4405,0.4184,0.3622,0.2888,0.0,0.0,0.0,0.0,0.0,0.0,0.0,0.0,0.0,0.0,0.0,0.0,0.0,0.0,0.0,0.0,0.0,0.0,0.0,0.0,0.0,0.0,0.0,0.0,0.0,0.0,0.0,0.0,0.0,0.0,0.0,0.0,0.0,0.0,0.0,0.0,0.0,0.0,0.0,0.0,0.0,0.0,0.0,0.0,0.0,0.0,0.0,0.0,0.0,0.0,0.0,0.0,0.0,0.0,0.0,0.0,0.0,0.0,0.0,0.0,0.0,0.0,0.0,0.0,0.0,0.0,0.0,0.0,0.0,0.0,0.0,0.0,0.0,0.0,0.0,0.0,0.0,0.0,0.0,0.0,0.0,0.0,0.0,0.0,0.0,0.0,0.0,0.0,0.0,0.0,0.0,0.0,0.0,0.0,0.0,0.0,0.0,0.0,0.0,0.0,0.0,0.0,0.0,0.0,0.0,0.0,0.0,0.0,0.5779,0.5432,0.4832,0.446,0.4399,0.4012,0.3289,0.0,0.0,0.0,0.0,0.0,0.0,0.0,0.0,0.0,0.0,0.0,0.0,0.0,0.0,0.0,0.0,0.0,0.0,0.0,0.0,0.0,0.0,0.0,0.0,0.0,0.0,0.0,0.0,0.0,0.0,0.0,0.0,0.0,0.0,0.0,0.0,0.0,0.0,0.0,0.0,0.0,0.0,0.0,0.0,0.0,0.0,0.0,0.0,0.0,0.0,0.0,0.0,0.0,0.0,0.0,0.0,0.0,0.0,0.0,0.0,0.0,0.0,0.0,0.0,0.0,0.0,0.0,0.0,0.0,0.0,0.0,0.0,0.0,0.0,0.0,0.0,0.0,0.0,0.0,0.0,0.0,0.0,0.0,0.0,0.0,0.0,0.0,0.0,0.0,0.0,0.0,0.0,0.0,0.0,0.0,0.0,0.0,0.0,0.0,0.0,0.0,0.0,0.0,0.0,0.0,0.0,0.0,0.0,0.6238,0.541,0.4815,0.4395,0.4204,0.4389,0.376,0.0,0.0,0.0,0.0,0.0,0.0,0.0,0.0,0.0,0.0,0.0,0.0,0.0,0.0,0.0,0.0,0.0,0.0,0.0,0.0,0.0,0.0,0.0,0.0,0.0,0.0,0.0,0.0,0.0,0.0,0.0,0.0,0.0,0.0,0.0,0.0,0.0,0.0,0.0,0.0,0.0,0.0,0.0,0.0,0.0,0.0,0.0,0.0,0.0,0.0,0.0,0.0,0.0,0.0,0.0,0.0,0.0,0.0,0.0,0.0,0.0,0.0,0.0,0.0,0.0,0.0,0.0,0.0,0.0,0.0,0.0,0.0,0.0,0.0,0.0,0.0,0.0,0.0,0.0,0.0,0.0,0.0,0.0,0.0,0.0,0.0,0.0,0.0,0.0,0.0,0.0,0.0,0.0,0.0,0.0,0.0,0.0,0.0,0.0,0.0,0.0,0.0,0.0,0.0,0.0,0.0,0.0,0.0,0.6451,0.6139,0.5081,0.4419,0.4227,0.4385,0.3506,0.0,0.0,0.0,0.0,0.0,0.0,0.0,0.0,0.0,0.0,0.0,0.0,0.0,0.0,0.0,0.0,0.0,0.0,0.0,0.0,0.0,0.0,0.0,0.0,0.0,0.0,0.0,0.0,0.0,0.0,0.0,0.0,0.0,0.0,0.0,0.0,0.0,0.0,0.0,0.0,0.0,0.0,0.0,0.0,0.0,0.0,0.0,0.0,0.6281,0.0,0.0,0.0,0.0,0.0,0.0,0.0,0.0,0.0,0.0,0.0,0.0,0.0,0.0,0.0,0.0,0.0,0.0,0.0,0.0,0.0,0.0,0.0,0.0,0.0,0.0,0.0,0.0,0.0,0.0,0.0,0.0,0.0,0.0,0.0,0.0,0.0,0.0,0.0,0.0,0.0,0.0,0.0,0.0,0.0,0.0,0.0,0.0,0.0,0.0,0.0,0.0,0.0,0.0,0.0,0.0,0.0,0.0,0.0,0.7203,0.6422,0.548,0.4714,0.4233,0.4385,0.3591,0.0,0.0,0.0,0.0,0.0,0.0,0.0,0.0,0.0,0.0,0.0,0.0,0.0,0.0,0.0,0.0,0.0,0.0,0.0,0.0,0.0,0.0,0.0,0.0,0.0,0.0,0.0,0.0,0.0,0.0,0.0,0.0,0.0,0.0,0.0,0.0,0.0,0.0,0.0,0.0,0.0,0.0,0.0,0.0,0.0,0.0,0.0,0.0,0.0,0.0,0.0,0.0,0.0,0.0,0.0,0.0,0.0,0.0,0.0,0.0,0.0,0.0,0.0,0.0,0.0,0.0,0.0,0.0,0.0,0.0,0.0,0.0,0.0,0.0,0.0,0.0,0.0,0.0,0.0,0.0,0.0,0.0,0.0,0.0,0.0,0.0,0.0,0.0,0.0,0.0,0.0,0.0,0.0,0.0,0.0,0.0,0.0,0.0,0.0,0.0,0.0,0.0,0.0,0.0,0.0,0.0,0.0,0.9129,0.7976,0.6473,0.5793,0.5027,0.4069,0.4334,0.3677,0.0,0.0,0.0,0.0,0.0,0.0,0.0,0.0,0.0,0.0,0.0,0.0,0.0,0.0,0.0,0.0,0.0,0.0,0.0,0.0,0.0,0.0,0.0,0.0,0.0,0.0,0.0,0.0,0.0,0.0,0.0,0.0,0.0,0.0,0.0,0.0,0.0,0.0,0.0,1.3893,1.1711,0.0,0.0,0.0,0.0,0.0,0.0,0.0,0.0,0.6463,0.0,0.0,0.0,0.0,0.0,0.0,0.0,0.0,0.0,0.0,0.0,0.0,0.0,0.0,0.0,0.0,0.0,0.0,0.0,0.0,0.0,0.0,0.0,0.0,0.0,0.0,0.0,0.0,0.0,0.0,0.0,0.0,0.0,0.0,0.0,0.0,0.0,0.0,0.0,0.0,0.0,0.0,0.0,0.0,0.0,0.0,0.0,0.0,0.0,0.0,0.0,0.0,0.0,0.0,0.0,0.0,1.0636,0.9356,0.795,0.6442,0.5819,0.4807,0.3377,0.4083,0.3199,0.0556,0.0,0.0,0.0,0.0,0.0,0.0,0.0,0.0,0.0,0.0,0.0,0.0,0.0,0.0,0.0,0.0,0.0,0.0,0.0,0.0,0.0,0.0,0.0,0.0,0.0,0.0,0.0,0.0,0.0,0.0,0.0,0.0,0.0,0.0,0.0,0.0,0.0,0.0,0.0,1.317,1.2266,0.0,0.0,0.0,0.0,0.0,0.0,0.0,0.0,0.7139,0.0,0.0,0.0,0.0,0.0,0.0,0.0,0.0,0.0,0.0,0.0,0.0,0.0,0.0,0.0,0.0,0.0,0.0,0.0,0.0,0.0,0.0,0.0,0.0,0.0,0.0,0.0,0.0,0.0,0.0,0.0,0.0,0.0,0.0,0.0,0.0,0.0,0.0,0.0,0.0,0.0,0.0,0.0,0.0,0.0,0.0,0.0,0.0,0.0,0.0,0.0,0.0,0.0,0.0,0.0,1.1316,1.0307,0.889,0.7084,0.6406,0.5368,0.3872,0.3899,0.2864,0.0,0.0,0.0,0.0,0.0,0.0,0.0,0.0,0.0,0.0,0.0,0.0,0.0,0.0,0.0,0.0,0.0,0.0,0.0,0.0,0.0,0.0,0.0,0.0,0.0,0.0,0.0,0.0,0.0,0.0,0.0,0.0,0.0,0.0,0.0,0.0,0.0,0.0,0.0,0.0,1.4063,1.3302,1.156,0.0,0.0,0.0,0.0,0.0,0.0,0.9369,0.8964,0.0,0.0,0.0,0.0,0.0,0.0,0.0,0.0,0.0,0.0,0.0,0.0,0.0,0.0,0.0,0.0,0.0,0.0,0.0,0.0,0.0,0.0,0.0,0.0,0.0,0.0,0.0,0.0,0.0,0.0,0.0,0.0,0.0,0.0,0.0,0.0,0.0,0.0,0.0,0.0,0.0,0.0,0.0,0.0,0.0,0.0,0.0,0.0,0.0,0.0,0.0,0.0,0.0,0.0,0.0,1.1814,1.1141,0.9846,0.7897,0.7165,0.6068,0.4536,0.4036,0.297,0.0,0.0,0.0,0.0,0.0,0.0,0.0,0.0,0.0,0.0,0.0,0.0,0.0,0.0,0.0,0.0,0.0,0.0,0.0,0.0,0.0,0.0,0.0,0.0,0.0,0.0,0.0,0.0,0.0,0.0,0.0,0.0,0.0,0.0,0.0,0.0,0.0,0.0,0.0,0.0,0.0,1.4558,1.2653,1.373,0.0,0.0,0.0,0.0,1.1492,1.0964,0.0,0.0,0.0,0.0,0.0,0.0,0.0,0.0,0.0,0.0,0.0,0.0,0.0,0.0,0.0,0.0,0.0,0.0,0.0,0.0,0.0,0.0,0.0,0.0,0.0,0.0,0.0,0.0,0.0,0.0,0.0,0.0,0.0,0.0,0.0,0.0,0.0,0.0,0.0,0.0,0.0,0.0,0.0,0.0,0.0,0.0,0.0,0.0,0.0,0.0,0.0,0.0,0.0,0.0,0.0,0.0,1.1814,1.1141,1.0077,0.8646,0.7913,0.6568,0.4484,0.496,0.3957,0.0,0.0,0.0,0.0,0.0,0.0,0.0,0.0,0.0,0.0,0.0,0.0,0.0,0.0,0.0,0.0,0.0,0.0,0.0,0.0,0.0,0.0,0.0,0.0,0.0,0.0,0.0,0.0,0.0,0.0,0.0,0.0,0.0,0.0,0.0,0.0,0.0,0.0,0.0,0.0,0.0,1.7237,1.4634,1.5278,1.5914,0.0,0.0,0.0,1.4122,1.2919,0.0,0.0,0.0,0.0,0.0,0.0,0.0,0.0,0.0,0.0,0.0,0.0,0.0,0.0,0.0,0.0,0.0,0.0,0.0,0.0,0.0,0.0,0.0,0.0,0.0,0.0,0.0,0.0,0.0,0.0,0.0,0.0,0.0,0.0,0.0,0.0,0.0,0.0,0.0,0.0,0.0,0.0,0.0,0.0,0.0,0.0,0.0,0.0,0.0,0.0,0.0,0.0,0.0,0.0,0.0,1.3084,1.2452,1.211,1.1273,0.9936,0.9212,0.7996,0.626,0.6116,0.5108,0.0,0.0,0.0,0.0,0.0,0.0,0.0,0.0,0.0,0.0,0.0,0.0,0.0,0.0,0.0,0.0,0.0,0.0,0.0,0.0,0.0,0.0,0.0,0.0,0.0,0.0,0.0,0.0,0.0,0.0,0.0,0.0,0.0,0.0,0.0,0.0,0.0,0.0,0.0,0.0,0.0,0.0,1.5207,1.6227,0.0,0.0,0.0,1.5971,1.5999,0.0,0.0,0.0,0.0,0.0,0.0,0.0,0.0,0.0,0.0,0.0,0.0,0.0,0.0,0.0,0.0,0.0,0.0,0.0,0.0,0.0,0.0,0.0,0.0,0.0,0.0,0.0,0.0,0.0,0.0,0.0,0.0,0.0,0.0,0.0,0.0,0.0,0.0,0.0,0.0,0.0,0.0,0.0,0.0,0.0,0.0,0.0,0.0,0.0,0.0,0.0,0.0,0.0,0.0,0.0,0.0,0.0,1.3358,1.313,1.2469,1.1347,1.0563,0.9537,0.8174,0.7585,0.0,0.0,0.0,0.0,0.0,0.0,0.0,0.0,0.0,0.0,0.0,0.0,0.0,0.0,0.0,0.0,0.0,0.0,0.0,0.0,0.0,0.0,0.0,0.0,0.0,0.0,0.0,0.9697,0.0,0.0,0.0,0.0,0.0,0.0,0.0,0.0,0.0,0.0,0.0,0.0,0.0,0.0,1.7295,1.5975,1.7136,1.7947,0.0,0.0,1.781,1.7469,1.7281,1.7104,0.0,0.0,0.0,0.0,0.0,0.0,0.0,0.0,0.0,0.0,0.0,0.0,0.0,0.0,0.0,0.0,0.0,0.0,0.0,0.0,0.0,0.0,0.0,0.0,0.0,0.0,0.0,0.0,0.0,0.0,0.0,0.0,0.0,0.0,0.0,0.0,0.0,0.0,0.0,0.0,0.0,0.0,0.0,0.0,0.0,0.0,0.0,0.0,0.0,0.0,0.0,0.0,0.0,0.0,0.0,1.4537,1.3961,1.3341,1.2667,1.1957,1.0914,0.9596,0.9486,0.884,0.0,0.0,0.0,0.0,0.0,0.0,0.0,0.0,0.0,0.0,0.0,0.0,0.0,0.0,0.0,0.0,0.0,0.0,0.0,0.0,0.0,0.0,0.0,0.0,0.0,0.0,0.0,0.0,0.0,0.0,0.0,0.0,0.0,0.0,0.0,0.0,0.0,0.0,0.0,0.0,0.0,1.9053,1.7561,1.8262,1.9083,0.0,0.0,1.8045,1.8516,1.8024,1.7458,1.7074,0.0,0.0,0.0,0.0,0.0,0.0,0.0,0.0,0.0,0.0,0.0,0.0,0.0,0.0,0.0,0.0,0.0,0.0,0.0,0.0,0.0,0.0,0.0,0.0,0.0,0.0,0.0,0.0,0.0,0.0,0.0,0.0,0.0,0.0,0.0,0.0,0.0,0.0,0.0,0.0,0.0,0.0,0.0,0.0,0.0,0.0,0.0,0.0,0.0,0.0,0.0,0.0,0.0,1.4948,1.5207,1.5295,1.5082,1.446,1.3848,1.2926,1.1628,1.1594,1.0756,0.0,0.0,0.0,0.0,0.0,0.0,0.0,0.0,0.0,0.0,0.0,0.0,0.0,0.0,0.0,0.0,0.0,0.0,0.0,0.0,0.0,0.0,0.0,0.0,0.0,0.0,0.0,0.0,1.2505,1.2992,1.4171,0.0,0.0,0.0,0.0,0.0,0.0,0.0,0.0,0.0,0.0,1.9221,1.8946,1.9271,0.0,0.0,2.0152,1.9695,1.9916,1.9687,1.9466,1.9369,1.9548,0.0,0.0,0.0,0.0,0.0,0.0,0.0,0.0,0.0,0.0,0.0,0.0,0.0,0.0,0.0,0.0,0.0,0.0,0.0,0.0,0.0,0.0,0.0,0.0,0.0,0.0,0.0,0.0,0.0,0.0,0.0,0.0,0.0,0.0,0.0,0.0,0.0,0.0,0.0,0.0,0.0,0.0,0.0,0.0,0.0,0.0,0.0,0.0,0.0,0.0,0.0,0.0,1.5944,1.6239,1.6867,1.6803,1.6,1.5462,1.4619,1.3409,1.3372,1.259,0.0,0.0,0.0,0.0,0.0,0.0,0.0,0.0,0.0,0.0,0.0,0.0,0.0,0.0,0.0,0.0,0.0,0.0,0.0,0.0,0.0,0.0,0.0,0.0,0.0,0.0,0.0,0.0,1.3456,1.4105,1.5463,0.0,0.0,0.0,0.0,0.0,0.0,0.0,0.0,0.0,0.0,1.972,2.0139,2.0277,2.0806,2.1986,2.168,2.1381,2.1576,2.1785,2.1826,2.1706,0.0,0.0,0.0,0.0,0.0,0.0,0.0,0.0,0.0,0.0,0.0,0.0,0.0,0.0,0.0,0.0,0.0,0.0,0.0,0.0,0.0,0.0,0.0,0.0,0.0,0.0,0.0,0.0,0.0,0.0,0.7551,0.0,0.0,0.0,0.0,0.0,0.0,0.0,0.0,0.0,0.0,0.0,0.0,0.0,0.0,0.0,0.0,0.0,0.0,0.0,0.0,0.0,0.0,0.0,1.7944,1.8651,1.8385,1.7121,1.6612,1.5828,1.471,1.4675,1.432,1.359,0.0,0.0,0.0,0.0,0.0,0.0,0.0,0.0,0.0,0.0,0.0,0.0,0.0,0.0,0.0,0.0,0.0,0.0,0.0,0.0,0.0,0.0,0.0,0.0,0.0,0.0,1.3807,1.4342,1.4926,0.0,0.0,0.0,0.0,0.0,0.0,0.0,0.0,0.0,0.0,2.051,2.09,2.106,2.1421,2.2118,2.347,2.3083,2.2895,2.3529,2.4147,2.4394,0.0,0.0,0.0,0.0,0.0,0.0,0.0,0.0,0.0,0.0,0.0,0.0,0.0,0.0,0.0,0.0,0.0,0.0,0.0,0.0,0.0,0.0,0.0,0.0,0.0,0.0,0.0,0.6462,0.6997,0.0,0.0,0.0,0.0,0.0,0.0,0.0,0.0,0.0,0.0,0.0,1.7771,1.7854,0.0,0.0,0.0,0.0,0.0,0.0,0.0,0.0,0.0,0.0,0.0,0.0,1.8645,1.9623,1.9991,1.971,1.8782,1.7944,1.699,1.586,1.5828,1.5364,1.4389,0.0,0.0,0.0,0.0,0.0,0.0,0.0,0.0,0.0,0.0,0.0,0.0,0.0,0.0,0.0,0.0,0.0,0.0,0.0,0.0,0.0,0.0,0.0,0.0,0.0,1.4109,0.0,0.0,0.0,0.0,0.0,0.0,0.0,0.0,0.0,0.0,0.0,2.0161,2.0548,2.1079,2.1778,2.2692,2.2556,2.3045,0.0,0.0,0.0,0.0,0.0,0.0,0.0,0.0,0.0,0.0,0.0,0.0,0.0,0.0,2.8704,2.4736,2.4137,2.4266,2.4266,0.0,0.0,0.0,0.0,0.0,0.0,0.0,0.0,0.0,0.0,0.0,0.0,0.0,0.0,0.0,0.0,1.0751,0.0,0.0,0.0,0.0,0.0,0.0,0.0,0.0,2.0445,2.0906,2.0798,2.0718,2.0352,0.0,1.867,1.7144,0.0,0.0,0.0,0.0,0.0,0.0,0.0,0.0,1.9701,2.0494,2.1012,2.0743,1.9615,1.8793,1.794,1.7011,1.6815,1.6262,1.5309,1.4123,1.3277,0.0,0.0,0.0,0.0,0.0,0.0,0.0,0.0,0.0,0.0,0.0,0.0,0.0,0.0,0.0,0.0,0.0,0.0,0.0,0.0,0.0,0.0,0.0,1.4903,0.0,0.0,0.0,0.0,0.0,0.0,0.0,0.0,0.0,2.0213,2.1148,2.1978,2.2189,2.2706,2.3378,2.4241,0.0,0.0,0.0,0.0,0.0,0.0,0.0,2.6601,2.7489,2.7644,2.7792,2.8211,2.937,3.0118,2.9669,0.0,0.0,2.7592,2.709,2.718,2.7189,2.7753,2.8197,2.7988,2.8464,2.884,0.0,0.0,0.0,0.0,0.0,0.0,0.0,0.0,1.1817,1.2277,0.0,1.2905,0.0,0.0,0.0,0.0,0.0,0.0,0.0,0.0,2.2888,2.369,2.4127,2.3089,2.2568,2.253,2.1918,2.108,1.9897,1.6993,0.0,0.0,0.0,0.0,0.0,0.0,2.0197,2.0644,2.1806,2.1498,1.9684,1.9177,1.8684,1.8131,1.7585,1.7016,1.6421,1.5342,1.4181,1.2946,1.1594,0.0,0.0,0.0,0.0,0.0,0.0,0.0,0.0,0.0,0.0,0.0,0.0,0.0,0.0,0.0,0.0,0.0,0.0,0.0,0.0,1.5276,0.0,0.0,0.0,0.0,0.0,0.0,0.0,0.0,0.0,0.0,2.2306,2.3083,2.407,2.4626,0.0,0.0,0.0,0.0,2.586,2.6542,2.6617,2.7056,2.8401,2.9116,2.952,2.9624,0.0,0.0,2.9849,3.0658,3.1077,2.9909,3.0761,3.1735,3.2273,3.1664,3.1353,3.1409,3.1412,3.1308,3.0796,3.0945,3.1184,1.8582,0.0,0.0,0.0,0.0,1.4825,1.5412,1.6569,1.6679,1.6921,1.7259,1.7117,0.0,0.0,0.0,0.0,0.0,0.0,2.2758,2.4065,2.485,2.5312,2.5456,2.4756,2.4215,2.383,2.2862,2.226,2.1851,2.0552,1.8805,1.6791,0.0,0.0,0.0,0.0,2.2371,2.2391,2.2746,2.2035,2.0126,1.9699,1.9207,1.8688,1.8131,1.7612,1.7071,1.6327,1.5574,1.4801,1.3141,0.0,0.0,0.0,0.0,0.0,0.0,0.0,0.0,0.0,0.0,0.0,0.0,0.0,0.0,0.0,0.0,0.0,0.0,0.0,1.532,1.6232,1.7135,0.0,0.0,0.0,0.0,0.0,0.0,0.0,0.0,0.0,2.5271,2.5136,2.5141,0.0,0.0,2.5779,2.6258,2.6318,2.6542,2.7225,0.0,0.0,0.0,2.9056,2.9355,3.0718,3.1256,3.1376,3.1017,3.1256,3.1391,3.0987,3.163,3.2273,3.2422,3.2348,3.2378,3.2796,3.2945,3.2885,3.2691,3.2422,3.2153,2.2376,2.1472,1.9978,1.8951,1.8345,1.8363,1.8865,1.9648,1.9677,1.9827,1.9987,1.9801,1.9535,1.9356,1.9799,0.0,0.0,0.0,2.4426,2.5408,2.5803,2.5995,2.5943,2.524,2.4697,2.4369,2.35,2.3054,2.3054,2.2651,2.1431,1.951,0.0,0.0,2.1504,2.2561,2.2906,2.2571,2.2781,2.1963,2.0118,1.9836,1.9548,1.9225,1.8708,1.8263,1.7913,1.6928,1.6262,1.5915,1.4402,1.3538,0.0,0.0,0.0,0.0,0.0,0.0,0.0,0.0,0.0,0.0,0.0,1.4537,0.0,0.0,0.0,0.0,1.5945,1.6352,1.693,1.7848,0.0,0.0,0.0,0.0,0.0,0.0,0.0,2.5433,2.6063,2.6422,2.6572,2.6482,2.6393,2.6393,2.6393,2.6527,2.6956,0.0,2.7151,2.754,2.7585,2.7974,2.9011,2.9086,2.9579,3.1241,3.1496,3.1496,3.1496,3.1496,3.1496,3.154,3.1824,3.2183,3.2437,3.2497,3.2721,3.3365,3.3633,3.3633,3.3215,3.2991,3.2781,2.4896,2.5167,2.2753,2.1421,2.0911,2.1517,2.1767,2.1763,2.1305,2.1397,2.182,2.1328,2.1105,2.1181,2.225,0.0,0.0,2.54,2.5908,2.5943,2.5924,2.5924,2.5888,2.4875,2.4425,2.4389,2.3858,2.3595,2.3573,2.353,2.3253,2.2736,2.1597,2.1606,2.2685,2.2742,2.2405,2.1794,2.2202,2.1526,1.9771,1.9723,1.9723,1.969,1.9188,1.8893,1.8855,1.7389,1.6528,1.6506,1.5453,1.4835,1.4835,0.0,0.0,0.0,0.0,0.0,0.0,0.0,0.0,0.0,0.0,0.0,0.0,0.0,0.0,0.0,1.7341,0.0,1.9114,1.9768,0.0,0.0,0.0,2.2512,2.3641,2.4911,2.5689,2.5689,0.0,0.0,0.0,0.0,2.7585,2.7585,2.7585,2.7585,2.7585,2.757,2.7585,2.7585,2.7585,2.7839,2.8562,2.9205,3.0043,3.1137,3.1466,3.1496,3.1496,3.1496,3.1496,3.1496,3.1496,3.1675,3.2332,3.2363,3.2632,3.326,3.3826,3.3885,3.305,3.314,3.308,2.401,2.3333,2.2718,2.2662,2.2923,2.2591,2.2475,2.2506,2.2826,2.304,2.3135,2.301,2.2951,2.2995,2.3675,2.4102,2.4384,2.507,2.5408,2.5392,2.5392,2.5392,2.5354,2.4697,2.4425,2.4384,2.3858,2.3595,2.3573,2.3157,2.3069,2.3321,2.2635,2.2586,2.3229,2.3733,2.3399,2.224,2.2341,2.1523,1.9786,1.9723,1.9723,1.969,1.9188,1.8893,1.8893,1.8137,1.7679,1.7659,1.6621,1.599,1.6003,1.562,0.0,0.0,0.0,0.0,0.0,0.0,0.0,0.0,0.0,1.5833,1.5411,0.0,1.6489,0.0,1.8157,1.9185,1.9807,2.0366,0.0,0.0,2.2878,2.371,2.4978,2.5854,2.6348,2.6363,2.7106,2.754,2.7375,2.7495,2.7585,2.7585,2.7585,2.7585,2.7585,2.7585,2.7585,2.7585,2.7585,2.7839,2.8547,2.9564,3.0372,3.0702,3.1152,3.1496,3.1496,3.1496,3.1496,3.1496,3.1496,3.1585,3.172,3.1735,3.1989,3.2647,3.3634,3.4367,3.4084,3.3739,3.3245,2.3891,2.3076,2.2807,2.2758,2.2781,2.2418,2.2239,2.23,2.2942,2.3201,2.3209,2.3471,2.3745,2.397,2.4266,2.4516,2.4772,2.5051,2.5026,2.4756,2.4512,2.4397,2.4393,2.3875,2.3654,2.3642,2.3586,2.3319,2.2786,2.2703,2.2725,2.2741,2.2423,2.2396,2.2669,2.3568,2.3549,2.2561,2.195,2.1159,2.0187,1.9839,1.9584,1.935,1.9043,1.8893,1.8893,1.8151,1.7881,1.8033,1.7037,1.645,1.645,1.6395,1.6495,0.0,0.0,0.0,0.0,0.0,0.0,0.0,0.0,0.0,0.0,0.0,1.7743,0.0,2.0071,0.0,2.2024,2.2637,2.3304,2.4033,2.461,2.5226,2.5974,2.6656,2.7046,2.7061,2.7375,2.7585,2.7585,2.7585,2.7585,2.7585,2.7585,2.7585,2.7585,2.7585,2.7585,2.7585,2.7585,2.7944,2.8876,2.9624,3.0298,3.0838,3.1241,3.1496,3.1496,3.1496,3.1496,3.1496,3.1496,3.1496,3.1496,3.1496,3.1705,3.2392,3.3095,3.3544,3.3604,3.332,3.2871,2.4116,2.3428,2.2934,2.2291,2.1592,2.1592,2.1578,2.1625,2.2369,2.274,2.2838,2.3355,2.3858,2.4287,2.4225,2.4435,2.4859,2.4725,2.4342,2.3755,2.339,2.3209,2.319,2.2892,2.2708,2.2725,2.3143,2.2786,2.1744,2.2207,2.2184,2.172,2.1615,2.1639,2.1744,2.2809,2.3109,2.2563,2.1416,2.0823,2.0823,2.0243,1.9701,1.9155,1.9003,1.896,1.8968,1.8055,1.7815,1.8369,1.7559,1.7016,1.6952,1.7392,1.7889,0.0,1.894,0.0,0.0,0.0,0.0,0.0,0.0,0.0,0.0,1.9135,1.9186,2.0767,2.2167,2.3437,2.4482,2.5186,2.5621,2.5734,2.6243,2.6632,2.6722,2.7255,2.7585,2.7585,2.7585,2.7585,2.7585,2.7585,2.7585,2.7585,2.7585,2.7585,2.7585,2.7585,2.7585,2.7585,2.7585,2.8004,2.9082,2.9517,3.0013,3.1047,3.1436,3.1496,3.1496,3.1496,3.1496,3.1496,3.1496,3.1496,3.1496,3.1496,3.169,3.2213,3.2407,3.2452,3.2587,3.2587,3.2273,2.4194,2.2875,2.274,2.2035,2.0979,2.0979,2.0955,2.1053,2.2198,2.2965,2.3421,2.3551,2.3659,2.3709,2.3238,2.3069,2.3113,2.2148,2.1634,2.1534,2.1974,2.2173,2.2196,2.2535,2.2706,2.2672,2.2262,2.1946,2.1697,2.1331,2.1355,2.1673,2.1234,2.1234,0.0,0.0,0.0,0.0,2.1647,2.1515,2.1515,2.14,2.1013,2.0376,1.9532,0.0,1.952,1.9035,1.9218,2.0137,2.0114,0.0,0.0,0.0,0.0,0.0,0.0,0.0,0.0,0.0,0.0,0.0,2.1298,2.0755,2.0172,2.0217,2.0448,2.0833,2.2421,2.3776,2.4442,2.5165,2.5824,2.6348,2.6512,2.6797,2.733,2.7525,2.7585,2.7585,2.7585,2.7585,2.7585,2.7585,2.7585,2.7585,2.7585,2.7585,2.7585,2.7585,2.7585,2.76,2.7645,2.7914,2.8652,2.928,2.9879,3.0582,3.1167,3.1466,3.1496,3.1496,3.1496,3.1496,3.1496,3.1496,3.1496,3.1496,3.1555,3.1675,3.1705,3.1854,3.2363,3.2497,3.2317,2.3582,0.0,2.246,2.2021,0.0,2.1066,2.0809,2.0858,2.1489,2.2114,2.2651,2.2651,2.2674,2.2651,2.2346,2.2193,2.2179,2.13,2.1058,2.129,2.1377,2.1541,2.1816,2.2067,2.2053,2.1775,2.171,2.1363,2.0781,2.0782,2.0782,2.0756,2.0434,2.0459,2.0756,2.1075,2.1407,2.1696,2.1412,2.1262,2.1247,2.0939,2.0463,1.9859,0.0,0.0,0.0,0.0,0.0,0.0,0.0,0.0,0.0,0.0,0.0,2.0486,2.1054,2.1534,2.1809,2.1838,2.2236,2.3157,2.3188,2.2651,2.143,2.2125,2.246,2.2154,2.3281,2.4272,2.4906,2.5607,2.6197,2.6505,2.6867,2.7255,2.7525,2.7585,2.7585,2.7585,2.7585,2.7585,2.7585,2.7585,2.7585,2.7585,2.7585,2.76,2.7585,2.7585,2.7705,2.8034,2.8094,2.8468,2.934,2.9774,3.0253,3.0896,3.1271,3.1466,3.1496,3.1496,3.1496,3.1496,3.1496,3.1496,3.1496,3.1496,3.1496,3.1496,3.1496,3.172,3.2362,3.2497,3.2437,2.2614,2.3172,2.2142,2.1946,2.2267,2.1248,2.0809,2.0809,0.0,0.0,0.0,2.1697,2.1767,2.1875,2.1758,2.1767,2.1824,2.107,2.1035,2.1547,2.1083,2.119,2.1737,2.183,2.1614,2.1175,2.1428,2.1002,2.0029,2.0434,2.0346,1.985,1.9798,1.9798,1.985,2.0346,2.0881,2.1339,2.1101,2.096,2.0946,2.0419,1.9885,1.9317,1.9238,1.9163,1.9148,1.9228,1.9503,2.0023,2.0367,2.0517,2.0405,2.1018,2.1574,2.2024,2.2568,2.3059,2.3562,2.3709,2.4067,2.4713,2.4733,2.407,2.2681,2.3635,2.3998,2.3259,2.3932,2.4587,2.5176,2.5864,2.631,2.631,2.6956,2.7382,2.7408,2.7534,2.7585,2.7585,2.7585,2.7585,2.7585,2.7585,2.7585,2.7585,2.7585,2.766,2.775,2.7824,2.8019,2.8427,2.8622,2.9175,3.0148,3.0447,3.0776,3.1316,3.1481,3.1496,3.1496,3.1496,3.1496,3.1496,3.1496,3.1496,3.1525,3.163,3.1675,3.1675,3.1795,3.2004,3.2527,3.2766,3.2856,2.1408,2.1955,2.1767,2.1448,2.1042,2.087,2.0809,2.0809,2.0809,2.1137,2.1697,2.1697,2.203,2.2521,2.1946,2.2016,2.2446,2.0862,2.0441,0.0,2.0915,2.1242,2.1874,2.2342,2.2517,2.236,2.1417,2.0832,2.0622,2.0169,1.9875,1.9824,1.9798,1.9798,1.9824,1.9901,1.9965,2.008,2.1054,2.1586,2.1586,2.1466,2.1144,2.0575,2.0087,1.98,1.9699,1.9796,2.0134,2.0662,2.173,2.2079,2.1556,2.2548,2.3046,2.2644,2.314,2.3481,2.3513,2.4086,2.471,2.5303,2.5355,2.454,2.2658,2.3069,2.319,2.2611,2.3587,2.4359,2.4481,2.5119,2.5563,2.5605,2.6188,2.6628,2.6695,2.7229,2.756,2.7585,2.7585,2.7585,2.7585,2.7585,2.7585,2.7585,2.766,2.7809,2.8248,2.8472,2.8487,2.8652,2.9086,2.9726,3.0402,3.0507,3.0836,3.1391,3.1496,3.1496,3.1496,3.1496,3.1496,3.1496,3.1496,3.1511,3.1555,3.1989,3.2243,3.2333,3.2721,3.314,3.3335,3.3754,3.3978,1.9726,2.0661,2.0263,2.0543,2.1269,2.093,2.0809,2.0809,2.0809,2.1137,2.1639,2.1366,2.1558,2.21,2.1828,2.1875,2.2095,2.1001,2.0988,2.1838,2.1585,2.1769,2.2321,2.2587,2.2498,2.2137,2.1248,2.0809,2.0759,2.0131,1.9798,1.9798,1.9798,1.9798,1.9798,1.9798,1.9798,1.9798,2.037,2.067,2.0682,2.0682,2.0539,2.024,2.0008,1.9867,1.9812,2.0206,2.0545,2.0772,2.1694,2.202,2.1729,2.2244,2.2454,2.221,2.2709,2.3041,2.3027,2.3921,2.4431,2.4323,2.4641,2.4283,2.2891,2.3425,2.3524,2.285,2.3314,2.3662,2.3649,2.4323,2.4794,2.4794,2.5453,2.6068,2.6457,2.6774,2.7178,2.7509,2.7585,2.7585,2.7585,2.7585,2.7585,2.763,2.7869,2.8263,2.8607,2.9235,2.9624,2.9654,2.9894,3.0328,3.0911,3.1032,3.1182,3.1481,3.1496,3.1496,3.1496,3.1496,3.1496,3.1496,3.1496,3.166,3.1929,3.2258,3.2587,3.3021,3.3245,3.3574,3.3963,3.4562,3.4876,1.7909,1.9378,1.8736,1.9441,2.0962,2.0695,2.0646,2.0784,2.0635,2.0991,2.1592,2.1197,2.1355,2.1899,2.1922,2.1993,2.2039,2.1554,2.1883,2.2788,2.2352,2.2366,2.2854,2.2897,2.2634,2.2109,2.1524,2.1151,2.0955,2.0346,1.9927,1.9824,1.9798,1.9798,1.9798,1.9798,1.9798,1.9798,1.9798,1.9798,1.9798,1.9798,1.9798,1.9798,1.9798,1.9798,1.9824,2.0295,2.0585,2.0597,2.1148,2.1496,2.1534,2.1777,2.1917,2.1959,2.2609,2.3174,2.3505,2.4189,2.4395,2.3844,2.4101,2.3972,2.3288,2.3662,2.3796,2.3215,2.3125,2.3138,2.3215,2.3649,2.4031,2.4047,2.4696,2.5315,2.5906,2.6397,2.6898,2.7502,2.7827,2.8079,2.8049,2.8049,2.8109,2.8214,2.8607,2.8996,2.9146,3.0028,3.0672,3.0731,3.0731,3.0883,3.1421,3.1466,3.1481,3.1496,3.1496,3.1496,3.1496,3.1496,3.1496,3.1525,3.1675,3.1914,3.2407,3.2841,3.317,3.3634,3.3918,3.4188,3.4622,3.507,3.5459,1.6111,1.7684,1.7736,1.8167,1.9046,1.9619,2.0194,2.0684,2.0144,2.0595,2.1625,2.1625,2.196,2.2543,2.2603,2.286,2.3297,2.2794,2.2884,2.3363,2.2884,2.2943,2.3465,2.3508,2.3486,2.3304,2.2748,2.2137,2.1592,2.0979,2.0396,1.9875,1.9798,1.9798,1.9798,1.9798,1.9798,1.9798,1.9798,1.9798,1.9798,1.9798,1.9798,1.9798,1.9798,1.9798,1.9798,1.9862,1.9901,1.9952,2.0535,2.0883,2.101,2.192,2.2517,2.2545,2.3607,2.4862,2.5968,2.5666,2.5177,2.5176,2.4542,2.3956,2.321,2.321,2.3198,2.3158,2.3133,2.3145,2.3108,2.3278,2.3402,2.3487,2.406,2.4436,2.4844,2.626,2.7414,2.7469,2.8559,2.9412,2.9277,2.9262,2.9322,2.9217,2.9684,3.0103,3.0178,3.0763,3.1301,3.1346,3.1376,3.1376,3.1496,3.1496,3.1496,3.1496,3.1496,3.1496,3.1496,3.1525,3.1511,3.175,3.2079,3.2467,3.2841,3.338,3.4234,3.4367,3.4756,3.5265,3.5385,3.5444,3.5489,1.5256,1.6607,1.686,1.7385,1.8058,1.8394,1.9139,2.008,1.9876,2.0481,2.1625,2.1697,2.2077,2.2731,2.3076,2.3377,2.3573,2.3334,2.3377,2.3573,2.3355,2.3377,2.3573,2.3595,2.3595,2.3551,2.2987,2.2558,2.2161,2.1296,2.0446,1.9875,1.9798,1.9798,1.9798,1.9798,1.9798,1.9798,1.9798,1.9798,1.9798,1.9798,1.9798,1.9798,1.9798,1.9798,1.9798,1.9798,1.9962,2.0302,2.0602,2.0912,2.1207,2.2088,2.2613,2.2665,2.3375,2.4242,2.5173,2.4491,2.4047,2.4047,2.3767,2.3564,2.3646,2.3653,2.3735,2.3998,2.3841,2.3766,2.4023,2.4111,2.4098,2.4161,2.4398,2.4774,2.5265,2.645,2.7456,2.7952,2.8935,2.9609,2.9621,2.9621,2.9621,2.9654,3.0118,3.0522,3.0567,3.1062,3.1436,3.1496,3.1496,3.1496,3.1496,3.1496,3.1496,3.1496,3.1496,3.1496,3.1555,3.1884,3.2079,3.2079,3.2677,3.323,3.3694,3.4024,3.4593,3.4876,3.516,3.5489,3.5489,3.5489,3.5489,1.4821,1.5766,1.629,1.6793,1.7302,1.7523,1.817,1.9063,1.9103,1.9788,2.0851,2.1046,2.1544,2.2221,2.3009,2.3355,2.3355,2.3355,2.3341,2.3355,2.3355,2.3253,2.3128,2.3486,2.3598,2.357,2.3369,2.3161,2.2857,2.1857,2.0874,2.0166,2.0049,2.0037,2.0063,2.0063,2.0112,2.025,2.0125,2.0037,2.0049,2.0037,1.9962,1.9823,1.9798,1.9798,1.9811,1.9949,2.0251,2.0693,2.083,2.1176,2.1763,2.2438,2.3058,2.3635,2.4042,2.4517,2.5148,2.4483,2.3946,2.378,2.3688,2.374,2.3978,2.4142,2.4469,2.4876,2.4669,2.4607,2.4713,2.48,2.48,2.482,2.4968,2.5421,2.5906,2.6823,2.7799,2.8512,2.9358,2.9894,3.0063,3.0178,3.0223,3.0268,3.0537,3.0748,3.0836,3.1197,3.1496,3.1496,3.1496,3.1496,3.1496,3.1496,3.1496,3.1496,3.1496,3.157,3.169,3.2228,3.2662,3.2691,3.335,3.3814,3.4174,3.4503,3.4863,3.528,3.5489,3.5489,3.5489,3.5489,3.5489,1.4678,1.5487,1.6197,1.6492,1.6595,1.7246,1.7594,1.7759,1.7731,1.8155,1.8955,1.953,2.0181,2.0906,2.203,2.2717,2.2717,2.274,2.274,2.274,2.2754,2.2406,2.1885,2.3017,2.3615,2.3714,2.4143,2.408,2.3548,2.2868,2.1889,2.0759,2.0721,2.068,2.0654,2.0654,2.0905,2.1232,2.0893,2.0654,2.0654,2.0654,2.0402,1.9949,1.9836,1.9886,1.9911,2.039,2.0691,2.0704,2.1219,2.1801,2.2495,2.312,2.4286,2.5975,2.6277,2.6584,2.7074,2.65,2.5853,2.5354,2.5023,2.4741,2.4374,2.4754,2.5223,2.5577,2.563,2.5421,2.5061,2.5053,2.4971,2.4978,2.558,2.5988,2.6074,2.7342,2.8432,2.9171,2.9885,3.05,3.1215,3.1421,3.1271,3.1256,3.1391,3.1391,3.1346,3.1466,3.1496,3.1496,3.1496,3.1496,3.1496,3.1496,3.1496,3.1496,3.1555,3.172,3.2138,3.2572,3.2916,3.338,3.4008,3.4459,3.4623,3.4861,3.522,3.5489,3.5489,3.5489,3.5489,3.5489,3.5489,1.4667,1.541,1.57,1.5777,1.5835,1.6102,1.6443,1.6905,1.6905,1.7302,1.795,1.8263,1.8493,1.8799,2.018,2.1253,2.1993,2.2077,2.2039,2.2053,2.2039,2.2132,2.2339,2.2762,2.3158,2.3547,2.4225,2.4462,2.433,2.4044,2.3245,2.2127,2.1914,2.1699,2.1289,2.1219,2.1305,2.1483,2.1307,2.1219,2.1219,2.1219,2.1079,2.0891,2.0905,2.0878,2.0878,2.1119,2.137,2.1707,2.192,2.2502,2.3647,2.4778,2.5905,2.6964,2.6774,2.6576,2.6606,2.6034,2.5697,2.587,2.5771,2.5845,2.5955,2.6519,2.6977,2.6935,2.6926,2.681,2.6633,2.6217,2.5908,2.5929,2.6138,2.6385,2.6647,2.7739,2.8827,2.9256,3.0214,3.1219,3.138,3.1496,3.1496,3.1496,3.1496,3.1496,3.1496,3.1496,3.1496,3.1496,3.1496,3.1496,3.1496,3.1496,3.1496,3.1496,3.157,3.1884,3.2273,3.3036,3.3487,3.4195,3.4826,3.5253,3.5454,3.5356,3.5668,3.5619,3.5587,3.5489,3.5489,3.5489,3.5489,1.4903,1.5352,1.542,1.542,1.542,1.542,1.5671,1.6122,1.6151,1.6557,1.7174,1.7246,1.7357,1.7704,1.8587,1.9621,2.0728,2.117,2.14,2.1428,2.1604,2.177,2.2047,2.2581,2.3053,2.3522,2.4371,2.4753,2.4573,2.4573,2.382,2.2541,2.2486,2.2251,2.1842,2.1757,2.182,2.1958,2.1845,2.1744,2.1757,2.1757,2.1757,2.1782,2.1907,2.1832,2.1559,2.1656,2.1907,2.2272,2.2472,2.3193,2.4599,2.6048,2.7132,2.775,2.7682,2.7438,2.7258,2.683,2.6677,2.6824,2.7026,2.7234,2.7395,2.8036,2.8288,2.8171,2.8103,2.8103,2.7953,2.7358,2.6782,2.6624,2.6714,2.6884,2.696,2.8155,2.902,2.9569,3.0615,3.1365,3.1496,3.1496,3.1496,3.1496,3.1496,3.1496,3.1496,3.1496,3.1496,3.1496,3.1496,3.1496,3.16,3.1735,3.166,3.163,3.1944,3.2213,3.2781,3.3517,3.4273,3.5016,3.5581,3.6027,3.6164,3.599,3.5894,3.5846,3.5619,3.5489,3.5489,3.5489,3.5587,1.5381,1.542,1.542,1.542,1.542,1.542,1.542,1.5497,1.5468,1.5892,1.6464,1.6482,1.681,1.7413,1.7594,1.8085,1.8982,2.0105,2.0785,2.0889,2.1312,2.1303,2.1124,2.2511,2.3325,2.3561,2.4722,2.4981,2.4463,2.4423,2.3785,2.2633,2.2528,2.2512,2.2309,2.2392,2.2602,2.2799,2.2594,2.2338,2.2322,2.2322,2.2293,2.2359,2.2744,2.2531,2.1644,2.2058,2.2334,2.2393,2.2794,2.3829,2.5298,2.6676,2.78,2.8535,2.9134,2.9478,2.9414,2.925,2.8764,2.857,2.8885,2.8843,2.8485,2.8816,2.9122,2.902,2.9002,2.9002,2.8876,2.83,2.7469,2.6714,2.7108,2.7384,2.767,2.8441,2.9348,3.0163,3.1058,3.1467,3.1496,3.1496,3.1496,3.1496,3.1585,3.163,3.169,3.1765,3.163,3.163,3.1839,3.2004,3.2004,3.1989,3.1899,3.1884,3.2318,3.2721,3.3502,3.4273,3.511,3.5891,3.6594,3.7025,3.7041,3.689,3.6692,3.6554,3.6101,3.5878,3.6022,3.6133,3.5894,1.542,1.542,1.542,1.542,1.542,1.542,1.542,1.542,1.542,1.5526,1.5729,1.5748,1.5892,1.6169,1.6585,1.7257,1.8015,1.8953,1.9844,2.0614,2.0922,2.1324,2.1847,2.2398,2.3126,2.3949,2.4403,2.4781,2.4979,2.5007,2.4588,2.384,2.3641,2.3363,2.2891,2.3363,2.3566,2.3165,2.3495,2.3421,2.2904,2.2844,2.2844,2.2869,2.302,2.2907,2.2661,2.2769,2.2844,2.2832,2.3007,2.4011,2.5822,2.6987,2.8046,2.914,2.9472,2.9514,2.9404,2.9448,2.9522,2.9666,2.9895,2.9892,2.9786,3.0245,3.0389,3.0025,2.9889,2.9889,2.9822,2.9549,2.8776,2.7469,2.7061,2.7066,2.7369,2.8287,2.9566,3.0837,3.1351,3.1467,3.1511,3.154,3.16,3.1615,3.1899,3.2168,3.2213,3.2497,3.2871,3.2886,3.2886,3.2706,3.2736,3.2826,3.2871,3.2781,3.3021,3.3427,3.4182,3.514,3.5965,3.6859,3.7549,3.7892,3.7863,3.769,3.7499,3.7381,3.713,3.7025,3.7011,3.6829,3.6538,1.542,1.542,1.542,1.542,1.542,1.542,1.542,1.542,1.542,1.542,1.542,1.541,1.542,1.5497,1.5902,1.651,1.723,1.7961,1.9,2.0249,2.0876,2.1468,2.2284,2.2518,2.2968,2.3673,2.3855,2.4076,2.4525,2.4525,2.4295,2.3914,2.3855,2.359,2.3168,2.3573,2.3573,2.3215,2.3573,2.3603,2.3185,2.3095,2.3095,2.3125,2.3395,2.3365,2.3168,2.3542,2.3598,2.3256,2.3296,2.4498,2.6485,2.7384,2.8409,2.9572,2.9913,2.9941,3.0046,2.9929,3.0,3.0571,3.0748,3.0748,3.0837,3.1278,3.1249,3.1189,3.1158,3.1231,3.1387,3.1057,3.035,2.9506,2.8519,2.7999,2.8319,2.9366,3.068,3.1915,3.2273,3.2153,3.1944,3.2138,3.2079,3.2049,3.2467,3.2751,3.2811,3.3125,3.344,3.3605,3.3425,3.3365,3.3455,3.3619,3.3814,3.3799,3.3814,3.4273,3.4836,3.6005,3.6993,3.8063,3.887,3.8995,3.8995,3.8513,3.8189,3.8133,3.8064,3.7661,3.7413,3.7354,3.7145,1.542,1.542,1.542,1.542,1.542,1.542,1.542,1.542,1.542,1.542,1.542,1.5526,1.5468,1.5449,1.5683,1.6167,1.6602,1.7387,1.8558,1.9861,2.0858,2.1727,2.2406,2.2819,2.3092,2.3185,2.3198,2.3185,2.3382,2.3365,2.3095,2.3215,2.3215,2.3138,2.3168,2.3155,2.3275,2.3155,2.3215,2.3275,2.3125,2.3095,2.3095,2.3138,2.3874,2.4018,2.3692,2.4558,2.4623,2.3601,2.3976,2.5223,2.6998,2.7938,2.8984,3.0412,3.0456,3.0764,3.1131,3.0734,3.0675,3.1263,3.1365,3.1496,3.1409,3.1572,3.184,3.2184,3.2378,3.2691,3.3001,3.2757,3.2283,3.2112,3.0713,3.0197,3.1074,3.1677,3.2244,3.306,3.344,3.326,3.2647,3.3021,3.2991,3.2856,3.311,3.3304,3.3241,3.3527,3.3845,3.3996,3.4084,3.4129,3.4247,3.4367,3.4547,3.4595,3.4691,3.5202,3.5704,3.6805,3.7955,3.9036,3.9688,3.9876,3.985,3.9252,3.8978,3.8951,3.8624,3.8092,3.795,3.8035,3.8035,1.542,1.542,1.542,1.542,1.542,1.542,1.542,1.542,1.542,1.542,1.5497,1.5979,1.5902,1.5527,1.6363,1.6858,1.7126,1.7556,1.8829,2.0429,2.0901,2.1844,2.2705,2.3007,2.3095,2.3095,2.3095,2.3095,2.3095,2.3095,2.3095,2.3095,2.3095,2.3095,2.3155,2.3632,2.3632,2.3275,2.3721,2.3645,2.3193,2.3145,2.3095,2.3193,2.4333,2.4843,2.4777,2.5983,2.631,2.5446,2.5432,2.6529,2.8505,2.8997,2.9711,3.0863,3.1173,3.1204,3.138,3.1248,3.1292,3.1438,3.1496,3.1496,3.1525,3.1959,3.2258,3.2572,3.2916,3.332,3.3529,3.3746,3.3813,3.3625,3.2151,3.1232,3.1814,3.2121,3.2553,3.3316,3.3559,3.3469,3.338,3.3425,3.3499,3.341,3.3739,3.4141,3.4034,3.4302,3.4775,3.4968,3.507,3.504,3.507,3.516,3.5252,3.5334,3.5655,3.6198,3.6786,3.7626,3.8723,3.9782,3.9876,4.002,4.0045,3.9782,3.9756,3.961,3.948,3.9119,3.9129,3.9183,3.9102,1.542,1.542,1.542,1.542,1.542,1.542,1.542,1.542,1.542,1.5613,1.5892,1.6283,1.6569,1.6796,1.7426,1.7664,1.7617,1.8091,1.8824,1.9542,2.0567,2.1747,2.279,2.3095,2.3095,2.3095,2.3095,2.3095,2.3095,2.3095,2.3095,2.3095,2.3095,2.3095,2.3108,2.3484,2.3603,2.3296,2.3778,2.3901,2.3532,2.3697,2.3822,2.4113,2.5227,2.6118,2.6462,2.7237,2.7294,2.6694,2.6827,2.7842,2.9517,2.9782,3.0324,3.1409,3.1219,3.1087,3.138,3.1204,3.119,3.1409,3.1496,3.1496,3.1615,3.2093,3.2557,3.2961,3.3529,3.3993,3.4352,3.4696,3.4876,3.4733,3.37,3.2977,3.3179,3.3463,3.3802,3.4196,3.4337,3.4188,3.4008,3.4128,3.4128,3.4128,3.4487,3.4709,3.4812,3.5262,3.5489,3.5489,3.5489,3.5355,3.5295,3.5355,3.582,3.5946,3.6737,3.7261,3.7787,3.8481,3.9209,3.9952,4.0045,4.0113,4.0113,4.0113,4.002,3.9952,4.007,4.0045,3.9901,3.9782,3.9782,1.542,1.542,1.542,1.542,1.542,1.542,1.5478,1.5526,1.5439,1.5853,1.651,1.6624,1.7294,1.8481,1.8311,1.8331,1.8079,1.8516,1.8597,1.9223,2.0297,2.1868,2.2985,2.3095,2.3095,2.3095,2.3095,2.3095,2.3095,2.3095,2.3095,2.3095,2.3095,2.3095,2.3108,2.3168,2.3095,2.3238,2.3714,2.399,2.3991,2.4343,2.4562,2.4798,2.6319,2.752,2.8088,2.8493,2.8293,2.7327,2.8002,2.9078,3.0242,3.0435,3.0763,3.1234,3.1029,3.094,3.1292,3.0955,3.0792,3.138,3.1585,3.154,3.1705,3.2318,3.308,3.335,3.4143,3.4756,3.519,3.5444,3.5415,3.5322,3.5302,3.5143,3.4876,3.513,3.5489,3.5489,3.5474,3.5175,3.4981,3.5011,3.525,3.4696,3.5011,3.513,3.5188,3.5385,3.5489,3.5489,3.5489,3.5489,3.5474,3.5474,3.6071,3.6569,3.77,3.8425,3.8783,3.9342,3.9756,4.0113,4.0113,4.0113,4.0113,4.0113,4.0113,4.0113,4.0113,4.0113,4.007,3.9995,3.9969,1.542,1.542,1.542,1.542,1.542,1.542,1.5748,1.6208,1.5671,1.6216,1.7135,1.7357,1.7823,1.8612,1.8863,1.8681,1.8501,1.8516,1.8754,2.0182,2.1109,2.2177,2.2944,2.3065,2.3095,2.3095,2.3095,2.3095,2.3095,2.3095,2.3095,2.3095,2.3095,2.3095,2.3095,2.3095,2.3108,2.3208,2.3728,2.4104,2.4299,2.4696,2.5018,2.5211,2.6969,2.8568,2.9698,3.044,3.038,2.9827,2.9752,3.0246,3.0955,3.119,3.1292,3.138,3.138,3.1307,3.1409,3.1336,3.1292,3.1542,3.2004,3.2079,3.166,3.311,3.3694,3.3873,3.4547,3.525,3.5459,3.5489,3.5489,3.5489,3.5489,3.5459,3.534,3.54,3.5489,3.5489,3.5489,3.5444,3.5295,3.5295,3.54,3.531,3.5355,3.5474,3.5489,3.5489,3.5489,3.5489,3.5489,3.5522,3.5604,3.5814,3.6538,3.7203,3.8314,3.9183,3.9542,3.9782,4.002,4.0113,4.0113,4.0113,4.0113,4.0113,4.0113,4.0113,4.0113,4.0113,4.0113,4.0113,4.0113,1.5425,1.5911,1.5921,1.5921,1.5979,1.6283,1.6443,1.651,1.65,1.7052,1.7922,1.8112,1.8759,1.988,2.0045,1.9953,1.9329,1.8465,1.871,1.9922,2.0867,2.171,2.2506,2.2914,2.3095,2.3095,2.3095,2.3095,2.3095,2.3095,2.3095,2.3095,2.3095,2.3095,2.3095,2.312,2.3271,2.375,2.4533,2.5073,2.5395,2.5878,2.6453,2.6889,2.8291,2.9606,3.0241,3.1058,3.0955,3.0614,3.0644,3.1014,3.1365,3.1496,3.1496,3.1496,3.1496,3.1496,3.1511,3.178,3.1989,3.1959,3.2587,3.2706,3.2766,3.3769,3.4249,3.4294,3.4816,3.5489,3.5489,3.5489,3.5489,3.5489,3.5489,3.5489,3.5489,3.5489,3.5489,3.5489,3.5489,3.5489,3.5489,3.5489,3.5489,3.54,3.54,3.5489,3.5489,3.5489,3.5489,3.5489,3.5489,3.5554,3.5701,3.6164,3.7025,3.7819,3.8745,3.9437,3.9901,3.9995,4.007,4.0113,4.0113,4.0113,4.0113,4.0113,4.0113,4.0113,4.0113,4.0113,4.0113,4.0113,4.0113,1.5443,1.6521,1.6521,1.6539,1.6765,1.7274,1.7302,1.7034,1.7357,1.795,1.8715,1.8768,1.9498,2.0961,2.1098,2.089,2.0101,1.9123,1.8877,1.9497,2.0365,2.1195,2.2002,2.2702,2.3095,2.3095,2.3095,2.3095,2.3095,2.3095,2.3095,2.3095,2.3095,2.3095,2.3095,2.3246,2.3484,2.4022,2.5332,2.6235,2.6746,2.7372,2.8136,2.8976,2.9563,3.0242,3.0644,3.1131,3.1175,3.0584,3.1131,3.1438,3.1496,3.1496,3.1496,3.1496,3.1496,3.1496,3.1615,3.2034,3.2437,3.2542,3.3245,3.3499,3.3634,3.4113,3.4533,3.4696,3.504,3.5489,3.5489,3.5489,3.5489,3.5489,3.5489,3.5489,3.5489,3.5489,3.5489,3.5489,3.5489,3.5489,3.5489,3.5489,3.5489,3.5489,3.5489,3.5554,3.5572,3.5554,3.5587,3.5636,3.5668,3.5831,3.6006,3.695,3.7761,3.8246,3.9156,3.9636,4.007,4.0096,4.0113,4.0113,4.0113,4.0113,4.0113,4.0113,4.0113,4.0113,4.0113,4.0113,4.0113,4.0113,4.0113,1.5471,1.6521,1.6521,1.6849,1.7385,1.7578,1.7907,1.8205,1.7813,1.8394,1.9397,1.903,1.9568,2.0506,2.0512,2.0106,1.9737,1.9267,1.9199,1.9552,2.0301,2.1175,2.1908,2.2689,2.3065,2.3095,2.3095,2.3095,2.3095,2.3095,2.3095,2.3095,2.3158,2.3158,2.3308,2.3577,2.396,2.4594,2.5955,2.6892,2.7439,2.8338,2.916,2.9919,3.0269,3.0673,3.1117,3.138,3.1438,3.1322,3.1438,3.1467,3.1496,3.1496,3.1525,3.1585,3.16,3.1645,3.1809,3.2228,3.2467,3.2781,3.3634,3.3978,3.4008,3.4547,3.4953,3.4846,3.5085,3.5489,3.5489,3.5489,3.5489,3.5489,3.5489,3.5489,3.5489,3.5489,3.5489,3.5489,3.5489,3.5489,3.5489,3.5489,3.5489,3.5489,3.5489,3.5831,3.6134,3.5975,3.5782,3.5831,3.5863,3.6117,3.6353,3.7629,3.8608,3.8734,3.9332,3.9782,4.0096,4.0096,4.0113,4.0113,4.0113,4.0113,4.0113,4.0113,4.0113,4.0113,4.0113,4.0113,4.0113,4.0113,4.0113,1.5708,1.6798,1.7384,1.7841,1.8205,1.8581,1.8715,1.8688,1.8741,1.9123,1.9527,1.9474,1.9784,2.0468,2.0551,2.0328,2.0186,2.003,1.9987,2.0171,2.0846,2.1439,2.197,2.272,2.3005,2.3095,2.3095,2.3095,2.3095,2.3095,2.3095,2.3183,2.3371,2.3559,2.3684,2.4142,2.4786,2.5561,2.6809,2.7943,2.8612,2.9744,3.0345,3.0329,3.0703,3.1117,3.1365,3.1496,3.1496,3.1467,3.1496,3.1496,3.1511,3.157,3.1705,3.1959,3.2004,3.2183,3.2572,3.314,3.3544,3.3649,3.4457,3.4831,3.4756,3.5085,3.531,3.5205,3.5175,3.5489,3.5489,3.5489,3.5489,3.5489,3.5489,3.5489,3.5489,3.5489,3.5554,3.5587,3.5619,3.5587,3.5489,3.5489,3.5489,3.5489,3.5489,3.5975,3.6584,3.6306,3.5975,3.6569,3.6707,3.6889,3.7233,3.8173,3.9086,3.9262,3.9463,3.9927,4.0113,4.0113,4.0113,4.0113,4.0113,4.0113,4.0113,4.0113,4.0113,4.0113,4.0113,4.0113,4.0113,4.0113,4.0113,1.5817,1.7081,1.8105,1.8672,1.9006,1.9527,1.9475,1.9123,1.9501,1.9747,1.9798,1.9823,2.0023,2.0453,2.0634,2.072,2.0837,2.0625,2.0536,2.0486,2.135,2.1889,2.2106,2.2628,2.3095,2.3095,2.3095,2.3095,2.3095,2.3095,2.3095,2.3246,2.3672,2.3991,2.4067,2.4619,2.5698,2.6574,2.7867,2.9055,3.0349,3.1087,3.1219,3.0658,3.1146,3.1482,3.1496,3.1496,3.1496,3.1555,3.1645,3.1735,3.1735,3.1839,3.2213,3.2736,3.2677,3.2901,3.341,3.4008,3.4262,3.4277,3.5055,3.5385,3.5444,3.5385,3.5474,3.5489,3.5489,3.5489,3.5489,3.5489,3.5489,3.5489,3.5489,3.5489,3.5587,3.5668,3.5863,3.5863,3.5814,3.5765,3.5701,3.5489,3.5489,3.5489,3.5489,3.6258,3.6722,3.6337,3.6321,3.7294,3.7719,3.7876,3.8189,3.8663,3.9289,3.9516,3.9705,4.0045,4.0113,4.0113,4.0113,4.0113,4.0113,4.0113,4.0113,4.0113,4.0113,4.0113,4.0113,4.0113,4.0113,4.0113,4.0113,1.5473,1.7047,1.7744,1.8635,1.9555,1.9747,1.9773,1.9657,1.9747,1.9798,1.9798,1.9798,1.9849,2.0049,2.0515,2.0539,2.0507,2.0831,2.0761,2.053,2.1447,2.2044,2.2075,2.2732,2.3035,2.3095,2.3095,2.3095,2.3095,2.3095,2.3095,2.3221,2.3697,2.4017,2.4205,2.5059,2.5544,2.6158,2.7889,2.9667,3.097,3.1365,3.138,3.138,3.1409,3.1496,3.1496,3.1496,3.1496,3.157,3.2064,3.2318,3.2452,3.2991,3.3574,3.3694,3.3365,3.2811,3.3589,3.4233,3.4638,3.4726,3.5145,3.5429,3.5489,3.5489,3.5489,3.5489,3.5489,3.5489,3.5489,3.5489,3.5489,3.5489,3.5489,3.5489,3.5554,3.5991,3.6165,3.6446,3.6523,3.6212,3.6022,3.5733,3.5489,3.5489,3.5668,3.6461,3.7115,3.701,3.6844,3.779,3.8541,3.8761,3.8843,3.9342,3.9532,3.9756,3.9901,4.0113,4.0113,4.0113,4.0113,4.0113,4.0113,4.0113,4.0113,4.0113,4.0113,4.0113,4.0113,4.0113,4.0113,4.0113,4.0121,1.5185,1.6271,1.7842,1.8833,1.9371,1.966,1.9798,1.9798,1.9798,1.9798,1.9798,1.9798,1.9798,1.9924,2.0427,2.0615,2.0671,2.1313,2.1557,2.1296,2.2049,2.2567,2.2671,2.2914,2.3095,2.3095,2.3095,2.3095,2.3095,2.3095,2.3095,2.3233,2.3948,2.4462,2.4506,2.5536,2.6286,2.7236,2.8661,3.0027,3.0733,3.1219,3.1496,3.1496,3.1496,3.1496,3.1511,3.1496,3.1496,3.163,3.2138,3.2482,3.2632,3.3125,3.3769,3.4354,3.4008,3.4008,3.4577,3.4876,3.4981,3.507,3.5325,3.5474,3.5489,3.5489,3.5489,3.5489,3.5489,3.5489,3.5489,3.5489,3.5489,3.5489,3.5489,3.5489,3.5636,3.6212,3.6584,3.6904,3.7233,3.704,3.6783,3.6492,3.6321,3.618,3.6415,3.698,3.7962,3.8663,3.8469,3.8386,3.9059,3.9568,3.9594,3.9833,3.9808,3.9952,3.9952,4.0113,4.0113,4.0113,4.0113,4.0113,4.0113,4.0113,4.0113,4.0113,4.0113,4.0113,4.0113,4.0146,4.0196,4.0196,4.0229,1.5038,1.5716,1.7897,1.887,1.9045,1.9547,1.9798,1.9798,1.9798,1.9798,1.9798,1.9798,1.9798,1.9874,2.0225,2.0475,2.0752,2.1669,2.2121,2.2435,2.2782,2.304,2.3005,2.3095,2.3095,2.3095,2.3095,2.3095,2.3095,2.3095,2.3095,2.3158,2.4186,2.4662,2.5084,2.5829,2.6727,2.7591,2.8707,2.9659,3.0343,3.0881,3.1248,3.1409,3.1496,3.1496,3.1525,3.175,3.178,3.1914,3.2721,3.3185,3.326,3.3844,3.4322,3.4788,3.4651,3.4831,3.5175,3.5385,3.5489,3.5489,3.5489,3.5489,3.5489,3.5489,3.5489,3.5489,3.5489,3.5489,3.5489,3.5489,3.5489,3.5489,3.5489,3.5489,3.5701,3.6461,3.7084,3.744,3.7819,3.8246,3.7962,3.7528,3.7233,3.698,3.7203,3.7629,3.8481,3.9542,3.9542,3.9156,3.9411,3.991,3.9978,4.0045,4.0096,4.0113,4.0113,4.0113,4.0113,4.0113,4.0113,4.0113,4.0113,4.0113,4.0113,4.0113,4.0113,4.0113,4.0121,4.0229,4.0303,4.0336,4.0546,1.5051,1.573,1.7511,1.8544,1.9008,1.9559,1.9798,1.9798,1.9798,1.9798,1.9798,1.9798,1.9798,1.9836,1.9924,2.0251,2.0717,2.1307,2.1832,2.2343,2.2807,2.3058,2.3095,2.3095,2.3095,2.3095,2.3095,2.3095,2.3095,2.3095,2.3095,2.3258,2.4148,2.4612,2.5146,2.5896,2.6765,2.7451,2.8084,2.8957,2.9782,3.045,3.0792,3.1365,3.1496,3.1511,3.154,3.2034,3.2422,3.2437,3.3455,3.4038,3.4083,3.4681,3.51,3.519,3.525,3.5355,3.5474,3.5489,3.5489,3.5489,3.5489,3.5489,3.5489,3.5489,3.5489,3.5489,3.5489,3.5489,3.5489,3.5489,3.5489,3.5489,3.5522,3.5636,3.6053,3.6965,3.7573,3.7962,3.843,3.8924,3.9049,3.858,3.806,3.7819,3.8076,3.8469,3.8827,3.9662,3.9927,3.985,3.9901,4.007,4.007,4.0113,4.0113,4.0113,4.0113,4.0113,4.0113,4.0113,4.0113,4.0113,4.0113,4.0113,4.0113,4.0113,4.0113,4.0113,4.0196,4.0466,4.0814,4.103,4.1308,1.5028,1.5707,1.7467,1.8329,1.8593,1.9434,1.9798,1.9798,1.9798,1.9798,1.9798,1.9798,1.9798,1.9798,1.9823,2.0112,2.0717,2.127,2.1807,2.2334,2.2794,2.3058,2.3095,2.3095,2.3095,2.3095,2.3095,2.3095,2.3095,2.3095,2.3095,2.3384,2.3985,2.4456,2.5046,2.585,2.6599,2.7007,2.7517,2.8363,2.9254,3.0103,3.0673,3.1409,3.1496,3.175,3.2064,3.2333,3.2721,3.323,3.4038,3.4414,3.4607,3.519,3.5459,3.5489,3.5489,3.5489,3.5489,3.5489,3.5489,3.5489,3.5489,3.5489,3.5489,3.5489,3.5489,3.5489,3.5489,3.5489,3.5489,3.5489,3.5489,3.5489,3.5619,3.5782,3.6368,3.7308,3.7991,3.8358,3.9076,3.9773,3.9731,3.961,3.9102,3.8679,3.8995,3.9279,3.9558,3.9731,3.9952,4.0113,4.0113,4.0113,4.0113,4.0113,4.0113,4.0113,4.0113,4.0113,4.0113,4.0113,4.0113,4.0113,4.0113,4.0113,4.0113,4.0113,4.0113,4.0113,4.0417,4.085,4.1246,4.1643,4.1982,1.4966,1.5902,1.7315,1.8149,1.8544,1.9396,1.9798,1.9798,1.9798,1.9798,1.9798,1.9798,1.9798,1.9823,2.0063,2.0401,2.1018,2.1559,2.2058,2.2535,2.292,2.3083,2.3095,2.3095,2.3095,2.3095,2.3095,2.3095,2.3095,2.3095,2.3246,2.3471,2.3791,2.4305,2.4958,2.5883,2.6474,2.6645,2.7027,2.7986,2.8907,2.9566,3.051,3.1323,3.1705,3.2004,3.2497,3.2931,3.341,3.3873,3.4397,3.4773,3.4966,3.5175,3.5444,3.5489,3.5489,3.5489,3.5489,3.5489,3.5489,3.5489,3.5489,3.5489,3.5489,3.5489,3.5489,3.5489,3.5489,3.5489,3.5489,3.5489,3.5489,3.5489,3.5943,3.6196,3.6737,3.7512,3.8173,3.8745,3.948,4.0087,4.002,3.9901,3.9705,3.9332,3.9506,3.9679,3.9825,3.9952,4.002,4.0113,4.0113,4.0113,4.0113,4.0113,4.0113,4.0113,4.0113,4.0113,4.0113,4.0113,4.0113,4.0113,4.0113,4.0113,4.0113,4.0113,4.0113,4.0113,4.0618,4.1223,4.1647,4.2044,4.2542,1.4803,1.6397,1.7063,1.7959,1.8883,1.9572,1.9798,1.9798,1.9798,1.9798,1.9798,1.9798,1.9798,1.9911,2.0302,2.0842,2.1368,2.1945,2.2498,2.2895,2.3032,2.3095,2.3095,2.3095,2.3095,2.3095,2.3095,2.3095,2.3095,2.3095,2.3371,2.3853,2.4142,2.4456,2.4921,2.5946,2.6449,2.6487,2.6589,2.7504,2.8524,2.9052,3.0011,3.1073,3.2004,3.2363,3.2811,3.3619,3.4113,3.4517,3.4981,3.5265,3.5355,3.54,3.5489,3.5489,3.5489,3.5489,3.5489,3.5489,3.5489,3.5489,3.5489,3.5489,3.5489,3.5489,3.5489,3.5489,3.5489,3.5489,3.5489,3.5489,3.5489,3.5782,3.6196,3.6768,3.7306,3.7815,3.8536,3.9139,3.9662,4.0113,4.0113,4.007,4.007,3.9995,4.0045,4.0113,4.0113,4.0113,4.0113,4.0113,4.0113,4.0113,4.0113,4.0113,4.0113,4.0113,4.0113,4.0113,4.0113,4.0113,4.0113,4.0113,4.0113,4.0113,4.0113,4.0113,4.0113,4.0196,4.0984,4.1599,4.2024,4.2406,4.2809,1.4342,1.5304,1.6701,1.7701,1.8496,1.9419,1.9798,1.9798,1.9798,1.9798,1.9798,1.9798,1.9798,1.9987,2.0453,2.1018,2.1518,2.2071,2.2581,2.3045,2.3095,2.3095,2.3095,2.3095,2.3095,2.3095,2.3095,2.3095,2.3095,2.3158,2.3471,2.3954,2.472,2.5134,2.5473,2.6076,2.6487,2.6487,2.6589,2.7061,2.8071,2.8766,2.9611,3.0821,3.1961,3.2706,3.317,3.4143,3.4666,3.5011,3.5444,3.5474,3.5489,3.5489,3.5489,3.5489,3.5489,3.5489,3.5489,3.5489,3.5489,3.5489,3.5489,3.5489,3.5489,3.5489,3.5489,3.5489,3.5489,3.5489,3.5489,3.5489,3.5604,3.6165,3.6707,3.7365,3.793,3.8425,3.9005,3.9542,4.007,4.0096,4.0113,4.0113,4.0113,4.0113,4.0113,4.0113,4.0113,4.0113,4.0113,4.0113,4.0113,4.0113,4.0113,4.0113,4.0113,4.0113,4.0113,4.0113,4.0113,4.0113,4.0113,4.0113,4.0113,4.0113,4.0113,4.0113,4.0113,4.036,4.0914,4.1639,4.2203,4.2521,4.2865,1.3931,1.4715,1.6002,1.718,1.818,1.933,1.9798,1.9798,1.9798,1.9798,1.9798,1.9798,1.9798,2.0012,2.0616,2.1094,2.1568,2.2284,2.2644,2.3095,2.3095,2.3095,2.3095,2.3095,2.3095,2.3095,2.3095,2.3095,2.3133,2.3321,2.3904,2.4695,2.5431,2.5774,2.6038,2.6323,2.6487,2.6589,2.6803,2.7404,2.8298,2.9093,3.0033,3.117,3.2243,3.3155,3.3814,3.4442,3.5011,3.537,3.5489,3.5489,3.5489,3.5489,3.5489,3.5489,3.5489,3.5489,3.5489,3.5489,3.5489,3.5489,3.5489,3.5489,3.5489,3.5489,3.5489,3.5489,3.5489,3.5489,3.5489,3.5489,3.5831,3.6368,3.7084,3.7745,3.8481,3.8962,3.9385,3.9927,4.007,4.0096,4.0113,4.0113,4.0113,4.0113,4.0113,4.0113,4.0113,4.0113,4.0096,4.0096,4.0121,4.0146,4.0121,4.0113,4.0113,4.0113,4.0146,4.0179,4.0113,4.0113,4.0113,4.0096,4.0146,4.0171,4.0096,4.0113,4.0121,4.0196,4.041,4.1236,4.2183,4.2578,4.2789,1.3553,1.4556,1.5046,1.6361,1.803,1.9254,1.9798,1.9798,1.9798,1.9798,1.9798,1.9798,1.9798,2.0037,2.0953,2.143,2.1694,2.2585,2.2932,2.3083,2.3095,2.3095,2.3095,2.3095,2.3095,2.3095,2.3095,2.3108,2.317,2.3791,2.4602,2.5476,2.624,2.664,2.684,2.6942,2.6905,2.7007,2.7484,2.8084,2.878,2.9673,3.0576,3.1617,3.2675,3.3484,3.4188,3.4876,3.528,3.5489,3.5489,3.5489,3.5489,3.5489,3.5489,3.5489,3.5489,3.5489,3.5489,3.5489,3.5636,3.5701,3.5554,3.5522,3.5489,3.5489,3.5489,3.5489,3.5489,3.5489,3.5489,3.5668,3.5878,3.66,3.7338,3.8104,3.8924,3.9437,3.9833,4.0096,4.0096,4.0113,4.0113,4.0113,4.0113,4.0113,4.0113,4.0113,4.0113,4.0113,4.0096,4.0121,4.0171,4.0204,4.0229,4.0392,4.0392,4.049,4.036,4.0336,4.0229,4.0229,4.0336,4.0385,4.0279,4.0279,4.0343,4.0311,4.0204,4.0254,4.0279,4.0885,4.1853,4.2302,4.2598,1.3096,1.3559,1.5318,1.6367,1.7124,1.899,1.9798,1.9798,1.9798,1.9798,1.9798,1.9798,1.9798,1.9911,2.0978,2.138,2.1907,2.2485,2.2932,2.3095,2.3095,2.3095,2.3095,2.3095,2.3095,2.3125,2.3155,2.3258,2.3462,2.4149,2.5183,2.5955,2.7029,2.7645,2.8009,2.8247,2.7901,2.7769,2.8312,2.8716,2.9223,2.9995,3.0742,3.1468,3.2809,3.3543,3.4068,3.4996,3.54,3.5489,3.5489,3.5489,3.5489,3.5489,3.5489,3.5489,3.5489,3.5489,3.5489,3.5489,3.5686,3.5975,3.5831,3.5522,3.5489,3.5522,3.5522,3.5489,3.5489,3.5489,3.5554,3.5718,3.6243,3.7055,3.7777,3.8442,3.9209,3.9756,4.0113,4.0113,4.0113,4.0113,4.0113,4.0113,4.0113,4.0113,4.0113,4.0113,4.0113,4.0113,4.0229,4.0237,4.0392,4.0497,4.0821,4.1018,4.092,4.0844,4.075,4.0672,4.0672,4.0696,4.0713,4.0791,4.0908,4.0821,4.0726,4.0655,4.0648,4.0279,4.0279,4.0861,4.142,4.1874,4.2501,1.3104,1.3164,1.485,1.6098,1.7245,1.9002,1.9798,1.9798,1.9798,1.9798,1.9798,1.9798,1.9798,1.9987,2.0928,2.1506,2.1594,2.2573,2.3095,2.3095,2.3095,2.3095,2.3095,2.3155,2.3335,2.3424,2.3619,2.3855,2.4197,2.5213,2.6297,2.6933,2.793,2.8512,2.8906,2.916,2.9223,2.9083,2.9209,2.9442,2.9827,3.0328,3.0775,3.1335,3.2824,3.3408,3.3918,3.4996,3.54,3.5489,3.5489,3.5489,3.5489,3.5489,3.5489,3.5489,3.5489,3.5489,3.5554,3.5863,3.6165,3.6368,3.6212,3.6054,3.5799,3.575,3.5604,3.5489,3.5489,3.5522,3.5636,3.5831,3.6738,3.7648,3.8234,3.8789,3.9385,3.9969,4.0113,4.0113,4.0113,4.0113,4.0113,4.0113,4.0113,4.0113,4.0113,4.0113,4.0113,4.0113,4.0336,4.0546,4.0726,4.088,4.1251,4.1582,4.1473,4.138,4.1313,4.1223,4.1196,4.1218,4.1308,4.1486,4.166,4.1512,4.1313,4.1268,4.1178,4.0814,4.0689,4.1308,4.1617,4.153,4.2246,1.3515,1.3105,1.4115,1.6022,1.7981,1.923,1.9736,1.9798,1.9798,1.9798,1.9798,1.9798,1.9798,2.0024,2.0953,2.1455,2.1807,2.2598,2.3095,2.3095,2.3095,2.3095,2.3125,2.3215,2.3649,2.4089,2.4463,2.4675,2.5544,2.6421,2.7254,2.8108,2.8814,2.9352,2.9648,3.0103,3.0238,3.0224,3.0224,3.0389,3.0554,3.1117,3.1795,3.2258,3.302,3.3709,3.4369,3.4951,3.5489,3.5489,3.5489,3.5489,3.5489,3.5489,3.5489,3.5489,3.5489,3.5636,3.5799,3.6165,3.6646,3.6813,3.6722,3.6843,3.6737,3.5926,3.5587,3.5799,3.5894,3.6133,3.6274,3.6585,3.7279,3.7962,3.8525,3.9129,3.9705,4.007,4.0113,4.0113,4.0113,4.0113,4.0113,4.0113,4.0113,4.0113,4.0113,4.0113,4.0171,4.0171,4.0466,4.0844,4.1268,4.1556,4.1814,4.2044,4.2003,4.194,4.1877,4.1874,4.1832,4.1874,4.1919,4.2083,4.2244,4.2101,4.1937,4.1895,4.1789,4.153,4.1552,4.1976,4.1979,4.169,4.2147,1.412,1.375,1.5273,1.7039,1.8647,1.9058,1.9459,1.9786,1.9798,1.9798,1.9798,1.9798,1.9798,1.9974,2.0978,2.1481,2.1744,2.2573,2.3007,2.3095,2.3095,2.3095,2.3215,2.3501,2.4031,2.4394,2.4835,2.5646,2.6372,2.7202,2.8068,2.9042,2.9724,3.025,3.0629,3.1058,3.1087,3.1058,3.1058,3.1058,3.119,3.1248,3.166,3.2138,3.2751,3.3514,3.4173,3.4891,3.531,3.5489,3.5489,3.5489,3.5489,3.5489,3.5489,3.5489,3.5522,3.575,3.6181,3.6569,3.7112,3.7729,3.7917,3.8032,3.7587,3.6274,3.5782,3.6149,3.6461,3.6738,3.7025,3.7368,3.7732,3.8258,3.8827,3.9437,4.0045,4.007,4.0113,4.0113,4.0113,4.0113,4.0113,4.0113,4.0113,4.0113,4.0113,4.0146,4.0311,4.0417,4.0744,4.1173,4.1997,4.2322,4.2501,4.2581,4.2581,4.2541,4.2482,4.2462,4.248,4.258,4.2658,4.2694,4.2733,4.2619,4.2541,4.25,4.238,4.2183,4.2088,4.237,4.2352,4.2096,4.2564,1.4732,1.4407,1.5777,1.7264,1.8533,1.8895,1.9296,1.9736,1.9798,1.9798,1.9798,1.9798,1.9798,1.9974,2.0978,2.1481,2.1694,2.2606,2.2982,2.3095,2.3095,2.3095,2.3365,2.3649,2.4266,2.4738,2.6202,2.7145,2.7421,2.8419,2.9442,2.9941,3.059,3.1077,3.1496,3.1496,3.1496,3.1467,3.1496,3.1496,3.1496,3.1496,3.172,3.2138,3.2826,3.3514,3.4218,3.4936,3.531,3.5489,3.5489,3.5489,3.5489,3.5489,3.5489,3.5489,3.5587,3.5846,3.6446,3.7038,3.7613,3.833,3.8663,3.8564,3.8425,3.7293,3.686,3.713,3.713,3.7368,3.7602,3.7905,3.823,3.8701,3.9262,3.985,4.0045,4.007,4.0113,4.0113,4.0113,4.0113,4.0113,4.0113,4.0113,4.0113,4.0113,4.0104,4.0294,4.0767,4.1082,4.1495,4.2304,4.2846,4.3032,4.3123,4.3196,4.3124,4.2995,4.3014,4.3014,4.325,4.3392,4.3141,4.3051,4.3214,4.3142,4.2795,4.2941,4.2884,4.2737,4.2645,4.2534,4.2371,4.2723,1.532,1.5108,1.5984,1.7092,1.8182,1.8669,1.9221,1.9748,1.9798,1.9798,1.9798,1.9798,1.9798,2.0175,2.0928,2.128,2.1832,2.2656,2.3007,2.3095,2.3095,2.3095,2.3155,2.3382,2.4339,2.5758,2.7314,2.8107,2.8607,2.9548,3.0218,3.0673,3.1062,3.1496,3.1496,3.1496,3.1496,3.1496,3.1496,3.1496,3.1496,3.1525,3.1884,3.2467,3.3155,3.383,3.4488,3.5026,3.5429,3.5489,3.5489,3.5489,3.5489,3.5489,3.5489,3.5489,3.5489,3.6006,3.6707,3.7381,3.8161,3.8816,3.8935,3.8989,3.887,3.8608,3.8177,3.8035,3.8064,3.8076,3.8302,3.8541,3.8881,3.9113,3.9662,4.0045,4.007,4.0113,4.0113,4.0113,4.0113,4.0113,4.0113,4.0113,4.0113,4.0113,4.0104,4.0095,4.0309,4.0995,4.1516,4.1926,4.2544,4.3032,4.3391,4.3444,4.3444,4.341,4.3268,4.341,4.3479,4.3479,4.3387,4.315,4.3151,4.3042,4.2877,4.2534,4.2825,4.2972,4.2519,4.2104,4.2193,4.2139,4.2535,1.582,1.6185,1.6405,1.7137,1.8141,1.8342,1.8907,1.971,1.9798,1.9798,1.9798,1.9798,1.9798,1.9874,2.0978,2.1518,2.1794,2.2644,2.3007,2.3095,2.3095,2.3095,2.3412,2.4005,2.4965,2.6378,2.7795,2.8755,2.9295,3.0088,3.0806,3.1256,3.1301,3.1496,3.1496,3.1496,3.1496,3.1496,3.1496,3.1496,3.1511,3.163,3.1914,3.2467,3.3155,3.3799,3.4472,3.5145,3.54,3.5489,3.5489,3.5489,3.5489,3.5489,3.5489,3.5489,3.5489,3.6164,3.6905,3.7499,3.8274,3.9358,3.9542,3.9688,3.9636,3.9636,3.9332,3.9252,3.9226,3.9129,3.9262,3.948,3.9756,3.9756,4.0045,4.007,4.0096,4.0113,4.0113,4.0113,4.0113,4.0113,4.0113,4.0113,4.0113,4.0121,4.0204,4.0186,4.0227,4.1036,4.1926,4.237,4.2811,4.3159,4.3479,4.3462,4.3479,4.3479,4.3479,4.3479,4.3479,4.3479,4.3332,4.2947,4.258,4.2343,4.2194,4.2066,4.1866,4.1869,4.1592,4.1357,4.1517,4.1754,4.2029]}]]